     2              OBSERVATION DATA    GPS                 RINEX VERSION / TYPE
TRRINEXO V2.4.6 UX                                          PGM / RUN BY / DATE
                                                            COMMENT
BIT 2 OF LLI (+4) FLAGS DATA COLLECTED UNDER "AS" CONDITION COMMENT
Original Marker Name: metz                                  COMMENT
Campaign Name: STRC 1995                                    COMMENT
4-Character Station Name: METZ                              COMMENT
6-Character Antenna Code: TRMSST                            COMMENT
Vertical Measurement Point: TGP                             COMMENT
Vertical Offset to Rinex Ref. Point: 0.0629                 COMMENT
Radial Measurement Point: NGP                               COMMENT
Radial Offset to Rinex Ref. Point: 0.2334                   COMMENT
Antenna Height from Field Measurement: 1.4390 m             COMMENT
Original XYZ: -2428090.3991 -4718132.2375 3527985.1059      COMMENT
New XYZ position is based on association with SCEC monument COMMENT
E1D0O7N1+0011. Position of that monument is believed to be  COMMENT
valid to within 1 m horizontally; vertical accuracy         COMMENT
should be no worse than 3-times this value.                 COMMENT
                                                            COMMENT
Revised Rinex header created by UCSD GPS archive for        COMMENT
GSAC on 12-Apr-1999 (1999:102) 19:34:07 GMT                 COMMENT
For assistance contact dagnew@ucsd.edu or hjohnson@ucsd.edu COMMENT
                                                            COMMENT
(METZ 3D)                                                   MARKER NAME
PERRIS-METZ                                                 MARKER NUMBER
M. Dawson UNIV. CALIF. RIVERSIDE                            OBSERVER / AGENCY
3059 TRIMBLE 4000 SSE 6.10                                  REC # / TYPE / VERS
68283 TR 4000SST L1/L2 GEO                                  ANT # / TYPE
 -2428064.0000 -4718079.0000  3527931.0000                  APPROX POSITION XYZ
        1.3570        0.0000        0.0000                  ANTENNA: DELTA H/E/N
     1     1     0                                          WAVELENGTH FACT L1/2
     5    C1    L1    L2    P2    P1                        # / TYPES OF OBSERV
    30                                                      INTERVAL
  1995     2    19    16     0   30.000000                  TIME OF FIRST OBS
  1995     2    20     0     0    0.000000                  TIME OF LAST OBS
     0                                                      # OF SATELLITES
                                                            END OF HEADER
 95  2 19 16  0 30.0000000  0  6  1 14 15 22 25 29
  24991651.203     5944098.44414   4562921.13659  24991655.4344
  21433904.203    -5029799.70917  -3842796.86359  21433905.3874
  21978147.594     4343924.96017   3353936.89459  21978149.9844
  22963146.453    -6064339.01716  -4614633.78359  22963149.0314
  21674687.805     3934222.32418   3033705.46059  21674688.4494
  23113854.438    -4117100.11116  -3138216.92459  23113856.0084
 95  2 19 16  1  0.0000000  0  6  1 14 15 22 25 29
  25007327.297     6026478.349 3   4627113.15548  25007330.5784
  21423456.977    -5084701.859 7  -3885577.76049  21423457.8094
  21993358.820     4423859.720 7   3416223.70249  21993361.1054
  22949432.234    -6136408.129 6  -4670791.51349  22949434.6844
  21688227.047     4005369.622 8   3089144.89449  21688227.5514
  23104751.234    -4164935.444 6  -3175491.18449  23104752.6174
 95  2 19 16  1 30.0000000  0  6  1 14 15 22 25 29
  25023032.664     6109009.431 4   4691422.97546  25023036.4844
  21413094.250    -5139157.481 7  -3928010.70649  21413095.5514
  22008679.367     4504370.166 6   3478959.07449  22008681.5234
  22935797.336    -6208061.620 6  -4726625.37349  22935799.7624
  21701860.164     4077013.011 8   3144970.90149  21701860.6684
  23095689.148    -4212557.120 6  -3212598.96149  23095690.6954
 95  2 19 16  2  0.0000000  0  6  1 14 15 22 25 29
  25038768.586     6191699.874 4   4755857.02049  25038771.9024
  21402818.125    -5193158.580 7  -3970089.47649  21402819.4734
  22024111.047     4585463.592 6   3542148.72149  22024113.2274
  22922243.344    -6279288.646 6  -4782126.91949  22922245.6294
  21715593.781     4149183.300 8   3201207.47949  21715594.3204
  23086671.055    -4259945.690 6  -3249525.09649  23086672.4844
 95  2 19 16  2 30.0010000  0  6  1 14 15 22 25 29
  25054526.724     6274505.477 5   4820380.79547  25054529.6304
  21392624.833    -5246725.693 7  -4011830.07649  21392625.9704
  22039647.255     4667107.380 6   3605767.21949  22039649.5874
  22908761.028    -6350137.132 6  -4837333.49449  22908763.6184
  21729422.669     4221854.474 8   3257834.34849  21729423.3604
  23077695.661    -4307116.299 6  -3286281.40549  23077696.7394
 95  2 19 16  3  0.0010000  0  5 14 15 22 25 29
  21382520.286    -5299825.155 7  -4053206.27249  21382521.2824
  22055290.450     4749311.390 6   3669822.25949  22055292.7944
  22895353.239    -6420594.006 6  -4892234.91349  22895355.9234
  21743348.044     4295031.806 8   3314855.63549  21743348.4544
  23068768.216    -4354031.964 6  -3322839.03749  23068769.0134
 95  2 19 16  3 30.0010000  0  5 14 15 22 25 29
  21372503.731    -5352463.983 7  -4094223.53749  21372504.8804
  22071037.942     4832066.593 6   3734306.79449  22071040.2514
  22882016.528    -6490678.495 6  -4946846.16449  22882019.1304
  21757367.177     4368703.281 8   3372261.96649  21757367.7044
  23059890.317    -4400683.717 6  -3359191.03249  23059891.6064
 95  2 19 16  4  0.0010000  0  5 14 15 22 25 29
  21362572.302    -5404651.571 7  -4134889.18349  21362573.4504
  22086889.419     4915364.303 6   3799214.06149  22086891.8924
  22868751.052    -6560390.406 6  -5001167.10149  22868753.5014
  21771478.646     4442860.370 8   3430046.68849  21771479.3024
  23051060.263    -4447084.746 6  -3395347.65149  23051061.3994
 95  2 19 16  4 30.0010000  0  5 14 15 22 25 29
  21352727.497    -5456387.193 7  -4175202.65649  21352728.6814
  22102843.474     4999200.676 7   3864541.07449  22102845.3254
  22855558.427    -6629715.866 6  -5055186.89949  22855561.3564
  21785678.372     4517479.664 8   3488191.57449  21785678.8884
  23042274.669    -4493251.393 6  -3431321.62449  23042276.4974
 95  2 19 16  5  0.0010000  0  5 14 15 22 25 29
  21342966.442    -5507680.803 7  -4215171.70349  21342967.7084
  22118898.466     5083572.620 7   3930285.40949  22118900.3994
  22842446.200    -6698620.542 6  -5108878.80749  22842449.2004
  21799966.685     4592564.979 8   3546699.59049  21799967.3534
  23033530.817    -4539202.273 6  -3467127.49349  23033531.6964
 95  2 19 16  5 30.0010000  0  5 14 15 22 25 29
  21333288.685    -5558539.828 7  -4254802.11149  21333289.9624
  22135055.731     5168480.477 6   3996447.34649  22135057.9114
  22829419.442    -6767077.555 6  -5162221.89549  22829422.1144
  21814345.716     4668126.788 8   3605578.90249  21814346.3254
  23024824.763    -4584953.692 6  -3502777.93949  23024825.8534
 95  2 19 16  6  0.0010000  0  5 14 15 22 25 29
  21323688.591    -5608988.956 7  -4294113.11749  21323689.5284
  22151311.138     5253901.604 6   4063009.22849  22151313.7634
  22816477.521    -6835088.869 6  -5215217.68049  22816480.6734
  21828807.833     4744125.735 8   3664798.84649  21828808.4424
  23016152.474    -4630527.138 6  -3538289.69949  23016153.8214
 95  2 19 16  6 30.0010000  0  5 14 15 22 25 29
  21314170.872    -5659004.232 7  -4333086.05849  21314172.0794
  22167667.067     5339853.410 7   4129984.62949  22167669.2244
  22803624.825    -6902630.867 6  -5267847.78649  22803627.2284
  21843355.552     4820575.090 8   3724369.75249  21843356.2434
  23007521.771    -4675880.327 6  -3573629.83549  23007523.3064
 95  2 19 16  7  0.0010000  0  5 14 15 22 25 29
  21304734.833    -5708591.485 7  -4371725.47849  21304735.8644
  22184122.427     5426326.824 7   4197366.47649  22184124.6064
  22790858.177    -6969722.613 6  -5320127.04249  22790860.3564
  21857988.903     4897473.804 8   3784290.80449  21857989.5954
  22998934.794    -4721003.713 6  -3608790.90849  22998935.9664
 95  2 19 16  7 30.0010000  0  5 14 15 22 25 29
  21295381.833    -5757742.394 7  -4410024.88849  21295382.7714
  22200675.739     5513313.407 6   4265148.19549  22200678.0834
  22778170.935    -7036392.206 6  -5372077.33949  22778173.7824
  21872702.802     4974795.652 8   3844541.57249  21872703.4464
  22990393.153    -4765891.115 6  -3643768.09949  22990394.1144
 95  2 19 16  8  0.0010000  0  5 14 15 22 25 29
  21286111.138    -5806458.971 7  -4447985.86349  21286112.2164
  22217320.825     5600785.048 7   4333307.88149  22217323.0054
  22765555.958    -7102683.621 6  -5423732.94749  22765558.6654
  21887490.841     5052505.254 8   3905094.49049  21887491.3924
  22981894.130    -4810553.165 6  -3678569.68649  22981895.0794
 95  2 19 16  8 30.0010000  0  5 14 15 22 25 29
  21276928.481    -5854714.913 7  -4485587.89049  21276929.8884
  22234059.950     5688747.104 7   4401849.70549  22234061.8844
  22753012.239    -7168599.890 6  -5475096.25949  22753015.0754
  21902356.653     5130626.565 8   3965968.22449  21902357.1464
  22973439.294    -4854985.246 6  -3713192.08149  22973440.1854
 95  2 19 16  9  0.0010000  0  5 14 15 22 25 29
  21267831.622    -5902519.582 7  -4522838.27949  21267832.7944
  22250889.778     5777189.262 7   4470765.63649  22250891.8064
  22740538.567    -7234151.721 6  -5526175.58349  22740541.5914
  21917299.833     5209153.214 8   4027157.80449  21917300.2434
  22965023.130    -4899217.613 6  -3747658.85449  22965023.3294
 95  2 19 16  9 30.0010000  0  5 14 15 22 25 29
  21258820.239    -5949872.785 7  -4559736.88549  21258821.0834
  22267811.216     5866112.816 6   4540056.67649  22267813.1614
  22728137.896    -7299316.528 6  -5576953.32749  22728140.4384
  21932320.888     5288089.480 8   4088666.56149  21932321.2284
  22956640.286    -4943265.745 6  -3781982.07249  22956640.7674
 95  2 19 16 10  0.0010000  0  5 14 15 22 25 29
  21249892.942    -5996787.027 7  -4596293.43949  21249893.9974
  22284823.880     5955516.036 6   4609721.47849  22284826.1654
  22715814.458    -7364076.805 6  -5627415.86649  22715816.5564
  21947424.067     5367455.882 8   4150510.48749  21947424.3604
  22948291.411    -4987137.661 6  -3816167.97749  22948292.9814
 95  2 19 16 10 30.0010000  0  5 14 15 22 25 29
  21241045.169    -6043282.208 7  -4632523.44949  21241046.2124
  22301926.771     6045390.535 6   4679753.51649  22301928.8564
  22703570.763    -7428416.896 6  -5677550.96749  22703573.1304
  21962609.216     5447255.253 8   4212691.79849  21962609.4504
  22939974.224    -5030845.186 6  -3850225.77849  22939976.3924
 95  2 19 16 11  0.0010000  0  5 14 15 22 25 29
  21232273.075    -6089380.367 7  -4668444.09449  21232274.4464
  22319116.481     6135724.159 6   4750143.31349  22319119.0484
  22691408.544    -7492330.863 6  -5727354.03549  22691411.4154
  21977873.333     5527468.996 8   4275195.99249  21977873.7434
  22931686.403    -5074398.714 6  -3884163.59349  22931687.6814
 95  2 19 16 11 30.0010000  0  5 14 15 22 25 29
  21223580.708    -6135059.842 7  -4704038.48849  21223581.7984
  22336394.466     6226520.567 6   4820893.72849  22336396.9504
  22679330.130    -7555801.022 6  -5776811.26949  22679333.2594
  21993217.880     5608105.853 8   4338029.89249  21993218.2784
  22923431.794    -5117777.264 6  -3917965.05449  22923432.8844
 95  2 19 16 12  0.0010000  0  5 14 15 22 25 29
  21214970.450    -6180306.122 7  -4739295.32849  21214971.6104
  22353760.747     6317780.929 6   4892005.66649  22353763.2314
  22667336.638    -7618826.886 6  -5825922.30649  22667339.2634
  22008642.950     5689165.065 8   4401192.89649  22008643.2904
  22915214.169    -5160961.731 6  -3951615.27349  22915214.8024
 95  2 19 16 12 30.0010000  0  5 14 15 22 25 29
  21206444.138    -6225112.522 7  -4774209.40649  21206445.1104
  22371215.099     6409505.049 6   4963478.96549  22371217.5714
  22655426.216    -7681416.359 6  -5874693.30249  22655428.8414
  22024145.458     5770630.719 8   4464672.60549  22024145.8454
  22907035.036    -5203944.384 6  -3985108.23649  22907035.6104
 95  2 19 16 13  0.0010000  0  5 14 15 22 25 29
  21197998.778    -6269493.811 7  -4808792.23849  21197999.7984
  22388754.239     6501671.107 6   5035296.63649  22388756.8174
  22643592.575    -7743604.347 6  -5923151.44649  22643594.8494
  22039718.505     5852469.114 8   4528442.76249  22039719.1264
  22898891.060    -5246739.016 6  -4018454.70549  22898891.8684
 95  2 19 16 13 30.0010000  0  5 14 15 22 25 29
  21189639.239    -6313422.392 7  -4843022.30149  21189640.2474
  22406378.552     6594290.035 6   5107467.19649  22406381.4114
  22631834.872    -7805390.423 6  -5971296.41649  22631837.5324
  22055364.786     5934689.591 8   4592510.64849  22055365.2084
  22890786.388    -5289328.931 6  -4051641.64649  22890787.3844
 95  2 19 16 14  0.0010000  0  5 14 15 22 25 29
  21181368.114    -6356886.645 7  -4876890.54749  21181369.3454
  22424092.575     6687376.395 6   5180001.97349  22424095.1184
  22620156.310    -7866764.522 6  -6019120.35049  22620158.6884
  22071085.520     6017303.163 8   4656884.83549  22071086.1884
  22882724.458    -5331692.333 6  -4084652.07549  22882725.9114
 95  2 19 16 14 30.0010000  0  5 14 15 22 25 29
  21173184.606    -6399891.676 7  -4910400.96049  21173185.7084
  22441892.786     6780916.362 6   5252890.22749  22441895.5054
  22608554.013    -7927735.932 6  -6066630.51549  22608556.3804
  22086879.169     6100298.628 7   4721556.60449  22086879.9314
  22874704.481    -5373839.079 6  -4117493.67349  22874705.6064
 95  2 19 16 15  0.0010000  0  5 14 15 22 25 29
  21165088.349    -6442437.382 7  -4943553.45949  21165089.4274
  22459773.271     6874880.113 6   5326108.69149  22459775.7904
  22597027.513    -7988307.224 6  -6113828.90049  22597029.6464
  22102742.958     6183662.027 8   4786515.07149  22102743.6734
  22866719.927    -5415797.994 6  -4150188.90749  22866720.5014
 95  2 19 16 15 30.0010000  0  5 14 15 22 25 29
  21157083.521    -6484503.983 7  -4976332.63249  21157084.5994
  22477736.583     6969277.323 6   5399664.91749  22477739.1384
  22585586.802    -8048426.819 6  -6160675.32449  22585589.0754
  22118679.575     6267411.063 7   4851774.03549  22118680.2674
  22858772.778    -5457560.115 6  -4182730.80449  22858773.6574
 95  2 19 16 16  0.0010000  0  5 14 15 22 25 29
  21149171.114    -6526085.343 7  -5008733.68649  21149172.3804
  22495784.950     7064120.769 6   5473568.86449  22495787.3414
  22574241.099    -8108049.399 6  -6207134.45049  22574243.8534
  22134693.099     6351563.600 7   4917347.41449  22134693.8724
  22850864.489    -5499120.346 6  -4215115.40949  22850865.0754
 95  2 19 16 16 30.0010000  0  5 14 15 22 25 29
  21141352.349    -6567171.072 7  -5040748.54249  21141353.5324
  22513918.067     7159409.293 6   5547819.62149  22513920.7634
  22562991.810    -8167161.255 6  -6253195.62149  22562994.3174
  22150783.114     6436118.363 7   4983234.21749  22150783.8534
  22842993.114    -5540484.522 6  -4247347.19549  22842994.0054
 95  2 19 16 17  0.0010000  0  5 14 15 22 25 29
  21133623.411    -6607788.441 7  -5072398.43649  21133624.5714
  22532131.544     7255124.739 6   5622403.03549  22532133.8884
  22551838.997    -8225772.414 6  -6298866.64149  22551841.4354
  22166947.372     6521059.933 7   5049422.43049  22166948.0994
  22835155.044    -5581673.232 6  -4279442.27449  22835156.1464
 95  2 19 16 17 30.0010000  0  5 14 15 22 25 29
  21125976.489    -6647972.309 7  -5103710.54349  21125978.0014
  22550425.630     7351257.345 6   5697311.51949  22550428.2084
  22540775.716    -8283909.821 6  -6344168.49949  22540778.0484
  22183180.497     6606364.959 7   5115893.84949  22183181.4464
  22827347.825    -5622700.185 6  -4311411.31649  22827348.7284
 95  2 19 16 18  0.0010000  0  5 14 15 22 25 29
  21118413.927    -6687715.289 7  -5134679.09749  21118415.2044
  22568798.466     7447807.623 6   5772545.45949  22568800.9504
  22529795.575    -8341611.386 6  -6389130.74749  22529798.2944
  22199483.856     6692041.998 7   5182655.14449  22199484.9814
  22819573.310    -5663556.311 6  -4343247.25049  22819574.5404
 95  2 19 16 18 30.0010000  0  5 14 15 22 25 29
  21110937.263    -6727005.088 7  -5165294.53249  21110938.2594
  22587249.544     7544772.380 6   5848102.37449  22587252.4154
  22518894.427    -8398897.269 6  -6433769.07749  22518897.0874
  22215858.435     6778089.660 7   5249705.23649  22215859.3494
  22811834.216    -5704224.144 6  -4374936.45349  22811835.8924
 95  2 19 16 19  0.0010000  0  5 14 15 22 25 29
  21103546.052    -6765847.205 7  -5195561.11549  21103547.0484
  22605779.419     7642146.004 6   5923977.89549  22605782.0564
  22508072.466    -8455767.610 6  -6478083.60949  22508074.7044
  22232302.724     6864503.181 7   5317040.41049  22232303.4274
  22804128.872    -5744714.661 6  -4406487.49149  22804130.0444
 95  2 19 16 19 30.0010000  0  5 14 15 22 25 29
  21096247.856    -6804201.034 7  -5225447.22349  21096248.8174
  22624390.146     7739944.997 6   6000184.85449  22624392.7244
  22497333.263    -8512200.923 6  -6522057.60249  22497335.7004
  22248819.872     6951300.529 7   5384674.67249  22248820.4354
  22796462.825    -5785001.354 6  -4437879.71149  22796464.1034
 95  2 19 16 20  0.0010000  0  5 14 15 22 25 29
  21089042.763    -6842061.911 7  -5254949.21149  21089043.9464
  22643078.778     7838153.932 6   6076711.26049  22643081.6144
  22486678.974    -8568192.549 6  -6565687.41849  22486681.2944
  22265408.771     7038475.681 7   5452603.32949  22265409.3804
  22788834.794    -5825088.488 6  -4469116.42849  22788835.7784
 95  2 19 16 20 30.0010000  0  5 14 15 22 25 29
  21081930.317    -6879438.066 7  -5284073.49749  21081931.5604
  22661843.646     7936765.827 6   6153551.65749  22661846.6464
  22476114.044    -8623711.067 6  -6608948.58249  22476116.3644
  22282065.310     7126006.311 7   5520808.97749  22282065.9074
  22781241.427    -5864991.390 6  -4500209.58649  22781242.6464
 95  2 19 16 21  0.0010000  0  5 14 15 22 25 29
  21074911.310    -6916322.481 7  -5312814.61049  21074912.4934
  22680686.075     8035781.729 6   6230706.87049  22680688.4544
  22465643.513    -8678734.311 6  -6651823.81049  22465645.8924
  22298788.888     7213888.126 7   5589288.27749  22298789.5794
  22773681.903    -5904718.635 6  -4531165.86849  22773682.9814
 95  2 19 16 21 30.0010000  0  5 14 15 22 25 29
  21067989.700    -6952696.479 7  -5341157.99149  21067990.9314
  22699607.794     8135215.345 6   6308187.57449  22699610.3134
  22455269.997    -8733244.891 6  -6694299.56049  22455272.3994
  22315581.396     7302132.269 7   5658049.90449  22315581.9234
  22766160.536    -5944240.989 6  -4561962.50749  22766161.7554
 95  2 19 16 22  0.0010000  0  5 14 15 22 25 29
  21061159.052    -6988591.978 7  -5369128.51049  21061160.4114
  22718603.927     8235041.559 6   6385974.18949  22718606.3414
  22444992.958    -8787251.194 6  -6736382.36449  22444995.2434
  22332438.239     7390716.239 7   5727076.33949  22332438.8134
  22758673.185    -5983586.301 6  -4592621.17349  22758674.4384
 95  2 19 16 22 30.0010000  0  5 14 15 22 25 29
  21054421.294    -7023998.652 7  -5396718.13249  21054422.5364
  22737676.888     8335268.493 6   6464073.06149  22737679.4194
  22434813.981    -8840742.827 6  -6778064.12949  22434816.5134
  22349362.263     7479653.061 7   5796377.72249  22349362.7784
  22751223.161    -6022739.536 7  -4623130.18149  22751224.0174
 95  2 19 16 23  0.0010000  0  5 14 15 22 25 29
  21047778.653    -7058906.527 7  -5423919.08049  21047779.8964
  22756826.919     8435901.663 6   6542488.47549  22756829.2744
  22424731.622    -8893725.176 6  -6819349.05049  22424733.8964
  22366357.919     7568965.420 7   5865971.73249  22366358.1774
  22743812.974    -6061679.663 6  -4653473.12549  22743813.6654
 95  2 19 16 23 30.0010000  0  5 14 15 22 25 29
  21041228.310    -7093327.862 7  -5450740.91049  21041229.5404
  22776051.888     8536929.956 6   6621211.77649  22776054.0444
  22414743.106    -8946213.846 6  -6860249.28449  22414745.7084
  22383425.614     7658656.753 7   5935861.04249  22383426.0014
  22736442.622    -6100411.215 6  -4683653.54249  22736443.2904
 95  2 19 16 24  0.0010000  0  5 14 15 22 25 29
  21034772.513    -7127253.761 7  -5477176.68449  21034774.0014
  22795351.278     8638349.921 6   6700240.28749  22795353.7864
  22404850.036    -8998202.797 6  -6900760.12249  22404852.0754
  22400565.864     7748727.722 7   6006046.17149  22400566.2284
  22729110.927    -6138939.322 6  -4713675.44149  22729112.0874
 95  2 19 16 24 30.0010000  0  5 14 15 22 25 29
  21028412.927    -7160674.298 7  -5503218.67249  21028414.4504
  22814724.880     8740158.238 6   6779571.40349  22814727.7394
  22395050.263    -9049700.556 6  -6940888.22149  22395052.2204
  22417775.927     7839170.515 7   6076521.04449  22417776.3844
  22721818.138    -6177261.272 6  -4743536.67649  22721819.2044
 95  2 19 16 25  0.0010000  0  5 14 15 22 25 29
  21022152.161    -7193574.261 7  -5528855.00749  21022153.7784
  22834173.302     8842360.870 6   6859209.77649  22834176.3964
  22385348.255    -9100687.166 7  -6980618.02549  22385350.2124
  22435058.138     7929986.756 7   6147286.90449  22435058.8764
  22714565.896    -6215373.442 6  -4773234.46549  22714566.4704
 95  2 19 16 25 30.0010000  0  5 14 15 22 25 29
  21015996.896    -7225921.997 7  -5554061.03849  21015998.0794
  22853700.646     8944975.399 6   6939169.09949  22853703.4934
  22375748.208    -9151134.918 7  -7019927.93449  22375750.4584
  22452411.466     8021181.552 7   6218347.74749  22452412.0634
  22707357.325    -6253255.014 6  -4802752.56249  22707358.0524
 95  2 19 16 26  0.0010000  0  5 14 15 22 25 29
  21009943.052    -7257734.276 8  -5578849.83549  21009944.0364
  22873301.044     9047978.160 6   7019430.94249  22873303.7394
  22366247.685    -9201060.931 7  -7058831.29249  22366250.2634
  22469831.106     8112718.965 7   6289675.56449  22469831.7044
  22700189.138    -6290924.694 6  -4832105.55049  22700190.2864
 95  2 19 16 26 30.0010000  0  5 14 15 22 25 29
  21003992.630    -7289004.626 8  -5603216.34549  21003993.6734
  22892977.685     9151379.281 6   7100003.20649  22892980.4624
  22356849.153    -9250450.891 7  -7097316.94649  22356851.4624
  22487317.013     8204609.861 7   6361278.81749  22487318.0094
  22693064.271    -6328365.566 6  -4861280.24149  22693065.3374
 95  2 19 16 27  0.0010000  0  5 14 15 22 25 29
  20998140.880    -7319756.740 8  -5627179.04149  20998142.0054
  22912726.481     9255160.817 6   7180871.89249  22912729.3884
  22347549.528    -9299319.812 7  -7135396.60049  22347551.8724
  22504867.661     8296839.285 7   6433145.86449  22504868.6344
  22685978.771    -6365601.687 6  -4890295.39349  22685979.2744
 95  2 19 16 27 30.0010000  0  5 14 15 22 25 29
  20992387.200    -7349992.130 8  -5650739.09449  20992388.4664
  22932546.567     9359315.926 6   7262031.66449  22932549.8604
  22338349.208    -9347666.860 7  -7173069.60049  22338351.6464
  22522482.411     8389403.655 7   6505273.89749  22522483.2204
  22678931.849    -6402630.981 6  -4919149.37649  22678932.8214
 95  2 19 16 28  0.0010000  0  5 14 15 22 25 29
  20986734.521    -7379696.287 7  -5673885.19549  20986736.0444
  22952441.349     9463859.807 6   7343494.38249  22952444.0794
  22329255.067    -9395457.071 7  -7210308.71249  22329257.5054
  22540165.599     8482330.411 7   6577684.30349  22540166.2434
  22671927.278    -6439440.558 6  -4947832.14649  22671928.1924
 95  2 19 16 28 30.0010000  0  5 14 15 22 25 29
  20981181.325    -7408877.903 7  -5696624.11749  20981182.8024
  22972407.333     9568780.205 6   7425250.48649  22972409.8414
  22320267.419    -9442687.048 7  -7247111.26849  22320269.6344
  22557918.302     8575620.229 7   6650377.62849  22557919.1104
  22664963.224    -6476037.481 6  -4976349.22649  22664964.3024
 95  2 19 16 29  0.0010000  0  5 14 15 22 25 29
  20975722.396    -7437563.752 7  -5718976.72849  20975723.4974
  22992437.036     9674039.169 6   7507270.41249  22992439.1224
  22311379.786    -9489393.011 7  -7283505.50949  22311382.1534
  22575732.442     8669233.081 7   6723322.65349  22575733.3804
  22658033.552    -6512451.554 6  -5004723.82149  22658034.8414
 95  2 19 16 29 30.0010000  0  5 14 15 22 25 29
  20970365.052    -7465717.339 7  -5740914.59849  20970366.2944
  23012534.489     9779652.398 6   7589566.38249  23012537.0324
  22302596.325    -9535549.405 7  -7319471.51749  22302598.7284
  22593610.599     8763184.542 7   6796531.53649  22593611.5714
  22651143.231    -6548661.836 6  -5032939.62349  22651144.2044
 95  2 19 16 30  0.0010000  0  5 14 15 22 25 29
  20965113.583    -7493313.289 7  -5762417.94149  20965114.9784
  23032702.356     9885637.139 6   7672151.85049  23032705.4154
  22293918.606    -9581151.053 7  -7355005.26049  22293921.0214
  22611556.153     8857488.854 7   6870015.36249  22611557.2314
  22644291.724    -6584662.962 6  -5060992.44549  22644293.0364
 95  2 19 16 30 30.0010000  0  5 14 15 22 25 29
  20959970.411    -7520341.512 7  -5783478.89549  20959971.8064
  23052942.497     9991994.459 6   7755027.62449  23052945.4974
  22285343.208    -9626216.549 7  -7390121.21049  22285345.7044
  22629565.317     8952129.450 7   6943761.23049  22629566.0444
  22637482.606    -6620449.605 7  -5088878.13149  22637483.8374
 95  2 19 16 31  0.0010000  0  5 14 15 22 25 29
  20954935.653    -7546799.781 7  -5804095.72849  20954936.9314
  23073251.685    10098722.197 6   7838192.04249  23073254.1344
  22276867.458    -9670755.841 7  -7424827.14149  22276869.9424
  22647637.997     9047100.049 7   7017764.24449  22647638.7594
  22630712.145    -6656026.812 7  -5116600.61949  22630713.2354
 95  2 19 16 31 30.0010000  0  6 18 14 15 22 25 29
  25030460.856      -10378.94313
  20950005.841    -7572705.562 7  -5824282.05349  20950007.1304
  23093627.224    10205800.026 6   7921629.25849  23093630.2354
  22268490.419    -9714777.636 7  -7459129.82649  22268492.8804
  22665772.403     9142396.292 7   7092021.00449  22665773.1304
  22623977.052    -6691419.850 7  -5144179.60049  22623978.0604
 95  2 19 16 32  0.0010000  0  6 18 14 15 22 25 29
  25018625.349      -72576.800 3
  20945185.349    -7598037.998 7  -5844021.60949  20945186.8724
  23114075.731    10313257.504 6   8005362.30849  23114078.1924
  22260218.661    -9758246.807 7  -7493001.89449  22260220.7474
  22683975.333     9238053.171 7   7166558.77949  22683976.0604
  22617286.724    -6726580.127 7  -5171577.21449  22617287.5914
 95  2 19 16 32 30.0010000  0  6 18 14 15 22 25 29
  25006814.716     -134644.928 4    -29006.13659  25006816.5444
  20940470.833    -7622813.769 7  -5863327.40149  20940471.9584
  23134595.919    10421087.283 6   8089385.47149  23134598.4384
  22252055.278    -9801145.137 7  -7526429.15549  22252057.0484
  22702249.427     9334084.590 7   7241388.40949  22702250.4354
  22610642.192    -6761495.566 7  -5198784.04449  22610642.6854
 95  2 19 16 33  0.0010000  0  6 18 14 15 22 25 29
  24995027.763     -196580.978 3    -77268.03147  24995030.2244
  20935860.974    -7647037.259 7  -5882202.84549  20935862.0284
  23155184.528    10529282.239 6   8173693.18449  23155187.3414
  22244005.224    -9843448.756 7  -7559393.00749  22244007.2284
  22720598.005     9430506.165 7   7316522.05249  22720598.8604
  22604044.747    -6796164.779 7  -5225799.00849  22604045.5564
 95  2 19 16 33 30.0010000  0  6 18 14 15 22 25 29
  24983271.583     -258347.918 3   -125398.06047  24983275.3454
  20931362.614    -7670678.500 7  -5900624.59549  20931363.6464
  23175845.005    10637854.001 6   8258294.50149  23175847.8884
  22236075.177    -9885122.620 7  -7591866.13249  22236077.4624
  22739020.856     9527318.765 7   7391960.39149  22739021.8644
  22597497.419    -6830570.637 7  -5252608.76149  22597498.5324
 95  2 19 16 34  0.0010000  0  6 18 14 15 22 25 29
  24971556.286     -319931.849 3   -173385.48947  24971561.4894
  20926975.896    -7693729.809 7  -5918586.65849  20926977.3024
  23196576.685    10746800.444 6   8343187.77449  23196579.8134
  22228264.356    -9926166.427 7  -7623848.30249  22228266.7354
  22757514.005     9624501.823 7   7467687.38949  22757515.2244
  22591000.411    -6864713.902 7  -5279213.88549  22591001.3604
 95  2 19 16 34 30.0010000  0  6 18 14 15 22 25 29
  24959865.255     -381351.459 2   -221244.91246  24959870.2824
  20922701.708    -7716191.059 7  -5936088.93549  20922702.9744
  23217376.669    10856103.601 6   8428359.00849  23217379.6464
  22220572.567    -9966588.246 7  -7655345.80949  22220574.8294
  22776072.630     9722026.782 7   7543680.81449  22776073.7904
  22584547.036    -6898625.906 7  -5305638.82249  22584547.8214
 95  2 19 16 35  0.0010000  0  6 18 14 15 22 25 29
  24948216.903     -442577.809 3   -268953.70847  24948219.4704
  20918548.333    -7738018.358 7  -5953097.22749  20918549.2124
  23238247.731    10965778.929 6   8513820.25749  23238250.4504
  22212999.677   -10006381.902 7  -7686353.83249  22213002.1034
  22794692.310     9819875.490 7   7619926.51149  22794693.7744
  22578137.864    -6932305.751 7  -5331882.85849  22578138.9314
 95  2 19 16 35 30.0010000  0  6 18 14 15 22 25 29
  24936598.075     -503621.018 2   -316519.81949  24936601.7904
  20914516.106    -7759206.827 7  -5969607.73049  20914517.0914
  23259187.911    11075821.418 6   8599567.59949  23259191.2864
  22205542.310   -10045568.825 7  -7716889.08549  22205544.9464
  22813371.294     9918031.645 7   7696411.78349  22813372.2554
  22571769.231    -6965775.092 7  -5357962.86049  22571770.3804
 95  2 19 16 36  0.0010000  0  6 18 14 15 22 25 29
  24925013.403                      -10134.19914
  20910600.122    -7779784.001 7  -5985641.90149  20910601.5054
  23280195.192    11186216.699 6   8685589.84149  23280198.1924
  22198195.372   -10084178.395 7  -7746974.44149  22198198.1964
  22832108.505    10016495.415 7   7773136.74449  22832109.5954
  22565438.810    -6999039.970 7  -5383883.53649  22565439.8644
 95  2 19 16 36 30.0010000  0  6 18 14 15 22 25 29
  24913464.067                      -70833.306 4
  20906804.981    -7799729.250 7  -6001183.65749  20906806.6224
  23301274.583    11296989.254 6   8771906.06349  23301277.7474
  22190965.692   -10122172.020 7  -7776579.84049  22190968.2704
  22850910.255    10115299.195 7   7850126.65749  22850911.4274
  22559153.911    -7032067.326 7  -5409619.13449  22559154.8724
 95  2 19 16 37  0.0010000  0  6 18 14 15 22 25 29
  24901949.427     -131330.889 3    -12554.52159  24901952.2864
  20903125.630    -7819064.364 7  -6016249.98549  20903127.3064
  23322424.122    11408129.929 6   8858509.13749  23322427.2634
  22183854.161   -10159543.730 7  -7805700.62749  22183856.5994
  22869778.388    10214451.321 7   7927388.00949  22869779.5364
  22552914.958    -7064854.545 7  -5435167.60749  22552915.7674
 95  2 19 16 37 30.0010000  0  6 18 14 15 22 25 29
  24890473.317     -191655.714 5    -59560.92248  24890474.5484
  20899554.989    -7837827.788 7  -6030870.84649  20899556.5604
  23343638.083    11519611.398 6   8945377.76149  23343640.8604
  22176860.567   -10196295.220 7  -7834338.12249  22176862.9584
  22888712.411    10313951.868 7   8004920.85949  22888713.4544
  22546722.521    -7097396.067 7  -5460524.63349  22546723.1884
 95  2 19 16 38  0.0010000  0  6 18 14 15 22 25 29
  24879024.278     -251799.903 3   -106426.51748  24879027.0564
  20896092.638    -7856023.091 7  -6045049.00649  20896094.1614
  23364917.271    11631433.807 6   9032512.03849  23364920.4704
  22169990.872   -10232395.231 7  -7862467.97449  22169993.0754
  22907714.560    10413807.087 7   8082730.07149  22907715.7434
  22540582.153    -7129662.665 7  -5485667.43349  22540583.1264
 95  2 19 16 38 30.0010000  0  6 18 14 15 22 25 29
  24867615.786     -311759.957 3   -153148.63748  24867620.1464
  20892742.630    -7873627.016 7  -6058766.35649  20892743.8604
  23386262.896    11743604.947 6   9119918.06349  23386266.0484
  22163252.747   -10267804.640 7  -7890059.69149  22163255.0444
  22926786.067    10514029.751 7   8160825.60349  22926787.5794
  22534493.364    -7161658.507 7  -5510599.24749  22534494.6424
 95  2 19 16 39  0.0010000  0  6 18 14 15 22 25 29
  24856238.106     -371549.661 3   -199737.99049  24856241.2474
  20889507.724    -7890626.207 7  -6072012.48949  20889509.0014
  23407673.388    11856118.572 6   9207590.95749  23407676.4234
  22156642.310   -10302540.031 7  -7917126.19149  22156644.6884
  22945927.942    10614621.053 7   8239208.39949  22945929.0564
  22528456.786    -7193382.553 7  -5535319.28149  22528457.8884
 95  2 19 16 39 30.0010000  0  6 18 14 15 22 25 29
  24844885.591     -431208.953 4   -246225.68248  24844888.2744
  20886386.966    -7907026.413 7  -6084791.88049  20886388.3494
  23429146.380    11968957.147 6   9295517.05249  23429149.4154
  22150153.427   -10336641.547 7  -7943698.76549  22150155.9934
  22965135.911    10715557.532 7   8317860.14149  22965137.0604
  22522468.302    -7224853.076 7  -5559841.77049  22522469.3334
 95  2 19 16 40  0.0010000  0  6 18 14 15 22 25 29
  24833562.544     -490719.397 5   -292597.44849  24833566.0364
  20883383.333    -7922811.863 7  -6097092.24249  20883384.7634
  23450682.247    12082131.411 6   9383704.75549  23450685.1774
  22143784.005   -10370113.932 7  -7969781.11049  22143786.3604
  22984411.114    10816849.243 7   8396788.70849  22984412.1574
  22516526.974    -7256074.464 7  -5584170.11649  22516527.9464
 95  2 19 16 40 30.0010000  0  6 18 14 15 22 25 29
  24822264.458     -550082.765 5   -338854.59749  24822268.0564
  20880496.927    -7937980.135 7  -6108911.68349  20880498.3334
  23472280.130    12195629.059 6   9472144.41849  23472283.6694
  22137529.356   -10402980.659 7  -7995391.51549  22137531.6424
  23003749.708    10918477.774 7   8475979.71849  23003751.1614
  22510629.497    -7287065.759 7  -5608319.16949  22510630.7044
 95  2 19 16 41  0.0010000  0  6 18 14 15 22 25 29
  24811001.630     -609277.575 5   -384980.41348  24811004.8414
  20877727.505    -7952534.504 7  -6120252.76749  20877728.4784
  23493940.185    12309450.836 6   9560836.65049  23493943.5134
  22131386.614   -10435261.831 7  -8020545.64149  22131388.7714
  23023151.091    11020428.913 7   8555422.11149  23023152.1694
  22504779.591    -7317806.974 7  -5632273.35849  22504780.6924
 95  2 19 16 41 30.0010000  0  6 18 14 15 22 25 29
  24799764.771     -668322.360 3   -430989.33048  24799768.5214
  20875071.169    -7966491.891 7  -6131128.66249  20875072.1884
  23515657.567    12423572.899 6   9649762.87349  23515660.8844
  22125355.021   -10466958.703 7  -8045244.47049  22125356.6144
  23042607.841    11122674.576 7   8635094.00249  23042608.9664
  22498972.505    -7348323.004 7  -5656052.07849  22498973.6064
 95  2 19 16 42  0.0010000  0  6 18 14 15 22 25 29
  24788559.614     -727194.737 3   -476863.87746  24788562.3684
  20872532.935    -7979830.988 7  -6141522.77549  20872533.9894
  23537431.466    12537998.158 6   9738925.34949  23537435.0174
  22119441.349   -10498035.288 7  -8069459.96449  22119442.8964
  23062120.489    11225212.553 7   8714993.67049  23062121.3804
  22493208.630    -7378612.693 7  -5679654.42849  22493209.6034
 95  2 19 16 42 30.0010000  0  6 18 14 15 22 25 29
  24777387.739     -785914.638 3   -522619.59747  24777388.6424
  20870111.794    -7992554.198 8  -6151436.98149  20870112.8024
  23559258.419    12652702.679 6   9828305.42549  23559261.7824
  22113642.341   -10528508.330 7  -8093205.16049  22113644.2984
  23081681.325    11328006.832 7   8795093.06049  23081682.2284
  22487484.224    -7408695.221 7  -5703095.36849  22487485.0324
 95  2 19 16 43  0.0010000  0  6 18 14 15 22 25 29
  24766238.708     -844489.074 3   -568262.01348  24766239.7864
  20867809.052    -8004655.105 7  -6160866.27049  20867810.6224
  23581139.474    12767688.521 6   9917904.73549  23581143.1064
  22107959.013   -10558373.025 7  -8116476.33049  22107961.2044
  23101293.021    11431066.367 7   8875399.13549  23101293.9814
  22481800.528    -7438565.252 7  -5726370.70849  22481801.1384
 95  2 19 16 43 30.0010000  0  6 18 14 15 22 25 29
  24755124.036     -902911.897 4   -613786.27648  24755126.6384
  20865628.169    -8016114.549 7  -6169795.71249  20865629.6924
  23603077.224    12882968.046 6  10007732.88649  23603080.7284
  22102399.075   -10587592.537 7  -8139244.76349  22102401.4074
  23120959.130    11534416.181 7   8955931.41349  23120960.3604
  22476158.708    -7468210.586 7  -5749470.96549  22476159.3294
 95  2 19 16 44  0.0010000  0  6 18 14 15 22 25 29
  24744035.278     -961181.688 5   -659191.29149  24744037.8564
  20863564.802    -8026960.109 7  -6178246.81049  20863566.1264
  23625067.622    12998529.580 6  10097780.76849  23625070.9974
  22096958.513   -10616182.797 7  -8161522.86849  22096960.8454
  23140680.888    11638051.615 7   9036686.24649  23140681.9664
  22470559.794    -7497634.507 7  -5772398.68949  22470560.6964
 95  2 19 16 44 30.0010000  0  6 18 14 15 22 25 29
  24732973.817    -1019309.821 5   -704485.91849  24732976.5484
  20861613.153    -8037214.937 7  -6186237.59449  20861614.6304
  23647109.935    13114360.449 6  10188038.51249  23647113.6734
  22091633.763   -10644162.076 7  -8183324.88849  22091636.0834
  23160456.427    11741971.088 7   9117662.40349  23160457.4354
  22465002.333    -7526837.867 7  -5795154.54849  22465003.2124
 95  2 19 16 45  0.0010000  0  6 18 14 15 22 25 29
  24721939.864    -1077299.225 5   -749672.45949  24721943.2744
  20859768.919    -8046906.299 7  -6193789.31149  20859770.6184
  23669200.599    13230448.433 6  10278496.60749  23669203.8454
  22086429.544   -10671513.111 7  -8204637.37149  22086431.8064
  23180288.552    11846190.027 7   9198871.90949  23180290.3684
  22459486.606    -7555824.945 7  -5817741.87149  22459487.5564
 95  2 19 16 45 30.0010000  0  6 18 14 15 22 25 29
  24710932.911    -1135140.681 4   -794743.66049  24710936.1104
  20858032.356    -8056033.109 7  -6200901.11649  20858033.9744
  23691341.364    13346798.427 6  10369158.89949  23691344.2824
  22081347.435   -10698218.277 7  -8225446.58549  22081349.6144
  23200179.489    11950718.334 7   9280322.49149  23200180.9074
  22454012.489    -7584590.224 7  -5840156.36649  22454013.6734
 95  2 19 16 46  0.0010000  0  6 18 14 15 22 25 29
  24699954.052    -1192829.428 3   -839695.85648  24699958.0954
  20856406.567    -8064575.587 7  -6207557.60049  20856408.2784
  23713532.114    13463412.726 6  10460027.14849  23713536.0284
  22076388.575   -10724278.443 7  -8245753.20149  22076390.5324
  23220128.153    12055548.900 7   9362008.58949  23220129.7124
  22448580.942    -7613134.976 7  -5862399.02049  22448581.7514
 95  2 19 16 46 30.0010000  0  6 18 14 15 22 25 29
  24688998.450    -1250396.671 3   -884553.45847  24689002.5054
  20854893.075    -8072529.377 7  -6213755.36749  20854894.8104
  23735769.700    13580273.830 6  10551087.64949  23735773.6264
  22071549.927   -10749705.701 7  -8265566.64949  22071551.8134
  23240128.692    12160651.230 7   9443906.46249  23240130.3924
  22443186.520    -7641482.064 7  -5884487.66349  22443187.4464
 95  2 19 16 47  0.0010000  0  6 18 14 15 22 25 29
  24678065.591    -1307848.675 3   -929321.15547  24678069.7634
  20853496.114    -8079870.729 7  -6219475.91349  20853497.8134
  23758055.755    13697383.935 6  10642342.20049  23758058.9194
  22066831.247   -10774503.526 7  -8284889.62949  22066833.0874
  23260179.380    12266018.349 7   9526010.66049  23260180.8804
  22437830.224    -7669628.939 7  -5906420.28149  22437831.3494
 95  2 19 16 47 30.0010000  0  6 18 14 15 22 25 29
  24667151.966    -1365208.006 4   -974016.74547  24667155.0364
  20852217.067    -8086591.997 7  -6224713.26949  20852218.6734
  23780386.364    13814728.812 6  10733779.71049  23780389.0134
  22062225.833   -10798703.435 7  -8303746.70549  22062227.9194
  23280273.083    12371609.467 7   9608289.40449  23280274.3254
  22432511.325    -7697580.267 7  -5928200.53249  22432511.9114
 95  2 19 16 48  0.0010000  0  6 18 14 15 22 25 29
  24656261.653    -1422435.647 4  -1018609.76348  24656264.4894
  20851063.591    -8092654.168 7  -6229437.04249  20851065.0914
  23802764.231    13932327.534 6  10825415.03549  23802766.8104
  22057739.677   -10822278.659 7  -8322117.01249  22057741.8924
  23300411.896    12477442.029 7   9690756.29949  23300413.4194
  22427237.263    -7725298.127 7  -5949798.85149  22427237.9894
 95  2 19 16 48 30.0010000  0  6 18 14 15 22 25 29
  24645395.896    -1479542.967 5  -1063108.94049  24645398.8374
  20850028.677    -8098091.422 7  -6233673.86849  20850030.1304
  23825185.560    14050154.147 5  10917227.90449  23825189.4034
  22053368.661   -10845247.603 7  -8340014.89649  22053370.8174
  23320595.966    12583508.849 7   9773405.71749  23320597.4074
  22422004.755    -7752793.783 7  -5971224.03149  22422005.2124
 95  2 19 16 49  0.0010000  0  6 18 14 15 22 25 29
  24634553.692    -1536514.791 5  -1107502.53549  24634556.6464
  20849109.325    -8102922.870 7  -6237438.64549  20849110.8134
  23847649.271    14168199.642 5  11009211.31749  23847653.6064
  22049115.099   -10867601.854 7  -8357433.80549  22049117.2314
  23340826.614    12689824.326 7   9856248.90549  23340828.0204
  22416814.286    -7780069.200 7  -5992477.60849  22416814.4974
 95  2 19 16 49 30.0010000  0  6 18 14 15 22 25 29
  24623741.380    -1593328.900 4  -1151773.23049  24623743.7004
  20848304.450    -8107153.992 7  -6240735.62849  20848306.1494
  23870156.091    14286473.144 6  11101372.41849  23870159.2554
  22044984.333   -10889308.707 7  -8374348.23949  22044986.3024
  23361108.130    12796403.471 6   9939297.54249  23361109.6424
  22411667.263    -7807114.940 7  -6013552.19849  22411668.3064
 95  2 19 16 50  0.0010000  0  6 18 14 15 22 25 29
  24612962.325    -1649979.688 5  -1195916.65249  24612964.9154
  20847610.646    -8110798.715 7  -6243575.67749  20847612.2864
  23892705.802    14404971.607 6  11193708.83149  23892709.1424
  22040977.450   -10910365.842 7  -8390756.40149  22040979.4074
  23381441.013    12903252.720 6  10022556.63849  23381443.1464
  22406560.927    -7833951.034 7  -6034463.43349  22406561.8174
 95  2 19 16 50 30.0010000  0  6 18 14 15 22 25 29
  24602203.614    -1706509.820 4  -1239966.08748  24602207.4464
  20847020.700    -8113898.122 7  -6245990.79649  20847022.7864
  23915292.271    14523665.512 5  11286197.51249  23915295.2714
  22037088.560   -10930802.161 7  -8406680.81149  22037090.5994
  23401820.599    13010346.128 6  10106006.00749  23401822.0994
  22401484.989    -7860624.333 7  -6055247.81449  22401486.0564
 95  2 19 16 51  0.0010000  0  6 18 14 15 22 25 29
  24591473.638    -1762897.278 4  -1283904.30748  24591476.1924
  20846544.356    -8116401.489 7  -6247941.47349  20846546.0914
  23937922.841    14642591.149 5  11378866.76549  23937925.8644
  22033323.981   -10950584.009 7  -8422095.23949  22033326.2554
  23422248.708    13117699.535 6  10189657.95749  23422250.4194
  22396445.825    -7887105.020 7  -6075882.11149  22396446.7164
 95  2 19 16 51 30.0010000  0  6 18 14 15 22 25 29
  24580763.271    -1819189.101 5  -1327768.02149  24580766.5754
  20846178.372    -8118326.558 7  -6249441.52949  20846180.1884
  23960591.708    14761713.995 5  11471689.66949  23960595.0484
  22029676.622   -10969750.329 7  -8437030.02849  22029679.0954
  23442718.942    13225268.367 6  10273477.77449  23442720.7944
  22391437.997    -7913420.401 7  -6096387.60249  22391439.0404
 95  2 19 16 52  0.0010000  0  6 18 14 15 22 25 29
  24570067.333    -1875384.670 5  -1371556.69949  24570071.4464
  20845926.169    -8119651.877 7  -6250474.25249  20845927.7514
  23983298.013    14881037.398 5  11564668.85649  23983301.0834
  22026147.771   -10988295.689 7  -8451480.95449  22026150.1034
  23463230.903    13333060.237 6  10357471.38049  23463232.7084
  22386463.771    -7939560.069 7  -6116756.16649  22386465.0244
 95  2 19 16 52 30.0010000  0  6 18 14 15 22 25 29
  24559390.575    -1931490.686 5  -1415275.70149  24559395.1694
  20845790.505    -8120363.476 7  -6251028.75449  20845792.1814
  24006042.083    15000558.888 5  11657802.39649  24006045.8804
  22022739.989   -11006204.851 7  -8465436.14149  22022742.1224
  23483785.169    13441072.231 6  10441636.50949  23483787.1964
  22381525.356    -7965510.064 7  -6136976.93649  22381526.5524
 95  2 19 16 53  0.0020000  0  6 18 14 15 22 25 29
  24548731.252    -1987506.290 5  -1458924.21648  24548734.8964
  20845771.955    -8120462.305 7  -6251105.77749  20845773.5844
  24028823.010    15120272.898 5  11751085.94149  24028826.2444
  22019452.486   -11023479.121 7  -8478896.60849  22019454.9244
  23504378.822    13549294.170 6  10525965.22449  23504381.0024
  22376624.463    -7991265.336 7  -6157045.98949  22376625.5184
 95  2 19 16 53 30.0020000  0  5 14 15 22 25 29
  20845871.205    -8119940.156 7  -6250698.91549  20845872.8934
  24051641.939    15240184.998 6  11844523.84749  24051645.4674
  22016292.080   -11040086.711 7  -8491837.57449  22016294.6354
  23525017.674    13657749.931 6  10610476.14549  23525019.4084
  22371764.728    -8016805.184 7  -6176947.16049  22371765.7134
 95  2 19 16 54  0.0020000  0  6 18 14 15 22 25 29
  24527484.502      -53907.187 5
  20846085.650    -8118814.004 7  -6249821.40249  20846087.3384
  24074493.885    15360273.905 6  11938099.53849  24074497.5414
  22013254.166   -11056052.182 7  -8504278.19149  22013256.4634
  23545696.596    13766418.586 6  10695152.96649  23545698.3074
  22366940.479    -8042155.986 7  -6196701.03249  22366941.2644
 95  2 19 16 54 30.0020000  0  6 18 14 15 22 25 29
  24516896.033     -109546.792 5    -27444.53258  24516900.1354
  20846414.455    -8117084.620 7  -6248473.83949  20846416.3654
  24097378.768    15480538.516 5  12031812.13149  24097382.7404
  22010338.236   -11071376.686 7  -8516219.34749  22010340.5574
  23566416.346    13875301.515 6  10779996.74649  23566417.9864
  22362153.322    -8067312.544 7  -6216303.53349  22362154.3184
 95  2 19 16 55  0.0020000  0  6 18 14 15 22 25 29
  24506340.791     -165018.674 5    -70669.38049  24506343.2524
  20846865.658    -8114714.306 7  -6246626.84749  20846867.5804
  24120303.486    15601007.437 5  12125683.90249  24120308.0454
  22007549.057   -11086032.637 7  -8527639.55349  22007551.2834
  23587182.760    13984429.516 6  10865031.49749  23587184.5884
  22357408.838    -8092245.333 7  -6235731.68049  22357409.7054
 95  2 19 16 55 30.0020000  0  6 18 14 15 22 25 29
  24495810.494     -220351.353 5   -113785.68349  24495813.6354
  20847437.041    -8111711.923 7  -6244287.33849  20847438.8224
  24143263.955    15721660.230 6  12219699.00949  24143266.9674
  22004882.768   -11100043.092 7  -8538556.77049  22004884.9004
  23607993.111    14093789.234 6  10950246.80649  23607994.8694
  22352703.900    -8116970.719 7  -6254998.21049  22352705.0494
 95  2 19 16 56  0.0020000  0  6 18 14 15 22 25 29
  24485301.346     -275569.954 5   -156813.15449  24485305.0494
  20848127.143    -8108085.028 7  -6241461.19149  20848129.0064
  24166255.947    15842483.840 6  12313847.22049  24166259.5804
  22002336.627   -11113423.430 7  -8548982.99649  22002338.8894
  23628842.963    14203355.406 6  11035622.99349  23628844.6274
  22348037.221    -8141492.358 7  -6274105.98049  22348038.1704
 95  2 19 16 56 30.0020000  0  6 18 14 15 22 25 29
  24474810.643     -330711.951 5   -199780.94548  24474812.7404
  20848931.291    -8103859.155 7  -6238168.30849  20848933.3074
  24189276.455    15963459.070 5  12408113.54249  24189280.5104
  21999908.057   -11126185.560 7  -8558927.49749  21999910.3654
  23649727.924    14313104.833 6  11121141.95749  23649729.4244
  22343407.791    -8165821.379 7  -6293063.65449  22343408.9394
 95  2 19 16 57  0.0020000  0  6 18 14 15 22 25 29
  24464334.182     -385760.197 5   -242675.63349  24464337.8504
  20849851.588    -8099023.027 7  -6234399.90549  20849853.5574
  24212328.447    16084598.091 5  12502507.48249  24212333.3114
  21997600.775   -11138310.155 7  -8568375.21849  21997603.0964
  23670648.025    14423040.942 6  11206806.40349  23670649.3264
  22338817.635    -8189943.551 7  -6311860.14449  22338818.4674
 95  2 19 16 57 30.0020000  0  6 18 14 15 22 25 29
  24453876.564     -440719.670 5   -285501.15949  24453879.1314
  20850882.955    -8093604.088 7  -6230177.37049  20850884.6664
  24235409.408    16205886.332 5  12597017.69649  24235413.2644
  21995413.408   -11149807.640 7  -8577334.28649  21995415.4594
  23691602.674    14533158.754 6  11292612.42549  23691604.0684
  22334264.486    -8213869.106 7  -6330503.42849  22334265.3184
 95  2 19 16 58  0.0020000  0  6 18 14 15 22 25 29
  24443438.619     -495571.137 5   -328242.54749  24443440.1784
  20852025.205    -8087601.218 7  -6225499.81949  20852027.1744
  24258517.463    16327320.283 5  12691641.47649  24258520.5924
  21993345.979   -11160670.802 7  -8585799.08549  21993348.1584
  23712591.080    14643452.708 6  11378555.70449  23712592.5334
  22329745.955    -8237614.745 7  -6349006.51949  22329746.4474
 95  2 19 16 58 30.0020000  0  6 18 14 15 22 25 29
  24433026.760     -550281.095 5   -370873.63849  24433029.1744
  20853282.244    -8080994.964 7  -6220352.09749  20853284.1194
  24281654.189    16448904.730 5  12786382.54549  24281658.3144
  21991403.541   -11170877.016 7  -8593751.97149  21991405.8854
  23733615.393    14753932.872 6  11464644.07149  23733616.9394
  22325261.721    -8261180.083 7  -6367369.12049  22325262.6354
 95  2 19 16 59  0.0020000  0  6 18 14 15 22 25 29
  24422646.416     -604836.172 5   -413384.05849  24422649.9794
  20854654.502    -8073783.921 8  -6214733.11649  20854656.3544
  24304817.416    16570628.832 5  12881232.39949  24304821.9284
  21989585.924   -11180428.580 7  -8601194.74349  21989588.5724
  23754674.783    14864604.870 6  11550881.93649  23754676.6354
  22320808.283    -8284582.114 7  -6385604.46149  22320808.9634
 95  2 19 16 59 30.0020000  0  6 18 14 15 22 25 29
  24412295.361     -659223.840 5   -455764.01149  24412300.0964
  20856148.596    -8065934.391 8  -6208616.60949  20856150.2254
  24328009.908    16692507.240 5  12976202.48249  24328014.3614
  21987895.260   -11189312.146 7  -8608116.99949  21987897.8614
  23775775.791    14975490.176 6  11637286.01749  23775776.9754
  22316388.838    -8307807.173 7  -6403701.90849  22316389.6934
 95  2 19 17  0  0.0020000  0  6 18 14 15 22 25 29
  24401971.830     -713476.622 5   -498038.85549  24401976.0844
  20857761.275    -8057458.101 8  -6202011.72149  20857762.8934
  24351228.057    16814513.808 5  13071272.43149  24351232.1584
  21986327.893   -11197548.543 7  -8614534.97349  21986330.5534
  23796910.244    15086552.049 6  11723827.66949  23796911.9904
  22312000.580    -8330868.372 7  -6421671.66649  22312001.5644
 95  2 19 17  0 30.0020000  0  6 18 14 15 22 25 29
  24391667.627     -767627.020 5   -540233.92849  24391670.2404
  20859491.471    -8048365.683 8  -6194926.72849  20859493.4394
  24374467.588    16936639.961 5  13166435.59149  24374471.6194
  21984882.299   -11205144.820 7  -8620454.14549  21984885.1114
  23818077.752    15197789.771 6  11810506.36149  23818079.0064
  22307646.643    -8353746.705 7  -6439498.93149  22307647.4284
 95  2 19 17  1  0.0020000  0  6 18 14 15 22 25 29
  24381381.744     -821675.745 5   -582349.86049  24381383.1974
  20861342.768    -8038638.265 8  -6187346.93549  20861344.4904
  24397733.197    17058910.430 5  13261711.20149  24397737.6504
  21983559.518   -11212095.712 7  -8625870.42349  21983562.0844
  23839286.385    15309241.407 6  11897351.72149  23839288.2014
  22303334.111    -8376411.419 7  -6457159.74049  22303334.9674
 95  2 19 17  1 30.0020000  0  6 18 14 15 22 25 29
  24371110.236     -875655.190 5   -624411.75549  24371112.3114
  20863311.307    -8028292.649 8  -6179285.42949  20863312.9714
  24421026.627    17181309.451 5  13357087.01649  24421031.7014
  21982358.885   -11218408.175 7  -8630789.21949  21982361.1114
  23860529.783    15420873.502 6  11984337.70549  23860530.7914
  22299061.244    -8398863.750 7  -6474655.05849  22299062.0184
 95  2 19 17  2  0.0020000  0  6 18 14 15 22 25 29
  24360857.064     -929538.896 5   -666399.07549  24360860.2874
  20865402.807    -8017303.097 8  -6170722.15449  20865404.4594
  24444347.525    17303861.808 5  13452582.26249  24444352.1784
  21981288.408   -11224033.008 7  -8635172.20049  21981290.5414
  23881812.322    15532714.136 6  12071486.19949  23881813.8814
  22294836.596    -8421064.517 7  -6491954.35049  22294837.6624
 95  2 19 17  2 30.0020000  0  6 18 14 15 22 25 29
  24350616.307     -983351.650 5   -708331.01849  24350620.7714
  20867611.229    -8005698.296 8  -6161679.46649  20867612.8814
  24467690.596    17426531.268 5  13548168.78249  24467695.0024
  21980342.346   -11229003.476 7  -8639045.28849  21980344.6894
  23903129.713    15644738.090 6  12158777.52949  23903131.1784
  22290651.627    -8443058.115 7  -6509092.21349  22290652.5294
 95  2 19 17  3  0.0020000  0  6 18 14 15 22 25 29
  24340397.408    -1037049.989 5   -750173.88749  24340400.9364
  20869941.416    -7993452.676 8  -6152137.43949  20869943.2794
  24491060.197    17549336.668 5  13643861.18849  24491064.7684
  21979527.447   -11233286.243 7  -8642382.50449  21979529.8614
  23924484.479    15756957.794 6  12246221.42049  23924485.9084
  22286507.463    -8464836.100 7  -6526062.06549  22286508.4364
 95  2 19 17  3 30.0020000  0  6 18 14 15 22 25 29
  24330198.619    -1090637.971 5   -791930.71449  24330201.5844
  20872390.689    -7980580.834 8  -6142107.44149  20872392.6464
  24514448.822    17672252.221 5  13739639.43748  24514453.3814
  21978843.377   -11236881.399 7  -8645183.91249  21978845.9554
  23945870.744    15869342.278 6  12333793.67349  23945872.2794
  22282402.143    -8486409.453 7  -6542872.47349  22282403.0104
 95  2 19 17  4  0.0020000  0  6 18 14 15 22 25 29
  24320030.713    -1144076.676 5   -833571.23549  24320034.2644
  20874962.533    -7967066.065 8  -6131576.46649  20874964.1624
  24537864.166    17795296.969 5  13835518.37949  24537867.7294
  21978292.650   -11239773.876 7  -8647437.77749  21978295.3574
  23967295.541    15981930.607 6  12421524.78449  23967297.2754
  22278339.291    -8507759.931 7  -6559509.20649  22278340.4984
 95  2 19 17  4 30.0020000  0  6 18 14 15 22 25 29
  24309890.463    -1197368.494 5   -875097.31149  24309894.0964
  20877653.736    -7952923.006 8  -6120555.91149  20877655.4474
  24561303.791    17918465.724 5  13931493.98149  24561307.3074
  21977872.439   -11241982.411 7  -8649158.70549  21977875.1584
  23988757.557    16094714.093 6  12509407.96149  23988759.6784
  22274315.986    -8528901.350 7  -6575983.03649  22274317.0414
 95  2 19 17  5  0.0020000  0  6 18 14 15 22 25 29
  24299777.275    -1250516.220 5   -916511.13049  24299780.2174
  20880464.994    -7938150.548 8  -6109044.92049  20880466.7994
  24584763.439    18041756.654 5  14027564.75249  24584768.0574
  21977582.986   -11243504.648 7  -8650344.84949  21977585.8574
  24010253.939    16207679.054 6  12597432.54549  24010255.9794
  22270335.385    -8549819.616 7  -6592282.98349  22270336.3694
 95  2 19 17  5 30.0020000  0  6 18 14 15 22 25 29
  24289690.119    -1303523.176 5   -957815.23649  24289693.4944
  20883396.525    -7922745.233 8  -6097040.79249  20883398.5414
  24608249.361    18165170.434 5  14123731.21249  24608254.2364
  21977421.143   -11244354.863 7  -8651007.33149  21977423.5214
  24031786.229    16320831.335 6  12685603.11249  24031787.7644
  22266398.916    -8570506.521 7  -6608402.64749  22266399.7484
 95  2 19 17  6  0.0020000  0  6 18 14 15 22 25 29
  24279624.447    -1356414.542 5   -999029.23749  24279628.0104
  20886444.932    -7906725.645 8  -6084558.01249  20886446.8894
  24631753.674    18288684.036 5  14219975.47549  24631757.1194
  21977381.916   -11244562.010 7  -8651168.72549  21977384.0614
  24053349.447    16434146.029 6  12773900.21849  24053351.5574
  22262499.791    -8590996.975 7  -6624369.23949  22262500.6824
 95  2 19 17  6 30.0020000  0  6 18 14 15 22 25 29
  24269583.986    -1409180.359 5  -1040145.44549  24269586.6704
  20889616.447    -7890059.085 8  -6071571.09349  20889618.2644
  24655278.377    18412311.411 5  14316308.43949  24655282.9944
  21977468.424   -11244105.896 7  -8650813.29049  21977470.7214
  24074944.447    16547629.003 6  12862328.46449  24074946.5924
  22258641.939    -8611270.736 7  -6640166.96549  22258642.9004
 95  2 19 17  7  0.0020000  0  6 18 14 15 22 25 29
  24259566.572    -1461815.406 5  -1081159.75049  24259570.1704
  20892912.596    -7872737.890 8  -6058074.06849  20892914.2834
  24678824.814    18536046.099 5  14412724.99049  24678828.6824
  21977682.994   -11242979.427 7  -8649935.49949  21977685.2564
  24096572.572    16661287.549 6  12950893.49849  24096574.8464
  22254824.346    -8631330.722 7  -6655798.11549  22254825.2254
 95  2 19 17  7 30.0020000  0  7 18 14 15 19 22 25 29
  24249575.158    -1514319.292 5  -1122071.82949  24249579.0724
  20896332.322    -7854769.128 8  -6044072.45149  20896333.8934
  24702390.408    18659879.126 5  14509218.17349  24702394.9904
  25299907.033      -24942.77014
  21978027.205   -11241172.239 7  -8648527.27949  21978029.3964
  24118235.322    16775125.801 6  13039598.56249  24118238.3694
  22251042.557    -8651204.973 7  -6671284.54449  22251043.4004
 95  2 19 17  8  0.0020000  0  7 18 14 15 19 22 25 29
  24239611.494    -1566683.483 5  -1162875.05949  24239613.7684
  20899877.432    -7836138.544 8  -6029555.12749  20899879.0254
  24725973.541    18783818.780 4  14605794.40749  24725978.2994
  25286993.596      -92797.767 4
  21978507.119   -11238649.306 7  -8646561.33549  21978509.3694
  24139933.838    16889148.483 6  13128447.33649  24139936.0644
  22247296.830    -8670888.189 7  -6686622.10349  22247298.1074
 95  2 19 17  8 30.0020000  0  7 18 14 15 19 22 25 29
  24229671.979    -1618917.952 5  -1203577.19649  24229675.5884
  20903546.455    -7816856.810 8  -6014530.40849  20903548.3544
  24749577.791    18907853.417 5  14702444.63949  24749581.5764
  25274126.877     -160416.790 3    -12276.85458  25274131.9164
  21979121.846   -11235417.044 7  -8644042.66849  21979124.2954
  24161664.346    17003344.454 6  13217431.15449  24161666.9824
  22243586.619    -8690385.797 7  -6701815.04149  22243587.7324
 95  2 19 17  9  0.0020000  0  7 18 14 15 19 22 25 29
  24219759.494    -1671004.878 5  -1244164.40149  24219762.9394
  20907342.158    -7796910.703 8  -5998988.00349  20907344.0104
  24773200.947    19031995.783 5  14799178.88949  24773203.6314
  25261305.846     -227790.849 3    -64776.13048  25261311.7054
  21979873.236   -11231468.681 7  -8640965.99949  21979875.6744
  24183428.768    17117719.668 6  13306554.64549  24183431.9674
  22239913.471    -8709688.970 7  -6716856.46449  22239914.4554
 95  2 19 17  9 30.0020000  0  7 18 14 15 19 22 25 29
  24209872.205    -1722966.183 5  -1284653.66649  24209875.7094
  20911263.807    -7776302.825 8  -5982929.93049  20911265.2604
  24796843.682    19156237.591 5  14895990.59548  24796848.4864
  25248529.072     -294927.316 3   -117090.24347  25248533.8894
  21980758.525   -11226816.333 7  -8637340.77549  21980760.9754
  24205224.721    17232256.250 6  13395803.87749  24205226.8654
  22236278.174    -8728791.034 7  -6731741.18049  22236279.0294
 95  2 19 17 10  0.0020000  0  7 18 14 15 19 22 25 29
  24200007.635    -1774803.114 5  -1325046.00449  24200011.1744
  20915311.682    -7755030.120 8  -5966353.80749  20915313.2874
  24820505.018    19280580.801 5  14992881.32349  24820509.2364
  25235799.236     -361829.286 3   -169221.59548  25235803.1974
  21981774.807   -11221474.804 7  -8633178.52949  21981777.2094
  24227052.229    17346960.254 6  13485183.55749  24227055.7794
  22232686.713    -8747665.853 7  -6746448.83249  22232687.7214
 95  2 19 17 10 30.0020000  0  7 18 14 15 19 22 25 29
  24190169.494    -1826504.763 5  -1365332.97649  24190171.6394
  20919485.658    -7733097.171 8  -5949263.21449  20919487.2294
  24844185.674    19405020.326 5  15089847.06548  24844190.7254
  25223117.830     -428479.064 5   -221156.43148  25223122.0494
  21982919.111   -11215462.496 7  -8628493.59649  21982921.5254
  24248911.697    17461830.789 6  13574692.99749  24248914.1354
  22229139.572    -8766305.084 7  -6760972.90349  22229140.4284
 95  2 19 17 11  0.0020000  0  7 18 14 15 19 22 25 29
  24180354.916    -1878079.657 5  -1405521.19949  24180356.9434
  20923782.471    -7710518.215 8  -5931669.23649  20923784.0184
  24867880.463    19529539.111 4  15186874.59049  24867886.0294
  25210482.119     -494885.003 5   -272901.32847  25210487.1114
  21984188.658   -11208790.836 7  -8623294.88649  21984191.0494
  24270799.893    17576853.819 6  13664321.27649  24270801.9204
  22225636.596    -8784712.892 7  -6775316.64749  22225637.5924
 95  2 19 17 11 30.0020000  0  6 18 14 15 22 25 29
  24170568.150    -1929510.976 5  -1445597.53649  24170570.3654
  20928204.494    -7687279.585 8  -5913561.23249  20928206.2174
  24891592.994    19654148.068 5  15283972.38049  24891598.3614
  21985589.197   -11201430.682 7  -8617559.69049  21985591.4474
  24292722.479    17692058.706 6  13754091.24349  24292725.3614
  22222180.893    -8802872.182 7  -6789466.74349  22222181.9474
 95  2 19 17 12  0.0020000  0  7 18 14 15 19 22 25 29
  24160813.869    -1980769.788 5  -1485539.43849  24160816.3424
  20932752.861    -7663377.428 8  -5894936.19249  20932754.5614
  24915325.236    19778854.055 5  15381145.74748  24915330.9204
  25185366.049      -10952.41014
  21987123.010   -11193370.919 7  -8611279.34649  21987125.5184
  24314682.432    17807455.963 6  13844011.13749  24314684.7994
  22218772.643    -8820785.148 7  -6803424.89649  22218773.7214
 95  2 19 17 12 30.0020000  0  7 18 14 15 19 22 25 29
  24151089.471    -2031864.932 5  -1525353.77949  24151093.0334
  20937428.229    -7638809.048 8  -5875792.01449  20937429.9514
  24939070.354    19903648.307 3  15478387.89948  24939075.1234
  25172892.439      -76487.657 3
  21988791.010   -11184604.414 7  -8604448.30149  21988793.9164
  24336674.361    17923026.040 6  13934065.67049  24336676.9514
  22215407.557    -8838467.885 7  -6817203.65449  22215408.3654
 95  2 19 17 13  0.0020000  0  7 18 14 15 19 22 25 29
  24141398.049    -2082795.933 5  -1565040.24349  24141402.2324
  20942232.838    -7613559.177 8  -5856116.80249  20942234.8074
  24962837.400    20028541.223 4  15575706.97146  24962843.0254
  25160479.494     -141713.708 2     -6762.27157  25160485.9864
  21990598.729   -11175104.695 7  -8597045.92349  21990601.5184
  24358701.619    18038781.180 6  14024264.40449  24358704.1974
  22212086.377    -8855920.814 7  -6830803.33749  22212087.4554
 95  2 19 17 13 30.0020000  0  7 18 14 15 19 22 25 29
  24131738.588    -2133560.623 5  -1604597.11749  24131741.0724
  20947168.424    -7587621.946 8  -5835905.98649  20947170.4514
  24986623.783    20153531.341 5  15673101.76349  24986628.0374
  25148128.080     -206631.611 4    -57347.61849  25148132.7214
  21992548.049   -11164861.824 7  -8589064.46349  21992550.8264
  24380764.947    18154722.952 6  14114608.58849  24380767.5024
  22208807.330    -8873152.095 7  -6844230.30749  22208808.1274
 95  2 19 17 14  0.0020000  0  7 18 14 15 19 22 25 29
  24122108.033    -2184165.679 5  -1644029.59249  24122112.2644
  20952234.221    -7561002.341 8  -5815163.45149  20952236.2484
  25010425.439    20278612.614 5  15770567.57849  25010429.9514
  25135831.393     -271253.158 5   -107702.00549  25135837.0884
  21994637.721   -11153879.832 7  -8580507.06349  21994640.4164
  24402859.307    18270828.972 6  14205080.74049  24402861.4754
  22205571.119    -8890159.922 7  -6857483.15949  22205571.6704
 95  2 19 17 14 30.0020000  0  7 18 14 15 19 22 25 29
  24112504.908    -2234626.540 5  -1683349.73749  24112508.4364
  20957431.338    -7533692.027 8  -5793882.70449  20957432.9904
  25034243.729    20403776.347 4  15868097.64249  25034249.2364
  25123588.018     -335600.319 5   -157842.63849  25123593.3854
  21996867.268   -11142165.137 7  -8571378.73349  21996869.7404
  24424983.674    18387092.076 6  14295675.31049  24424985.7364
  22202378.213    -8906937.443 7  -6870556.55549  22202379.0454
 95  2 19 17 15  0.0020000  0  7 18 14 15 19 22 25 29
  24102928.924    -2284951.806 5  -1722564.20149  24102930.3544
  20962755.361    -7505713.432 8  -5772081.21349  20962756.8964
  25058071.744    20528995.512 4  15965670.86148  25058077.9794
  25111392.182     -399691.654 5   -207783.91949  25111397.2214
  21999228.525   -11129755.805 7  -8561709.12049  21999230.7994
  24447135.439    18503502.521 6  14386384.67049  24447137.5024
  22199226.963    -8923496.271 7  -6883459.53449  22199228.0644
 95  2 19 17 15 30.0020000  0  7 18 14 15 19 22 25 29
  24093378.830    -2335137.790 5  -1761670.15049  24093380.7524
  20968206.643    -7477067.745 8  -5749759.91549  20968208.3654
  25081910.705    20654268.427 4  16063286.02047  25081914.9244
  25099242.557     -463521.278 3   -257521.27147  25099248.2994
  22001721.432   -11116656.128 7  -8551501.58049  22001723.6354
  24469315.885    18620061.479 6  14477209.76249  24469317.7484
  22196121.814    -8939817.264 7  -6896177.19049  22196122.2954
 95  2 19 17 16  0.0020000  0  7 18 14 15 19 22 25 29
  24083848.713    -2385219.523 5  -1800694.84449  24083851.8184
  20973778.166    -7447788.642 8  -5726945.05149  20973779.9364
  25105754.447    20779567.129 4  16160921.28147  25105758.7954
  25087141.322     -527109.578 3   -307070.54746  25087147.9554
  22004339.158   -11102899.045 7  -8540781.77549  22004341.4434
  24491518.658    18736737.721 6  14568126.25349  24491521.5764
  22193057.760    -8955917.263 7  -6908722.64649  22193058.5104
 95  2 19 17 16 30.0020000  0  7 18 14 15 19 22 25 29
  24074337.400    -2435201.806 5  -1839642.04649  24074340.4594
  20979468.916    -7417883.646 8  -5703642.47849  20979470.4984
  25129601.166    20904881.948 5  16258569.07748  25129607.2834
  25075087.947     -590459.998 3   -356434.46145  25075094.1704
  22007080.072   -11088495.442 7  -8529558.18849  22007082.3344
  24513744.760    18853533.491 6  14659135.85749  24513746.6234
  22190035.291    -8971798.234 7  -6921097.43649  22190035.8534
 95  2 19 17 17  0.0020000  0  7 18 14 15 19 22 25 29
  24064846.588    -2485074.336 5  -1878503.71449  24064850.7714
  20985276.205    -7387364.588 8  -5679861.41249  20985277.7994
  25153452.697    21030219.678 5  16356234.69149  25153456.8814
  25063080.010     -653562.518 5   -405605.24749  25063083.1864
  22009949.291   -11073418.522 7  -8517809.94049  22009951.6234
  24535993.471    18970453.713 5  14750242.44049  24535995.7444
  22187056.111    -8987456.652 7  -6933298.79449  22187056.7564
 95  2 19 17 17 30.0020000  0  7 18 14 15 19 22 25 29
  24055374.721    -2534852.011 5  -1917291.52549  24055378.0144
  20991199.213    -7356238.307 8  -5655607.17949  20991201.0414
  25177305.260    21155573.897 3  16453913.15048  25177310.6624
  25051115.807     -716440.178 5   -454600.79849  25051119.5924
  22012949.963   -11057650.586 7  -8505523.23349  22012952.4364
  24558263.822    19087484.204 6  14841434.95949  24558266.0254
  22184116.432    -9002905.656 7  -6945336.97749  22184116.9594
 95  2 19 17 18  0.0020000  0  7 18 14 15 19 22 25 29
  24045922.229    -2584524.329 5  -1955997.18349  24045924.9124
  20997241.096    -7324489.535 8  -5630867.89349  20997243.2054
  25201163.525    21280943.741 3  16551603.79649  25201167.6034
  25039194.049     -779088.174 5   -503417.38349  25039198.2444
  22016080.916   -11041197.418 7  -8492702.57549  22016083.2364
  24580557.838    19204637.453 6  14932723.11849  24580560.0764
  22181213.869    -9018156.887 7  -6957221.06049  22181214.4904
 95  2 19 17 18 30.0020000  0  7 18 14 15 19 22 25 29
  24036494.158    -2634075.463 6  -1994608.42149  24036496.7604
  21003403.221    -7292108.535 8  -5605635.95949  21003405.4244
  25225024.744    21406329.461 5  16649306.81049  25225030.0064
  25027316.697     -841504.473 5   -552053.42049  25027321.8184
  22019342.533   -11024056.250 7  -8479345.80949  22019344.9004
  24602875.963    19321921.036 6  15024112.86949  24602877.9204
  22178348.494    -9033213.528 7  -6968953.50549  22178349.2684
 95  2 19 17 19  0.0020000  0  7 18 14 15 19 22 25 29
  24027086.627    -2683512.860 6  -2033131.02249  24027088.5144
  21009684.963    -7259097.083 8  -5579912.76649  21009686.9324
  25248883.994    21531721.290 4  16747014.59649  25248889.6784
  25015481.119     -903694.780 4   -600513.36448  25015486.6864
  22022735.338   -11006226.920 7  -8465452.82449  22022737.6464
  24625217.932    19439328.631 6  15115599.26249  24625220.1584
  22175517.689    -9048090.397 7  -6980545.87449  22175518.4394
 95  2 19 17 19 30.0020000  0  7 18 14 15 19 22 25 29
  24017698.463    -2732842.623 5  -2071569.77349  24017701.1934
  21016088.135    -7225448.545 8  -5553693.14549  21016089.9394
  25272745.244    21657105.035 5  16844716.13947  25272750.1784
  25003687.713     -965668.897 4   -648804.82548  25003692.7054
  22026253.846   -10987738.046 7  -8451045.90149  22026256.0724
  24647581.533    19556851.193 6  15207175.20749  24647583.8424
  22172719.947    -9062793.898 7  -6992003.14749  22172720.6744
 95  2 19 17 20  0.0020000  0  7 18 14 15 19 22 25 29
  24008333.799    -2782052.543 5  -2109915.13449  24008338.0064
  21022613.541    -7191156.969 8  -5526972.45649  21022615.3934
  25296605.572    21782488.016 3  16942417.01247  25296609.9904
  24991941.588    -1027395.275 4   -696903.25648  24991946.0534
  22029899.221   -10968581.537 7  -8436118.74149  22029901.3774
  24669967.033    19674484.301 6  15298837.31649  24669969.1544
  22169959.260    -9077299.958 7  -7003306.57249  22169959.9634
 95  2 19 17 20 30.0020000  0  7 18 14 15 19 22 25 29
  23998989.400    -2831158.645 6  -2148179.62349  23998991.8504
  21029257.986    -7156238.814 8  -5499763.51949  21029259.8144
  25320461.525    21907857.593 3  17040107.42948  25320466.0844
  24980240.447    -1088883.796 5   -744816.38649  24980245.4514
  22033672.541   -10948751.359 7  -8420666.64349  22033674.7794
  24692366.736    19792196.109 5  15390560.73749  24692369.3964
  22167236.854    -9091606.775 7  -7014454.74049  22167237.5334
 95  2 19 17 21  0.0020000  0  7 18 14 15 19 22 25 29
  23989660.838    -2880177.589 5  -2186376.17549  23989663.8734
  21036021.611    -7120696.401 8  -5472068.15249  21036023.5334
  25344314.158    22033203.609 4  17137779.50749  25344319.5254
  24968584.385    -1150133.324 5   -792543.25049  24968588.2404
  22037572.252   -10928257.660 7  -8404697.51749  22037574.8544
  24714778.791    19909972.606 5  15482334.55649  24714781.7444
  22164551.033    -9105721.206 7  -7025453.00549  22164551.5024
 95  2 19 17 21 30.0020000  0  8 18 14 15 19  4 22 25 29
  23980349.158    -2929110.296 5  -2224505.51849  23980352.3464
  21042906.236    -7084518.771 8  -5443877.80849  21042908.1114
  25368164.854    22158530.962 5  17235436.98749  25368170.2564
  24956978.135    -1211125.184 4   -840069.30649  24956982.5644
  25651049.174        -589.87113
  22041598.955   -10907097.759 7  -8388209.27549  22041601.4044
  24737202.861    20027811.315 6  15574156.83949  24737205.4864
  22161901.525    -9119642.768 7  -7036300.97849  22161902.2874
 95  2 19 17 22  0.0020000  0  8 18 14 15 19  4 22 25 29
  23971057.455    -2977942.859 6  -2262556.84449  23971059.7874
  21049913.510    -7047694.880 8  -5415183.88749  21049915.3854
  25392011.783    22283852.051 4  17333089.59347  25392017.8894
  24945426.018    -1271837.001 5   -887377.17349  24945431.1274
  25651002.986        -839.767 3        -5.92257  25651007.6744
  22045757.018   -10885247.245 7  -8371182.89749  22045759.3264
  24759642.752    20145732.863 6  15666043.71649  24759645.0024
  22159288.721    -9133373.404 7  -7047000.17849  22159289.7754
 95  2 19 17 22 30.0020000  0  7 18 14 19  4 22 25 29
  23961781.525    -3026686.468 5  -2300538.87349  23961783.5184
  21057041.744    -7010237.160 8  -5385996.06849  21057043.2684
  24933921.229    -1332297.598 5   -934489.28949  24933926.1864
  25651067.924        -505.608 5       254.44849  25651071.3574
  22050040.666   -10862737.269 7  -8353642.64849  22050042.8464
  24782096.916    20263730.697 6  15757990.03249  24782100.2094
  22156706.689    -9146941.791 7  -7057572.94449  22156707.8264
 95  2 19 17 23  0.0020000  0  8 18 14 15 19  4 22 25 29
  23952527.135    -3075319.534 6  -2338434.72349  23952529.7364
  21064293.143    -6972131.681 8  -5356303.50049  21064294.6784
  25439697.057      121108.753 3
  24922466.900    -1392490.491 5   -981392.82449  24922471.7874
  25651247.182         434.613 5       987.07849  25651249.2914
  22054452.760   -10839551.209 7  -8335575.57549  22054455.0334
  24804570.682    20381829.973 6  15850015.38949  24804573.5064
  22154158.947    -9160331.653 7  -7068006.60949  22154159.6864
 95  2 19 17 23 30.0020000  0  8 18 14 15 19  4 22 25 29
  23943293.729    -3123841.532 6  -2376244.03949  23943296.8114
  21071664.486    -6933393.260 8  -5326117.73449  21071666.4204
  25463534.439      246379.922 3     55307.43156  25463539.0104
  24911060.361    -1452434.481 5  -1028102.42749  24911063.6074
  25651536.182        1956.972 4      2173.30049  25651538.9594
  22058994.518   -10815684.313 7  -8316977.99249  22058996.6274
  24827061.439    20500020.254 6  15942111.66349  24827063.3384
  22151644.588    -9173543.366 7  -7078301.45349  22151645.4674
 95  2 19 17 24  0.0020000  0  8 18 14 15 19  4 22 25 29
  23934082.369    -3172247.349 6  -2413962.84949  23934084.4794
  21079152.908    -6894043.402 8  -5295455.52349  21079154.8544
  25487367.010      371617.178 3    152894.72548  25487372.7644
  24899696.002    -1512151.542 5  -1074635.18349  24899699.8814
  25651932.221        4047.793 3      3802.46247  25651936.7564
  22063662.658   -10791152.125 7  -8297861.99749  22063664.9324
  24849566.174    20618285.150 5  16034266.07349  24849569.0924
  22149166.799    -9186566.321 7  -7088449.21449  22149167.5844
 95  2 19 17 24 30.0020000  0  8 18 14 15 19  4 22 25 29
  23924892.260    -3220542.043 6  -2451595.05349  23924894.7914
  21086758.643    -6854074.019 8  -5264310.56649  21086760.5534
  25511192.635      496821.902 4    250456.67049  25511198.2834
  24888376.104    -1571632.733 4  -1120984.12149  24888381.9984
  25652435.604        6696.720 3      5866.54647  25652439.8574
  22068458.189   -10765951.040 7  -8278224.78349  22068460.7564
  24872083.916    20736614.189 5  16126470.44949  24872086.3894
  22146729.479    -9199374.087 7  -7098429.29549  22146730.3344
 95  2 19 17 25  0.0030000  0  8 18 14 15 19  4 22 25 29
  23915725.366    -3268717.424 6  -2489134.27649  23915728.0384
  21094488.233    -6813455.398 8  -5232659.70349  21094490.0264
  25535014.765      622005.528 5    348002.22749  25535020.5894
  24877106.733    -1630857.000 5  -1167132.84049  24877112.5224
  25653045.265        9892.172 3      8356.53848  25653049.4604
  22073387.171   -10740050.892 7  -8258042.84749  22073389.5734
  24894616.897    20855027.672 5  16218740.62349  24894619.1014
  22144334.897    -9211956.273 7  -7108233.60049  22144335.7414
 95  2 19 17 25 30.0030000  0  8 18 14 15 19  4 22 25 29
  23906583.679    -3316752.188 6  -2526563.94649  23906586.1864
  21102343.874    -6772173.362 8  -5200491.90249  21102345.6084
  25558833.452      747167.484 3    445530.81747  25558839.8744
  24865890.210    -1689801.667 5  -1213063.67749  24865894.2764
  25653759.733        2921.27414
  22078449.413   -10713449.999 7  -8237314.87849  22078451.6164
  24917167.733    20973531.426 5  16311081.11049  24917170.1014
  22141985.562    -9224302.140 7  -7117853.76149  22141986.5114
 95  2 19 17 26  0.0030000  0  8 18 14 15 19  4 22 25 29
  23897468.999    -3364652.417 6  -2563888.76749  23897472.1514
  21110325.280    -6730230.422 8  -5167809.11049  21110327.0384
  25582645.905      872305.834 1    543040.97445  25582651.6714
  24854725.171    -1748473.107 5  -1258781.65849  24854728.2534
  25654580.194        7229.303 5
  22083642.882   -10686156.984 7  -8216047.59749  22083645.1204
  24939737.468    21092136.020 6  16403500.22749  24939739.5424
  22139680.272    -9236418.409 7  -7127295.00249  22139681.1164
 95  2 19 17 26 30.0030000  0  8 18 14 15 19  4 22 25 29
  23888375.952    -3412437.013 6  -2601123.49249  23888378.6124
  21118429.546    -6687640.390 7  -5134622.08949  21118431.5854
  25606450.476      997401.402 3    640517.86845  25606455.1404
  24843607.562    -1806892.432 5  -1304303.16049  24843611.7924
  25655502.147       12081.136 4      2937.90657  25655506.3664
  22088965.038   -10658187.117 7  -8194252.89749  22088967.3234
  24962324.554    21210832.184 6  16495990.67849  24962326.7224
  22137411.272    -9248339.328 7  -7136584.03349  22137412.2454
 95  2 19 17 27  0.0030000  0  8 18 14 15 19  4 22 25 29
  23879312.069    -3460062.872 6  -2638234.50849  23879315.1514
  21126658.647    -6644396.542 7  -5100925.59949  21126660.9214
  25630250.601       20838.28414    737972.38946  25630255.6754
  24832539.601    -1865057.387 5  -1349626.47949  24832544.8044
  25656533.741       17504.464 3      7163.81949  25656537.7024
  22094419.327   -10629525.717 7  -8171919.34149  22094421.3904
  24984933.655    21329644.953 5  16588572.00149  24984936.6554
  22135181.499    -9260059.364 7  -7145716.52249  22135182.4954
 95  2 19 17 27 30.0030000  0  8 18 14 15 19  4 22 25 29
  23870275.929    -3507550.426 6  -2675237.76049  23870278.8474
  21135003.382    -6600545.495 7  -5066755.96649  21135005.3514
  25654040.897      145858.457 4    835390.55247  25654045.6794
  24821512.171    -1923007.426 4  -1394782.27148  24821517.7024
  25657674.015       23497.892 3     11834.03049  25657678.1044
  22100000.468   -10600196.575 7  -8149065.46649  22100002.4374
  25007562.030    21448553.741 5  16681228.12049  25007564.9134
  22132988.577    -9271583.431 7  -7154696.30749  22132989.6324
 95  2 19 17 28  0.0030000  0  8 18 14 15 19  4 22 25 29
  23861266.624    -3554894.019 6  -2712128.86349  23861268.4994
  21143467.366    -6556066.063 7  -5032096.68449  21143469.2764
  25677825.140      270848.841 3    932785.51747  25677830.8824
  24810527.835    -1980730.964 5  -1439761.59549  24810533.9874
  25658924.546       30075.041 3     16959.07349  25658928.4724
  22105712.991   -10570176.406 7  -8125673.13049  22105715.3824
  25030210.007    21567570.772 5  16773968.58349  25030211.5894
  22130838.405    -9282883.616 7  -7163501.63549  22130839.0504
 95  2 19 17 28 30.0030000  0  8 18 14 15 19  4 22 25 29
  23852277.140    -3602135.241 6  -2748940.18749  23852279.8004
  21152045.069    -6510989.968 7  -4996972.47149  21152047.0264
  25701597.530      395769.620 3   1030126.28546  25701603.1554
  24799580.444    -2038259.055 5  -1484588.59849  24799585.3194
  25660279.405       37187.593 4     22501.33349  25660282.1714
  22111549.101   -10539509.072 7  -8101776.51049  22111551.4094
  25052869.405    21686646.802 5  16866755.03249  25052872.3004
  22128724.515    -9293990.911 7  -7172156.67049  22128725.2764
 95  2 19 17 29  0.0030000  0  8 18 14 15 19  4 22 25 29
  23843310.343    -3649255.769 6  -2785657.44149  23843313.2264
  21160742.608    -6465285.647 7  -4961358.73349  21160744.6124
  25725362.304      520646.704 3   1127432.88646  25725366.3354
  24788677.405    -2095554.273 5  -1529234.19149  24788682.1514
  25661740.710       44856.962 5     28477.47149  25661743.0304
  22117513.819   -10508163.205 7  -8077351.16249  22117516.0344
  25075546.554    21805816.652 5  16959614.57049  25075549.5544
  22126656.007    -9304861.541 7  -7180627.28249  22126656.6984
 95  2 19 17 29 30.0030000  0  7 18 14 19  4 22 25 29
  23834359.663    -3696290.390 6  -2822307.77249  23834361.4684
  21169560.233    -6418949.631 7  -4925252.76649  21169562.0154
  24777822.460    -2152593.739 5  -1573680.46449  24777827.3004
  25663303.694       53071.798 5     34878.62949  25663307.1404
  22123606.413   -10476145.998 7  -8052402.69549  22123608.6164
  25098241.499    21925076.436 6  17052544.20349  25098243.7374
  22124634.108    -9315487.608 7  -7188907.32649  22124634.7884
 95  2 19 17 30  0.0030000  0  7 18 14 19  4 22 25 29
  23825428.249    -3743226.583 6  -2858881.40049  23825430.3354
  21178502.702    -6371955.598 7  -4888634.06049  21178504.8474
  24767024.897           1.11315  -1617902.06849  24767029.4214
  25664969.897       61835.552 5     41707.48849  25664974.3624
  22129828.585   -10443446.112 7  -8026922.26649  22129831.3154
  25120953.874    22044430.213 6  17145547.09049  25120956.1124
  22122657.507    -9325873.992 7  -7197000.61349  22122658.0344
 95  2 19 17 30 30.0030000  0  7 18 14 19  4 22 25 29
  23816519.366    -3790042.208 6  -2895361.10549  23816521.6514
  21187570.819    -6324303.463 7  -4851502.55149  21187572.8944
  24756283.616      -56444.415 5  -1661885.54949  24756287.4954
  25666745.913       71169.192 5     48980.42348  25666750.0264
  22136184.327   -10410048.249 7  -8000897.97049  22136186.9294
  25143685.835    22163889.428 5  17238632.11149  25143688.9764
  22120724.437    -9336032.103 7  -7204916.02349  22120725.3274
 95  2 19 17 31  0.0030000  0  7 18 14 19  4 22 25 29
  23807633.062    -3836740.524 6  -2931749.37349  23807636.0384
  21196759.999    -6276012.884 7  -4813873.55249  21196762.0504
  24745599.374     -112592.703 5  -1705637.43849  24745602.8434
  25668628.882       81067.026 5     56692.99449  25668631.4484
  22142673.866   -10375946.323 7  -7974325.04249  22142676.1514
  25166436.288    22283442.350 5  17331790.13649  25166439.4994
  22118831.202    -9345981.546 7  -7212668.82949  22118831.9174
 95  2 19 17 31 30.0030000  0  7 18 14 19  4 22 25 29
  23798771.952    -3883307.185 6  -2968035.06849  23798774.8704
  21206072.577    -6227074.310 7  -4775739.61949  21206074.5344
  24734970.108     -168445.019 5  -1749158.69649  24734974.2224
  25670622.655       91546.655 4     64858.93148  25670625.8664
  22149300.765   -10341121.815 7  -7947189.07149  22149303.2844
  25189201.304    22403074.771 5  17425010.11649  25189204.0464
  22116976.280    -9355729.273 7  -7220264.46249  22116976.9374
 95  2 19 17 32  0.0030000  0  7 18 14 19  4 22 25 29
  23789945.124    -3929690.653 6  -3004178.00349  23789947.3974
  21215514.804    -6177457.128 7  -4737076.91249  21215516.8194
  24724398.296     -224000.165 5  -1792448.39049  24724402.1404
  25672734.257      102643.440 4     73505.75949  25672737.3624
  22156071.897   -10305538.767 7  -7919462.03149  22156074.7334
  25211985.179    22522806.297 5  17518307.26948  25211988.1324
  22115164.921    -9365248.590 7  -7227682.11049  22115165.4954
 95  2 19 17 32 30.0030000  0  7 18 14 19  4 22 25 29
  23781150.726    -3975905.201 6  -3040189.31049  23781153.3624
  21225081.608    -6127181.360 7  -4697901.01549  21225083.7534
  24713877.858     -279281.919 5  -1835525.03549  24713882.2884
  25674959.233      114335.728 4     82616.59448  25674962.5034
  22162981.741   -10269227.337 7  -7891167.42149  22162984.5544
  25234785.601    22642617.112 5  17611666.33449  25234788.0734
  22113397.015    -9374538.087 7  -7234920.67949  22113397.5544
 95  2 19 17 33  0.0030000  0  7 18 14 19  4 22 25 29
  23772384.343    -4021972.593 6  -3076085.93649  23772386.9914
  21234773.390    -6076252.222 7  -4658215.99449  21234775.4764
  24703407.647     -334303.559 5  -1878399.03549  24703411.8544
  25677294.944      126598.952 5     92172.42349  25677297.8044
  22170027.569   -10232203.593 7  -7862317.76349  22170030.0304
  25257594.538    22762482.167 5  17705067.62449  25257596.6714
  22111673.210    -9383596.575 7  -7241979.23749  22111673.7614
 95  2 19 17 33 30.0030000  0  7 18 14 19  4 22 25 29
  23763645.085    -4067897.614 6  -3111871.66549  23763647.1714
  21244589.522    -6024667.333 7  -4618019.99949  21244591.8784
  24692986.233     -389069.647 5  -1921073.90549  24692990.1014
  25679738.194      139436.110 5    102175.36648  25679742.8944
  22177203.757   -10194490.435 7  -7832930.89749  22177206.2064
  25280411.733    22882390.207 5  17798502.36249  25280415.5304
  22109994.882    -9392416.523 7  -7248851.92649  22109995.7024
 95  2 19 17 34  0.0030000  0  7 18 14 19  4 22 25 29
  23754933.374    -4113675.939 6  -3147543.05549  23754936.5154
  21254530.030    -5972429.783 7  -4577315.44349  21254532.5034
  24682616.436     -443563.888 5  -1963536.97349  24682619.9764
  25682292.476      152855.139 5    112631.70348  25682295.3474
  22184508.335   -10156104.159 7  -7803019.52249  22184510.9484
  25303242.702    23002363.265 5  17891987.76949  25303245.4684
  22108366.210    -9400974.321 7  -7255520.33649  22108367.0544
 95  2 19 17 34 30.0030000  0  7 18 14 19  4 22 25 29
  23746249.679    -4159312.232 6  -3183103.76749  23746252.6444
  21264593.897    -5919543.794 7  -4536105.61049  21264596.1014
  24672300.304     -497775.708 5  -2005779.90749  24672304.6404
  25684953.546      166849.264 5    123536.20648  25684957.8124
  22191939.835   -10117052.748 7  -7772589.85749  22191942.2494
  25326085.272    23122401.298 5  17985523.83549  25326087.9684
  22106783.976    -9409288.125 7  -7261998.62249  22106784.7264
 95  2 19 17 35  0.0030000  0  7 18 14 19  4 22 25 29
  23737588.546    -4204825.630 6  -3218568.72049  23737591.0774
  21274779.358    -5866019.378 7  -4494398.29449  21274781.5854
  24662032.561     -551729.740 5  -2047821.94449  24662038.4214
  25687723.382      181407.234 4    134880.02147  25687728.2224
  22199494.944   -10077349.755 7  -7741652.46449  22199497.1594
  25348936.608    23242483.837 5  18079094.56649  25348939.4684
  22105243.522    -9417384.415 7  -7268307.41849  22105244.3434
 95  2 19 17 35 30.0030000  0  7 18 14 19  4 22 25 29
  23728954.327    -4250198.492 6  -3253924.16449  23728956.5654
  21285088.226    -5811846.427 7  -4452185.62749  21285090.3234
  24651817.413     -605413.243 5  -2089653.22549  24651822.4764
  25690605.116      196550.120 4    146679.62147  25690608.6674
  22207174.757   -10036992.738 7  -7710205.44349  22207176.9954
  25371800.890    23362638.691 5  18172721.64649  25371804.3004
  22103749.226    -9425236.388 7  -7274425.83749  22103750.1514
 95  2 19 17 36  0.0030000  0  7 18 14 19  4 22 25 29
  23720348.788    -4295422.084 6  -3289163.28749  23720351.2024
  21295523.522    -5757007.642 7  -4409454.13249  21295525.5734
  24641657.976     -658801.284 5  -2131254.25549  24641662.2184
  25693597.483      212281.057 3    158937.49648  25693601.4684
  22214983.780    -9995955.389 7  -7678228.29449  22214986.0774
  25394684.866    23482895.025 5  18266427.74249  25394687.9374
  22102304.062    -9432831.481 7  -7280344.08449  22102304.9644
 95  2 19 17 36 30.0030000  0  7 18 14 19  4 22 25 29
  23711767.585    -4340517.814 6  -3324302.79249  23711769.4134
  21306084.413    -5701511.474 7  -4366210.39149  21306086.4404
  24631550.616     -711911.317 5  -2172638.67949  24631553.6874
  25696697.335      228563.453 4    171625.04046  25696701.2024
  22222921.194    -9954243.743 7  -7645725.71749  22222923.5734
  25417583.062    23603223.603 5  18360190.15149  25417585.3944
  22100902.265    -9440198.416 7  -7286084.55649  22100902.6874
 95  2 19 17 37  0.0030000  0  7 18 14 19  4 22 25 29
  23703210.460    -4385485.698 6  -3359342.67549  23703212.3824
  21316770.429    -5645355.413 7  -4322452.44949  21316772.5034
  24621502.179     -764718.738 5  -2213787.28249  24621505.7764
  25699903.335      245410.758 4    184752.86047  25699907.1674
  22230990.280    -9911840.546 7  -7612684.26549  22230992.9644
  25440495.390    23723628.141 5  18454011.80449  25440498.2264
  22099551.108    -9447299.485 7  -7291617.85949  22099551.8474
 95  2 19 17 37 30.0030000  0  7 18 14 19  4 22 25 29
  23694676.327    -4430331.913 6  -3394287.74349  23694679.0114
  21327576.765    -5588566.993 7  -4278201.75649  21327578.9914
  24611511.780     -817217.589 5  -2254695.43249  24611517.0544
  25703215.538      262812.248 5    198312.40846  25703221.2224
  22239190.812    -9868747.414 7  -7579105.20549  22239193.3434
  25463420.952    23844101.579 5  18547887.12749  25463424.1874
  22098248.007    -9454147.231 7  -7296953.76649  22098248.8394
 95  2 19 17 38  0.0030000  0  7 18 14 19  4 22 25 29
  23686169.632    -4475032.853 6  -3429119.59949  23686172.4914
  21338508.702    -5531121.047 7  -4233438.70649  21338510.7294
  24601583.140     -869392.207 5  -2295350.90849  24601587.4874
  25706635.827      280784.422 5    212316.63247  25706638.5344
  22247527.038    -9824940.060 7  -7544969.60549  22247529.5344
  25486360.780    23964653.274 5  18641823.44049  25486364.4604
  22096992.960    -9460741.282 7  -7302091.98649  22096993.8624
 95  2 19 17 38 30.0030000  0  7 18 14 19  4 22 25 29
  23677691.499    -4519586.747 6  -3463836.90849  23677694.0304
  21349563.280    -5473027.709 7  -4188171.19349  21349565.4724
  24591714.280     -921258.417 5  -2335766.08649  24591718.3354
  25710164.601      299326.248 5    226764.81548  25710167.2374
  22255996.960    -9780428.600 7  -7510285.35449  22255999.5854
  25509311.772    24085264.980 5  18735806.50249  25509314.9954
  22095782.163    -9467103.884 7  -7307049.85849  22095783.3004
 95  2 19 17 39  0.0030000  0  7 18 14 19  4 22 25 29
  23669240.187    -4563998.312 6  -3498443.29049  23669243.0814
  21360736.171    -5414312.611 7  -4142419.19549  21360738.5264
  24581898.640     -972838.612 5  -2375958.38049  24581902.9994
  25713801.413      318441.791 5    241660.02849  25713806.2764
  22264598.085    -9735230.863 7  -7475066.34149  22264600.6874
  25532273.843    24205929.700 5  18829830.87349  25532278.0264
  22094613.991    -9473242.019 7  -7311832.81849  22094615.1044
 95  2 19 17 39 30.0030000  0  7 18 14 19  4 22 25 29
  23660815.952    -4608268.081 6  -3532939.18049  23660818.9644
  21372028.663    -5354972.152 7  -4096179.90549  21372030.9834
  24572130.187    -1024170.583 5  -2415957.24649  24572135.1554
  25717546.210        9254.59314    256997.30149  25717550.6754
  22273327.108    -9689359.928 7  -7439322.75349  22273329.6164
  25555247.022    24326656.961 4  18923903.95049  25555250.9604
  22093483.960    -9479182.059 7  -7316461.42449  22093484.6284
 95  2 19 17 40  0.0030000  0  7 18 14 19  4 22 25 29
  23652420.796    -4652383.144 6  -3567314.52849  23652423.0814
  21383444.155    -5294983.355 7  -4049435.41649  21383446.2534
  24562409.390    -1075253.500 5  -2455762.06849  24562413.7844
  25721401.835       29516.215 4    272785.51848  25721406.6754
  22282186.280    -9642804.545 7  -7403045.83649  22282189.1164
  25578237.147    24447469.813 5  19018043.72249  25578241.2724
  22092392.960    -9484915.404 7  -7320928.97049  22092393.7224
 95  2 19 17 40 30.0030000  0  7 18 14 19  4 22 25 29
  23644053.593    -4696351.811 6  -3601575.80649  23644056.6164
  21394979.897    -5234364.768 7  -4002200.17549  21394981.7614
  24552735.179    -1126092.482 5  -2495376.82149  24552740.1944
  25725366.679       50353.181 4    289022.05747  25725371.4014
  22291175.718    -9595565.773 7  -7366236.40749  22291178.3434
  25601244.718    24568367.460 5  19112249.55749  25601249.0074
  22091340.772    -9490443.730 7  -7325236.76349  22091341.5934
 95  2 19 17 41  0.0030000  0  7 18 14 19  4 22 25 29
  23635716.460    -4740163.899 6  -3635715.06449  23635719.2964
  21406636.944    -5173105.321 7  -3954465.56649  21406638.8904
  24543109.866    -1176675.220 5  -2534791.89449  24543113.6164
  25729442.296       12206.28114
  22300295.796    -9547639.014 7  -7328890.88149  22300298.2574
  25624266.726    24689349.255 5  19206520.96749  25624270.2414
  22090334.460    -9495732.755 7  -7329358.08149  22090335.1634
 95  2 19 17 41 30.0030000  0  7 18 14 19  4 22 25 29
  23627409.780    -4783814.440 6  -3669728.43949  23627411.9954
  21418418.108    -5111194.214 7  -3906223.17449  21418420.3824
  24533535.663    -1226982.781 5  -2573992.51849  24533540.0224
  25733627.632       34201.869 3
  22309548.694    -9499014.046 7  -7291001.30449  22309551.1674
  25647303.858    24810411.899 5  19300855.37949  25647306.3544
  22089374.186    -9500778.876 7  -7333290.11849  22089374.8664
 95  2 19 17 42  0.0030000  0  6 18 14 19  4 22 29
  23619134.272    -4827306.934 6  -3703618.66349  23619136.8394
  21430320.460    -5048646.030 7  -3857484.35849  21430322.7694
  24524017.046    -1277000.725 5  -2612967.48349  24524021.6164
  25737919.499       56757.012 3     10594.03958  25737923.3904
  22318932.280    -9449703.661 7  -7252577.63049  22318934.6714
  22088460.804    -9505578.371 7  -7337029.98849  22088461.5194
 95  2 19 17 42 30.0030000  0  6 18 14 19  4 22 29
  23610885.147    -4870652.965 6  -3737394.75749  23610887.7144
  21442343.272    -4985466.784 7  -3808253.79949  21442345.3944
  24514552.726    -1326735.027 5  -2651721.41949  24514556.1364
  25742319.640       79870.621 4     28604.62247  25742324.5384
  22328443.327    -9399722.544 7  -7213631.30749  22328445.6124
  22087597.694    -9510115.100 7  -7340565.09549  22087598.6084
 95  2 19 17 43  0.0030000  0  6 18 14 19  4 22 29
  23602665.929    -4913846.777 6  -3771052.23449  23602667.7694
  21454487.765    -4921646.434 7  -3758523.67649  21454489.9094
  24505144.046    -1376182.345 5  -2690251.77849  24505146.9294
  25746824.929                        8746.02014
  22338080.827    -9349076.381 7  -7174166.77049  22338083.3584
  22086785.772    -9514380.842 7  -7343889.04549  22086786.3704
 95  2 19 17 43 30.0030000  0  6 18 14 19  4 22 29
  23594476.937    -4956882.382 6  -3804586.44649  23594478.8944
  21466755.882    -4857177.602 7  -3708288.25249  21466758.1794
  24495787.452    -1425352.276 5  -2728565.95449  24495791.4134
  25751437.507        6517.25515        -1.00058  25751442.0194
  22347846.944    -9297755.729 7  -7134176.65949  22347849.3944
  22086024.257    -9518382.534 7  -7347007.24449  22086024.9484
 95  2 19 17 44  0.0030000  0  6 18 14 19  4 22 29
  23586315.022    -4999772.528 6  -3838007.29349  23586317.4364
  21479145.952    -4792068.349 7  -3657553.79349  21479148.3664
  24486479.108    -1474264.800 5  -2766679.55149  24486482.8584
  25756156.593       31318.048 5     19324.27248  25756160.5894
  22357738.491    -9245776.241 7  -7093673.16749  22357740.8704
  22085311.366    -9522129.873 7  -7349927.24149  22085311.9644
 95  2 19 17 44 30.0030000  0  6 18 14 19  4 22 29
  23578181.585    -5042513.582 6  -3871311.98149  23578183.9644
  21491659.788    -4726307.946 7  -3606311.94349  21491662.0154
  24477220.147    -1522919.181 5  -2804591.98349  24477224.4954
  25760984.686       56691.335 5     39095.57447  25760988.9874
  22367758.202    -9193121.780 7  -7052643.72249  22367760.6164
  22084646.983    -9525621.293 7  -7352647.82449  22084647.5584
 95  2 19 17 45  0.0030000  0  6 18 14 19  4 22 29
  23570080.030    -5085087.749 6  -3904486.62849  23570082.9484
  21504299.921    -4659885.154 7  -3554553.94549  21504301.7844
  24468013.983    -1571299.453 5  -2842290.86649  24468017.8624
  25765921.554       82636.859 5     59312.86249  25765925.6084
  22377910.702    -9139769.011 7  -7011070.14149  22377913.3044
  22084029.593    -9528863.278 7  -7355174.04449  22084030.4834
 95  2 19 17 45 30.0030000  0  6 18 14 19  4 22 29
  23562005.007    -5127523.477 6  -3937553.39349  23562007.6324
  21517060.780    -4592825.745 7  -3502299.88849  21517062.5734
  24458860.163    -1619408.355 5  -2879778.30549  24458863.8904
  25770963.733      109136.133 4     79961.62848  25770968.8194
  22388193.210    -9085735.608 7  -6968966.20549  22388196.0464
  22083456.163    -9531877.680 7  -7357522.91749  22083457.0894
 95  2 19 17 46  0.0030000  0  6 18 14 19  4 22 29
  23553955.077    -5169822.588 6  -3970513.71249  23553957.4334
  21529940.249    -4525143.668 7  -3449560.62749  21529942.1944
  24449759.882    -1667228.766 5  -2917040.92149  24449763.5504
  25776109.444      136180.942 4    101035.45848  25776114.5774
  22398604.890    -9031022.862 7  -6926332.89849  22398607.3974
  22082925.108    -9534668.356 7  -7359697.46849  22082926.1044
 95  2 19 17 46 30.0030000  0  5 18 14 19 22 29
  23545932.577    -5211985.323 6  -4003367.75449  23545935.0974
  21542935.937    -4456850.056 7  -3396344.84949  21542938.0694
  24440714.585    -1714758.412 5  -2954076.94649  24440719.0974
  22409144.772    -8975634.271 7  -6883172.95849  22409147.1284
  22082435.687    -9537242.075 7  -7361702.95549  22082436.5544
 95  2 19 17 47  0.0030000  0  6 18 14 19  4 22 29
  23537936.147    -5254003.884 6  -4036109.45549  23537938.6444
  21556046.046    -4387956.765 7  -3342661.78749  21556048.4014
  24431726.991    -1761990.463 5  -2990881.07449  24431731.2104
  25786709.647       27190.308 3
  22419810.507    -8919585.749 7  -6839498.78949  22419812.9214
  22081986.499    -9539599.648 7  -7363540.02249  22081987.4954
 95  2 19 17 47 30.0030000  0  6 18 14 19  4 22 29
  23529967.304    -5295881.927 6  -4068741.66749  23529969.5194
  21569266.976    -4318480.713 7  -3288524.62949  21569269.2024
  24422793.233    -1808937.800 5  -3027463.38549  24422797.2184
  25792161.983        7693.05813     11214.75457  25792164.7024
  22430598.382    -8862893.115 7  -6795322.71749  22430601.0544
  22081580.319    -9541736.385 7  -7365205.00349  22081581.1984
 95  2 19 17 48  0.0030000  0  6 18 14 19  4 22 29
  23522029.890    -5337591.028 6  -4101242.23449  23522032.3514
  21582603.562    -4248395.365 7  -3233912.69949  21582605.6944
  24413911.804    -1855605.749 5  -3063827.98749  24413916.3744
  25797721.538       36910.359 3     33981.40948  25797726.4604
  22441512.718    -8805539.003 7  -6750631.20949  22441515.3904
  22081220.210    -9543628.910 7  -7366679.69849  22081220.9834
 95  2 19 17 48 30.0030000  0  6 18 14 19  4 22 29
  23514124.374    -5379135.407 6  -4133614.43749  23514126.6714
  21596058.468    -4177689.211 7  -3178817.01849  21596060.7414
  24405084.179    -1901996.772 5  -3099976.80149  24405088.2574
  25803390.265       66693.752 3     57189.20647  25803392.9834
  22452550.530    -8747534.990 7  -6705433.27449  22452552.9794
  22080910.015    -9545258.150 7  -7367949.22849  22080910.9404
 95  2 19 17 49  0.0030000  0  6 18 14 19  4 22 29
  23506251.749    -5420507.745 6  -4165852.59249  23506254.2924
  21609632.983    -4106354.492 7  -3123231.54449  21609635.0694
  24396311.476    -1948099.420 5  -3135900.88749  24396314.7104
  25809166.507       97051.261 3     80844.41547  25809171.8274
  22463713.968    -8688870.945 7  -6659721.04249  22463716.5464
  22080653.772    -9546604.497 7  -7368998.33049  22080654.4174
 95  2 19 17 49 30.0030000  0  6 18 14 19  4 22 29
  23498409.991    -5461715.396 6  -4197962.41649  23498412.9684
  21623329.335    -4034382.743 7  -3067149.68549  21623331.1164
  24387594.226    -1993913.751 6  -3171600.32849  24387597.9174
  25815054.796                        5192.16714
  22475005.702    -8629532.625 7  -6613483.40149  22475008.5264
  22080453.827    -9547655.044 7  -7369816.93049  22080454.5304
 95  2 19 17 50  0.0030000  0  6 18 14 19  4 22 29
  23490598.132    -5502764.966 6  -4229949.06849  23490600.6514
  21637146.437    -3961771.493 7  -3010569.51549  21637148.3114
  24378929.530    -2039438.061 5  -3207073.76649  24378932.8824
  25821045.804                       36682.788 4
  22486425.460    -8569519.650 7  -6566720.05349  22486428.2264
  22080311.077    -9548406.317 7  -7370402.33649  22080311.8744
 95  2 19 17 50 30.0030000  0  6 18 14 19  4 22 29
  23482818.015    -5543651.952 6  -4261809.03349  23482820.5934
  21651084.140    -3888528.622 7  -2953497.17849  21651086.0624
  24370324.358    -2084657.233 5  -3242309.44149  24370328.5544
  25827143.202       68723.608 4     20835.87857  25827146.5774
  22497975.233    -8508828.452 7  -6519428.22249  22497977.8824
  22080224.327    -9548861.109 7  -7370756.71949  22080225.1124
 95  2 19 17 51  0.0030000  0  6 18 14 19  4 22 29
  23475070.702    -5584363.350 6  -4293532.16049  23475073.4914
  21665141.733    -3814655.166 7  -2895933.46749  21665143.7844
  24361777.991    -2129572.024 5  -3277307.91749  24361782.0224
  25833344.851                        4375.56114
  22509656.304    -8447442.889 7  -6471595.32349  22509658.9404
  22080191.851    -9549032.295 7  -7370890.10949  22080192.9054
 95  2 19 17 51 30.0040000  0  6 18 14 19  4 22 29
  23467352.770    -5624921.162 6  -4325135.63349  23467354.7854
  21679317.512    -3740161.557 7  -2837886.52349  21679319.4924
  24353282.473    -2174217.805 6  -3312096.80349  24353286.0944
  25839647.051                       37486.598 5
  22521464.863    -8385386.992 7  -6423240.09049  22521467.5944
  22080208.582    -9548943.882 7  -7370821.20849  22080209.4964
 95  2 19 17 52  0.0040000  0  6 18 14 19  4 22 29
  23459667.527    -5665309.262 6  -4356606.85349  23459669.7074
  21693610.980    -3665047.875 7  -2779356.41049  21693613.2894
  24344839.793    -2218586.391 5  -3346669.69749  24344843.5784
  25846048.543       71127.849 5     19265.00358  25846052.0824
  22533399.543    -8322670.575 7  -6374370.17049  22533402.1564
  22080273.324    -9548605.089 7  -7370557.21149  22080274.2154
 95  2 19 17 52 30.0040000  0  6 18 14 19  4 22 29
  23452014.887    -5705520.902 6  -4387940.57249  23452016.9964
  21708025.473    -3589299.974 7  -2720332.09349  21708027.7704
  24336452.691    -2262655.450 5  -3381009.15249  24336456.7344
  25852557.480      105335.530 4     45920.30147  25852562.1564
  22545460.316    -8259291.899 7  -6324984.19549  22545462.7424
  22080383.777    -9548023.839 7  -7370104.28349  22080384.7154
 95  2 19 17 53  0.0040000  0  5 18 14 19 22 29
  23444394.520    -5745568.369 6  -4419146.37449  23444396.6054
  21722559.715    -3512922.631 7  -2660817.31049  21722561.9654
  24328122.644    -2306431.151 5  -3415120.00249  24328126.8984
  22557644.535    -8195264.632 7  -6275092.82749  22557646.5624
  22080540.848    -9547198.909 7  -7369461.47349  22080541.4574
 95  2 19 17 53 30.0040000  0  6 18 14 19  4 22 29
  23436803.480    -5785457.356 6  -4450228.67649  23436805.6484
  21737212.121    -3435924.892 7  -2600819.10049  21737214.2304
  24319848.527    -2349913.731 6  -3449002.47749  24319852.1374
  25865902.293       34178.376 4
  22569948.144    -8130606.898 7  -6224710.18449  22569950.5124
  22080745.387    -9546122.987 7  -7368623.08349  22080746.2544
 95  2 19 17 54  0.0040000  0  6 18 14 19  4 22 29
  23429242.254    -5825191.458 6  -4481190.29649  23429244.3524
  21751981.238    -3358312.077 7  -2540341.61449  21751983.3834
  24311631.707    -2393095.245 6  -3482650.35149  24311635.4104
  25872739.199       70102.143 5        -1.03757  25872742.2704
  22582370.363    -8065326.724 7  -6173842.53249  22582372.9064
  22080998.504    -9544793.390 7  -7367587.02849  22080999.4064
 95  2 19 17 54 30.0040000  0  6 18 14 19  4 22 29
  23421707.285    -5864787.099 6  -4512044.01449  23421709.9924
  21766864.910    -3280097.555 7  -2479395.25549  21766867.2664
  24303468.566    -2435990.357 5  -3516075.03149  24303472.4694
  25879676.902      106567.573 4     28413.49147  25879678.7424
  22594908.504    -7999437.447 7  -6122500.25049  22594911.0594
  22081301.559    -9543200.589 7  -7366345.87449  22081302.1334
 95  2 19 17 55  0.0040000  0  6 18 14 19  4 22 29
  23414202.629    -5904227.425 6  -4542776.71049  23414204.3404
  21781861.980    -3201287.448 7  -2417984.81849  21781864.3014
  24295357.629    -2478613.528 6  -3549287.82549  24295361.2734
  25886716.012        3720.08814     57234.95746  25886722.0354
  22607565.371    -7932925.218 7  -6070672.55849  22607568.0784
  22081659.934    -9541316.995 7  -7364878.13349  22081660.5664
 95  2 19 17 55 30.0040000  0  6 18 14 19  4 22 29
  23406727.621    -5943507.225 6  -4573384.32449  23406729.9774
  21796970.934    -3121889.348 7  -2356116.20249  21796973.2544
  24287297.793    -2520969.655 6  -3582292.55749  24287301.2154
  25893851.348       41213.387 5     86450.48348  25893854.3364
  22620341.777    -7865786.101 7  -6018356.37849  22620344.3914
  22082072.887    -9539148.030 7  -7363188.02349  22082073.5784
 95  2 19 17 56  0.0040000  0  6 18 14 19  4 22 29
  23399279.004    -5982650.086 6  -4603885.21749  23399281.0904
  21812188.254    -3041922.009 7  -2293804.01749  21812190.4224
  24279285.066    -2563074.384 5  -3615101.39549  24279287.9144
  25901073.887       79178.381 4    116033.57847  25901079.0904
  22633235.394    -7798029.574 7  -5965559.09749  22633238.1604
  22082534.543    -9536720.497 7  -7361296.43649  22082535.3524
 95  2 19 17 56 30.0040000  0  6 18 14 19  4 22 29
  23391865.441    -6021608.070 6  -4634242.05749  23391867.5394
  21827518.871    -2961359.183 7  -2231027.82049  21827521.0274
  24271326.910    -2604896.616 5  -3647690.07849  24271330.4614
  25908396.582      117650.926 4    146012.15047  25908401.6804
  22646255.418    -7729609.714 7  -5912244.93949  22646258.1484
  22083048.535    -9534019.965 7  -7359192.11849  22083049.2974
 95  2 19 17 57  0.0040000  0  6 18 14 19  4 22 29
  23384486.832    -6060385.514 6  -4664458.22249  23384489.0004
  21842959.543    -2880217.978 7  -2167800.93649  21842961.8404
  24263421.512    -2646437.690 6  -3680059.67649  24263425.6024
  25915817.355      156647.495 4    176399.08146  25915823.7194
  22659401.527    -7660526.336 7  -5858413.74949  22659403.9304
  22083608.988    -9531075.350 7  -7356897.60949  22083609.8554
 95  2 19 17 57 30.0040000  0  6 18 14 19  4 22 29
  23377137.855    -6099000.743 6  -4694547.97349  23377140.4454
  21858512.613    -2798485.556 7  -2104113.36849  21858514.9694
  24255570.004    -2687695.845 6  -3712208.82949  24255574.0474
  25923340.394      196179.387 5    207203.10946  25923347.0044
  22672671.207    -7590793.985 7  -5804076.86649  22672673.7974
  22084211.965    -9527907.784 7  -7354429.36949  22084212.8094
 95  2 19 17 58  0.0040000  0  6 18 14 19  4 22 29
  23369820.230    -6137456.115 6  -4724513.17249  23369822.3754
  21874180.223    -2716152.537 7  -2039957.80149  21874182.6844
  24247772.465    -2728675.742 6  -3744141.17349  24247776.1334
  25930966.918      236254.180 5    238430.19047  25930971.3364
  22686061.566    -7520426.534 7  -5749245.10149  22686064.1334
  22084854.684    -9524529.103 7  -7351796.62949  22084855.4344
 95  2 19 17 58 30.0040000  0  6 18 14 19  4 22 29
  23362530.582    -6175763.569 6  -4754363.09949  23362533.1844
  21889959.480    -2633233.699 7  -1975345.75349  21889961.7304
  24240022.238    -2769397.382 5  -3775872.25849  24240025.9774
  25938692.137      276859.035 4    270070.31247  25938695.3364
  22699570.613    -7449438.187 7  -5693929.51849  22699572.9804
  22085538.676    -9520936.114 7  -7348996.89349  22085539.4144
 95  2 19 17 59  0.0040000  0  6 18 14 19  4 22 29
  23355268.699    -6213924.736 6  -4784099.04549  23355270.5624
  21905853.918    -2549707.017 7  -1910260.05349  21905856.2274
  24232325.809    -2809846.032 6  -3807390.64049  24232330.1804
  25946521.176      317995.263 5    302124.52445  25946523.7194
  22713197.777    -7377825.727 7  -5638127.61249  22713200.3674
  22086268.785    -9517098.980 7  -7346006.92149  22086269.2424
 95  2 19 17 59 30.0040000  0  6 18 14 19  4 22 29
  23348036.027    -6251931.411 6  -4813714.59249  23348038.3364
  21921868.176    -2465552.350 7  -1844685.01849  21921870.3324
  24224681.309    -2850018.472 6  -3838693.79849  24224684.6484
  25954449.988      359660.649 5    334591.03246  25954454.8754
  22726944.410    -7305586.269 7  -5581837.13549  22726946.9414
  22087050.199    -9512991.826 7  -7342806.53749  22087050.7734
 95  2 19 18  0  0.0040000  0  6 18 14 19  4 22 29
  23340839.637    -6289750.665 6  -4843184.11749  23340841.7234
  21937999.465    -2380780.234 7  -1778628.85449  21938001.5274
  24217091.574    -2889903.092 6  -3869772.66749  24217094.8094
  25962478.691      401854.713 4    367469.51447  25962483.0274
  22740814.684    -7232696.311 7  -5525039.77349  22740817.2504
  22087888.160    -9508589.107 7  -7339375.84249  22087888.8284
 95  2 19 18  0 30.0040000  0  6 18 14 19  4 22 29
  23333680.019    -6327375.810 7  -4872502.38049  23333682.1294
  21954245.988    -2295405.078 7  -1712102.80049  21954248.2734
  24209557.590    -2929492.510 6  -3900621.51849  24209561.2584
  25970608.848      444573.857 4    400757.15647  25970613.7344
  22754810.543    -7159147.526 7  -5467729.04449  22754813.0624
  22088785.418    -9503873.287 7  -7335701.17149  22088786.1214
 95  2 19 18  1  0.0040000  0  5 18 14 19 22 29
  23326559.293    -6364792.814 6  -4901658.46049  23326561.4264
  21970606.605    -2209429.293 7  -1645108.71449  21970608.8914
  24202079.301    -2968789.420 6  -3931242.40649  24202083.0164
  22768928.988    -7084956.803 7  -5409918.10149  22768931.2974
  22089740.676    -9498853.596 7  -7331789.71849  22089741.3444
 95  2 19 18  1 30.0040000  0  6 18 14 19  4 22 29
  23319478.066    -6402006.048 6  -4930655.75649  23319480.2114
  21987077.410    -2122874.732 7  -1577663.63249  21987079.6374
  24194654.270    -3007810.322 6  -3961648.25149  24194657.5624
  25987164.160       42309.530 4
  22783165.332    -7010142.774 7  -5351621.46549  22783167.9804
  22090752.402    -9493536.206 7  -7327646.29849  22090753.2584
 95  2 19 18  2  0.0040000  0  6 18 14 19  4 22 29
  23312434.738    -6439018.284 6  -4959496.42149  23312437.3874
  22003655.746    -2035755.751 7  -1509778.74049  22003657.8794
  24187281.285    -3046553.762 6  -3991837.89449  24187284.4964
  25995588.855       86581.144 4      1155.04856  25995591.6094
  22797519.957    -6934710.133 7  -5292842.79249  22797522.4304
  22091819.934    -9487926.506 7  -7323275.09849  22091820.7194
 95  2 19 18  2 30.0040000  0  6 18 14 19  4 22 29
  23305422.574    -6475867.907 7  -4988210.39149  23305424.5904
  22020340.894    -1948074.422 7  -1441455.65749  22020343.2154
  24179961.371    -3085019.100 6  -4021810.83349  24179965.0624
  26004109.348      131356.506 4     36044.89347  26004112.6874
  22811987.910    -6858681.566 7  -5233599.75649  22811990.3714
  22092940.887    -9482036.284 7  -7318685.31449  22092941.5554
 95  2 19 18  3  0.0040000  0  6 18 14 19  4 22 29
  23298435.887    -6512582.061 7  -5016818.79949  23298438.2894
  22037130.848    -1859841.468 7  -1372702.74449  22037133.3554
  24172691.816    -3123220.271 6  -4051577.92549  24172695.6024
  26012724.402      176630.906 4     71323.62747  26012728.8554
  22826567.254    -6782066.076 7  -5173899.38549  22826569.4694
  22094113.730    -9475873.001 7  -7313882.75349  22094114.2114
 95  2 19 18  3 30.0040000  0  6 18 14 19  4 22 29
  23291471.457    -6549180.544 7  -5045337.06449  23291473.3324
  22054023.723    -1771070.806 7  -1303530.83249  22054026.1024
  24165472.004    -3161163.911 6  -4081144.35649  24165474.9924
  26021432.926      222400.556 3    106988.26046  26021437.2854
  22841260.637    -6704853.595 7  -5113733.82849  22841262.7814
  22095336.887    -9469446.404 7  -7308875.01049  22095337.3554
 95  2 19 18  4  0.0040000  0  5 18 14 19 22 29
  23284532.059    -6585649.828 7  -5073754.66549  23284534.0624
  22071017.832    -1681766.154 7  -1233942.82849  22071019.9884
  24158300.363    -3198849.913 6  -4110510.01949  24158303.7734
  22856069.629    -6627029.930 7  -5053092.01849  22856071.8914
  22096608.480    -9462763.325 7  -7303667.41549  22096608.8554
 95  2 19 18  4 30.0040000  0  6 18 14 19  4 22 29
  23277621.137    -6621963.526 7  -5102051.02149  23277622.9774
  22088117.934    -1591903.423 7  -1163919.94949  22088120.4534
  24151177.566    -3236274.444 6  -4139671.92349  24151181.9024
  26039144.551       45245.885 4
  22870995.855    -6548590.829 7  -4991970.64249  22870998.2934
  22097930.402    -9455815.921 7  -7298253.84949  22097930.8484
 95  2 19 18  5  0.0040000  0  6 18 14 19  4 22 29
  23270744.613    -6658102.148 7  -5130210.96749  23270746.0664
  22105322.645    -1501492.849 7  -1093470.18649  22105325.2584
  24144103.043    -3273458.269 6  -4168646.27549  24144106.4534
  26048145.223       92541.969 4     17242.93459  26048149.5704
  22886036.059    -6469554.606 7  -4930383.98549  22886038.5664
  22099298.379    -9448627.608 7  -7292652.56049  22099299.1294
 95  2 19 18  5 30.0040000  0  6 18 14 19  4 22 29
  23263903.262    -6694052.322 7  -5158224.06149  23263904.9964
  22122631.496    -1410534.376 7  -1022593.49449  22122634.1444
  24137073.715    -3310394.733 6  -4197427.90549  24137077.1374
  26057235.215      140312.151 4     54466.43747  26057239.2704
  22901185.027    -6389947.141 7  -4868352.20649  22901187.4064
  22100709.793    -9441211.026 7  -7286873.40149  22100710.6604
 95  2 19 18  6  0.0040000  0  6 18 14 19  4 22 29
  23257099.879    -6729805.389 7  -5186083.57049  23257101.5314
  22140048.441    -1319006.188 7   -951272.86649  22140051.1724
  24130097.879    -3347053.990 6  -4225993.52749  24130100.9264
  26066417.059      188556.309 5     92059.28048  26066420.5514
  22916440.090    -6309778.880 7  -4805883.44949  22916442.8444
  22102167.090    -9433551.970 7  -7280905.30049  22102167.8284
 95  2 19 18  6 30.0040000  0  6 18 14 19  4 22 29
  23250331.473    -6765372.394 7  -5213798.08149  23250333.9804
  22157574.293    -1226906.998 7   -879507.29249  22157576.9774
  24123177.605    -3383416.621 6  -4254328.00049  24123181.2854
  26075683.754      237258.700 4    130009.15747  26075686.3444
  22931801.590    -6229055.979 7  -4742982.50449  22931803.9104
  22103673.113    -9425638.384 7  -7274738.86449  22103673.8634
 95  2 19 18  7  0.0040000  0  6 18 14 19  4 22 29
  23243600.957    -6800741.347 7  -5241358.29149  23243602.9374
  22175209.121    -1134236.742 7   -807296.74549  22175211.6644
  24116319.144    -3419459.444 6  -4282413.27049  24116322.6134
  26085040.418      286426.074 5    168321.41547  26085043.4064
  22947273.941    -6147749.857 7  -4679627.09849  22947276.1914
  22105231.855    -9417446.379 7  -7268355.48149  22105232.6524
 95  2 19 18  7 30.0040000  0  6 18 14 19  4 22 29
  23236905.254    -6835925.830 7  -5268774.73849  23236907.9144
  22192951.605    -1041001.236 7   -734645.73549  22192953.9264
  24109519.855    -3455193.016 6  -4310257.56249  24109524.1684
  26094488.395      336074.706 4    207008.60446  26094492.4734
  22962857.730    -6065855.696 7  -4615813.47949  22962859.9924
  22106843.254    -9408978.253 7  -7261756.93649  22106844.0624
 95  2 19 18  8  0.0040000  0  6 18 14 19  4 22 29
  23230245.410    -6870925.463 7  -5296047.15349  23230247.5204
  22210797.676     -947217.677 7   -661567.67049  22210800.0904
  24102774.480    -3490636.087 6  -4337875.50249  24102778.7584
  26104029.332      386212.576 4    246077.04147  26104032.0514
  22978555.457    -5983364.168 7  -4551534.38349  22978557.6374
  22108508.145    -9400229.798 7  -7254939.95849  22108508.6024
 95  2 19 18  8 30.0040000  0  6 18 14 19  4 22 29
  23223618.902    -6905747.644 7  -5323181.29649  23223621.0824
  22228743.684     -852909.996 7   -588081.19949  22228746.5314
  24096078.316    -3525825.640 6  -4365295.89049  24096081.5394
  26113660.270      436829.851 3    285519.03148  26113664.9804
  22994364.785    -5900285.221 7  -4486797.55649  22994366.9064
  22110225.121    -9391207.117 7  -7247909.30249  22110225.6954
 95  2 19 18  9  0.0040000  0  6 18 14 19  4 22 29
  23217033.660    -6940353.274 7  -5350146.69549  23217035.7234
  22246798.621     -758032.606 7   -514150.80349  22246801.3284
  24089435.816    -3560734.278 6  -4392497.39649  24089438.9454
  26123393.934      487971.679 4    325369.76847  26123397.2504
  23010290.652    -5816592.526 7  -4421582.48349  23010293.0434
  22112001.902    -9381870.918 7  -7240634.34049  22112002.4774
 95  2 19 18  9 30.0040000  0  6 18 14 19  4 22 29
  23210477.301    -6974806.597 7  -5376993.42149  23210479.3284
  22264953.191     -662630.856 7   -439811.81049  22264955.7114
  24082838.035    -3595403.583 6  -4419512.40649  24082841.3284
  26133217.957      539598.252 3    365598.23747  26133222.5744
  23026322.582    -5732344.482 7  -4355934.67549  23026325.2544
  22113831.527    -9372254.795 7  -7233141.25249  22113832.0784
 95  2 19 18 10  0.0040000  0  6 18 14 19  4 22 29
  23203951.402    -7009101.553 7  -5403716.73849  23203953.0784
  22283210.184     -566691.108 7   -365053.60049  22283212.6684
  24076289.379    -3629814.474 6  -4446326.04549  24076294.4654
  26143136.793                       27857.27814
  23042462.754    -5647528.592 7  -4289844.39649  23042465.0394
  22115721.098    -9362325.501 7  -7225404.13849  22115721.6954
 95  2 19 18 10 30.0040000  0  6 18 14 19  4 22 29
  23197454.684    -7043239.733 7  -5430317.90049  23197456.6524
  22301573.394     -470190.541 7   -289858.38949  22301575.8674
  24069795.105    -3663947.688 6  -4472923.31249  24069799.1844
  26153150.082       80482.441 3      5489.58756  26153155.6724
  23058712.027    -5562137.839 7  -4223306.17149  23058714.5004
  22117669.598    -9352086.296 7  -7217425.54249  22117670.2194
 95  2 19 18 11  0.0040000  0  6 18 14 19  4 22 29
  23190989.215    -7077217.123 7  -5456793.76849  23190991.5004
  22320046.980     -373112.356 7   -214213.08849  22320049.3714
  24063354.918    -3697788.119 6  -4499292.45149  24063358.2344
  26163260.230      133610.992 3     46888.40448  26163263.5474
  23075072.949    -5476160.748 7  -4156311.05249  23075075.2934
  22119674.715    -9341549.373 7  -7209214.95249  22119675.5474
 95  2 19 18 11 30.0040000  0  6 18 14 19  4 22 29
  23184553.934    -7111033.871 7  -5483144.45749  23184556.4064
  22338626.801     -275473.073 7   -138130.56649  22338629.2854
  24056966.621    -3731355.921 6  -4525449.13349  24056970.3364
  26173462.855      187224.210 3     88664.94747  26173466.5474
  23091545.965    -5389595.825 7  -4088857.88649  23091548.5314
  22121733.168    -9330732.346 7  -7200786.10449  22121733.8944
 95  2 19 18 12  0.0040000  0  6 18 14 19  4 22 29
  23178156.387    -7144654.370 7  -5509342.22449  23178158.5664
  22357316.668     -177257.721 7    -61599.16149  22357319.2814
  24050632.191    -3764644.184 6  -4551388.00249  24050636.6564
  26183756.730      241316.481 3    130814.68046  26183762.0984
  23108133.676    -5302424.756 7  -4020932.40049  23108136.2194
  22123843.504    -9319641.024 7  -7192143.51849  22123844.2774
 95  2 19 18 12 30.0040000  0  6 18 14 19  4 22 29
  23171796.543    -7178074.755 7  -5535384.06049  23171798.6174
  22376113.855      -78479.667 7     15370.71849  22376116.4454
  24044350.121    -3797660.878 6  -4577115.26249  24044353.7544
  26194136.410      295864.463 3    173319.62747  26194141.2974
  23124835.270    -5214657.463 7  -3952542.32549  23124837.6254
  22126004.816    -9308285.111 7  -7183294.75649  22126005.4844
 95  2 19 18 13  0.0040000  0  6 18 14 19  4 22 29
  23165477.418    -7211281.334 7  -5561259.29449  23165479.6334
  22395013.668       20840.974 7     92763.39049  22395016.1994
  24038116.199    -3830419.307 6  -4602641.28449  24038119.4694
  26204601.332      350860.685 3    216173.75148  26204606.0784
  23141648.379    -5126304.162 7  -3883695.62049  23141650.9804
  22128220.230    -9296642.581 7  -7174222.65249  22128220.8984
 95  2 19 18 13 30.0040000  0  6 18 14 19  4 22 29
  23159200.309    -7244268.137 7  -5586963.27949  23159202.3484
  22414011.121      120672.167 7    170553.89549  22414013.6054
  24031930.488    -3862921.836 6  -4627967.89649  24031933.5234
  26215152.809      406308.834 3    259380.02048  26215157.1094
  23158569.137    -5037383.580 7  -3814406.87549  23158571.7734
  22130493.559    -9284695.976 7  -7164913.61049  22130494.0864
 95  2 19 18 14  0.0040000  0  6 18 14 19  4 22 29
  23152964.082    -7277039.346 7  -5612499.25849  23152966.2274
  22433103.949      221006.376 7    248736.35849  22433106.4104
  24025794.785    -3895165.114 6  -4653092.47649  24025798.9574
  26225791.207      462215.873 3    302943.92546  26225795.1684
  23175595.191    -4947913.443 7  -3744689.90749  23175597.6054
  22132823.668    -9272448.390 7  -7155370.03749  22132824.2424
 95  2 19 18 14 30.0040000  0  6 18 14 19  4 22 29
  23146768.176    -7309598.546 7  -5637870.04549  23146770.2734
  22452291.707      321838.457 7    327306.77449  22452294.1684
  24019708.715    -3927144.338 6  -4678011.30449  24019712.2544
  26236520.871      518598.860 3    346878.66847  26236526.4964
  23192721.504    -4857913.374 7  -3674559.99949  23192723.9774
  22135212.277    -9259899.796 7  -7145591.91249  22135212.8284
 95  2 19 18 15  0.0040000  0  5 18 14 19 22 29
  23140609.715    -7341962.144 7  -5663088.40749  23140611.7194
  22471571.715      423156.335 7    406255.73049  22471574.2464
  24013674.848    -3958857.361 6  -4702722.71649  24013678.2934
  23209946.121    -4767396.830 7  -3604027.64449  23209948.9924
  22137653.426    -9247070.473 7  -7135595.03549  22137653.9534
 95  2 19 18 15 30.0050000  0  6 18 14 19  4 22 29
  23134487.571    -7374135.555 7  -5688158.58149  23134489.6454
  22490948.040      524979.686 7    485598.55949  22490950.6064
  24007694.548    -3990287.041 6  -4727213.33249  24007697.5834
  26258252.235       53534.27313
  23227273.384    -4676342.232 7  -3533076.03549  23227276.1964
  22140147.079    -9233967.023 7  -7125384.55549  22140147.7354
 95  2 19 18 16  0.0050000  0  6 18 14 19  4 22 29
  23128398.727    -7406131.235 7  -5713090.26449  23128400.8254
  22510420.696      627309.504 7    565336.04149  22510423.4034
  24001766.032    -4021439.427 6  -4751487.88449  24001768.9974
  26269254.540      111344.323 3     24066.80758  26269257.7514
  23244703.329    -4584748.365 7  -3461704.20849  23244706.1884
  22142690.298    -9220602.312 7  -7114970.49249  22142690.8254
 95  2 19 18 16 30.0050000  0  6 18 14 19  4 22 29
  23122344.274    -7437947.363 7  -5737882.03449  23122346.2784
  22529992.431      730159.872 7    645479.14749  22529995.1024
  23995892.743    -4052304.451 6  -4775538.50449  23995895.4154
  26280342.196      169613.194 3     69471.10047  26280347.3994
  23262237.892    -4492601.947 7  -3389901.82349  23262240.4934
  22145289.095    -9206944.240 7  -7104327.83649  22145289.7634
 95  2 19 18 17  0.0050000  0  6 18 14 19  4 22 29
  23116321.290    -7469598.992 7  -5762545.62849  23116323.3534
  22549662.149      833522.683 7    726021.55749  22549664.6454
  23990069.626    -4082905.573 6  -4799383.48649  23990072.6734
  26291514.704      228316.761 3    115214.09748  26291520.1424
  23279880.313    -4399892.084 7  -3317660.38949  23279883.0444
  22147944.845    -9192989.421 7  -7093453.94949  22147945.4894
 95  2 19 18 17 30.0050000  0  6 18 14 19  4 22 29
  23110328.103    -7501091.805 7  -5787085.47749  23110330.0484
  22569426.962      937387.022 7    806954.76349  22569429.2824
  23984290.860    -4113269.582 6  -4823043.70549  23984294.2474
  26302761.165      287427.420 3    161274.29046  26302766.2164
  23297626.587    -4306634.361 7  -3244992.04849  23297629.2594
  22150655.852    -9178742.676 7  -7082352.58949  22150656.4384
 95  2 19 18 18  0.0050000  0  6 18 14 19  4 22 29
  23104366.001    -7532423.694 7  -5811499.91949  23104368.1924
  22589285.954     1041747.730 7    888274.75349  22589288.2274
  23978557.032    -4143404.950 6  -4846525.76849  23978560.4314
  26314085.649      346931.781 3    207641.30248  26314091.1454
  23315470.962    -4212860.076 7  -3171921.19749  23315473.7514
  22153421.845    -9164207.750 7  -7071026.67349  22153422.5714
 95  2 19 18 18 30.0050000  0  5 18 14 19 22 29
  23098436.110    -7563584.620 7  -5835781.14849  23098437.9744
  22609240.040     1146605.821 7    969982.31349  22609242.2904
  23972868.556    -4173298.160 6  -4869819.13849  23972872.0484
  23333414.290    -4118569.838 7  -3098448.30249  23333416.6924
  22156241.181    -9149391.410 7  -7059481.47149  22156241.9664
 95  2 19 18 19  0.0050000  0  5 18 14 19 22 29
  23092542.040    -7594560.101 7  -5859917.86649  23092544.1614
  22629287.626     1251957.658 7   1052074.61649  22629290.0174
  23967227.603    -4202939.952 6  -4892916.60649  23967230.9194
  23351456.337    -4023756.825 7  -3024568.04649  23351458.7514
  22159110.665    -9134311.005 7  -7047730.50749  22159111.4744
 95  2 19 18 19 30.0050000  0  5 18 14 19 22 29
  23086680.540    -7625361.514 7  -5883918.94949  23086682.9074
  22649422.306     1357769.076 7   1134525.02449  22649425.1304
  23961632.954    -4232339.797 6  -4915825.53649  23961636.3644
  23369589.329    -3928468.439 7  -2950317.37449  23369591.6384
  22162026.954    -9118985.940 7  -7035788.89849  22162027.9854
 95  2 19 18 20  0.0050000  0  5 18 14 19 22 29
  23080856.087    -7655968.429 7  -5907768.48149  23080858.5364
  22669647.884     1464053.406 7   1217343.94649  22669650.6384
  23956089.946    -4261466.941 6  -4938521.98449  23956093.7434
  23387817.954    -3832674.370 7  -2875672.66249  23387820.6734
  22164995.345    -9103387.629 7  -7023634.36649  22164996.1064
 95  2 19 18 20 30.0050000  0  5 18 14 19 22 29
  23075059.165    -7686431.042 7  -5931505.56049  23075061.4154
  22689954.243     1570761.694 7   1300493.21549  22689956.8804
  23950589.790    -4290371.864 6  -4961045.26049  23950593.6104
  23406137.579    -3736403.008 7  -2800656.04149  23406140.4384
  22168009.298    -9087549.256 7  -7011292.78249  22168009.9544
 95  2 19 18 21  0.0050000  0  5 18 14 19 22 29
  23069299.634    -7716698.929 7  -5955090.91049  23069301.7674
  22710348.204     1677934.082 7   1384004.12949  22710350.8884
  23945134.829    -4319037.106 6  -4983381.79049  23945137.9234
  23424553.274    -3639631.255 7  -2725249.50949  23424556.2744
  22171081.860    -9071403.107 7  -6998711.36249  22171082.6574
 95  2 19 18 21 30.0050000  0  5 18 14 19 22 29
  23063572.634    -7746792.505 7  -5978540.44049  23063574.8374
  22730827.407     1785552.987 7   1467862.97049  22730830.1734
  23939720.571    -4347488.229 6  -5005551.45749  23939723.5954
  23443057.962    -3542385.735 7  -2649473.80449  23443060.4234
  22174211.024    -9054960.380 7  -6985898.84849  22174211.7864
 95  2 19 18 22  0.0050000  0  5 18 14 19 22 29
  23057878.892    -7776714.987 7  -6001856.63649  23057880.6854
  22751394.001     1893629.797 7   1552078.62349  22751396.5674
  23934347.813    -4375722.833 6  -5027552.41149  23934350.8134
  23461656.267    -3444654.219 7  -2573319.40349  23461658.6104
  22177395.188    -9038226.346 7  -6972859.34249  22177395.6104
 95  2 19 18 22 30.0050000  0  6 18 14 28 19 22 29
  23052220.665    -7806448.919 7  -6025025.91249  23052222.6454
  22772051.704     2002187.125 7   1636668.70849  22772054.0714
  26360197.915       -5853.17513
  23929016.657    -4403737.849 6  -5049382.25349  23929019.7164
  23480343.876    -3346447.373 7  -2496794.61049  23480346.2784
  22180636.587    -9021192.244 7  -6959586.02249  22180637.1614
 95  2 19 18 23  0.0050000  0  6 18 14 28 19 22 29
  23046597.673    -7835999.616 7  -6048052.40749  23046599.3254
  22792797.204     2111205.504 7   1721618.05149  22792799.7354
  26353526.806      -40908.140 3
  23923728.587    -4431526.630 6  -5071035.81149  23923731.8214
  23499121.024    -3247774.565 7  -2419906.73249  23499123.4504
  22183932.446    -9003872.694 7  -6946090.27249  22183933.0094
 95  2 19 18 23 30.0050000  0  6 18 14 28 19 22 29
  23041001.095    -7865408.503 7  -6070968.40649  23041002.4424
  22813624.977     2220657.632 7   1806905.38149  22813628.0484
  26346872.181      -75881.059 5    -18159.25359  26346877.8174
  23918482.673    -4459094.848 6  -5092517.49849  23918485.7314
  23517986.290    -3148639.658 7  -2342658.78449  23517988.7164
  22187273.798    -8986313.145 7  -6932407.51049  22187274.6304
 95  2 19 18 24  0.0050000  0  6 18 14 28 19 22 29
  23035439.563    -7894635.144 7  -6093742.39249  23035441.0174
  22834542.884     2330580.364 7   1892559.40249  22834545.8494
  26340239.915     -110729.231 5    -45313.49549  26340245.9504
  23913286.431    -4486401.169 6  -5113795.11649  23913289.5484
  23536946.345    -3049002.808 7  -2265019.70349  23536948.9464
  22190668.313    -8968473.913 7  -6918506.81749  22190669.2164
 95  2 19 18 24 30.0050000  0  6 18 14 28 19 22 29
  23029909.587    -7923695.375 7  -6116386.70849  23029911.3104
  22855543.321     2440936.881 7   1978551.44449  22855546.2394
  26333626.977     -145480.657 5    -72392.37149  26333632.2984
  23908133.954    -4513474.013 6  -5134890.80349  23908137.4354
  23555996.259    -2948891.070 7  -2187010.58949  23555999.1184
  22194111.954    -8950379.219 7  -6904407.06149  22194112.5404
 95  2 19 18 25  0.0050000  0  6 18 14 28 19 22 29
  23024413.774    -7952576.212 7  -6138891.24149  23024415.0754
  22876622.790     2551710.152 7   2064868.23149  22876625.8024
  26327032.993     -180132.690 5    -99393.79649  26327038.5014
  23903028.243    -4540304.077 6  -5155797.30949  23903031.6774
  23575140.790    -2848290.605 7  -2108620.65849  23575143.3104
  22197603.267    -8932032.798 7  -6890111.16349  22197603.8644
 95  2 19 18 25 30.0050000  0  6 18 14 28 19 22 29
  23018957.587    -7981248.896 7  -6161233.57549  23018959.0874
  22897783.931     2662914.496 7   2151520.92149  22897786.9894
  26320460.087     -214670.929 5   -126306.54349  26320464.9274
  23897969.306    -4566890.235 6  -5176513.75449  23897972.7044
  23594376.970    -2747200.443 7  -2029849.14449  23594380.1344
  22201145.063    -8913420.363 7  -6875607.97749  22201145.8134
 95  2 19 18 26  0.0050000  0  6 18 14 28 19 22 29
  23013542.798    -8009702.584 7  -6183405.26849  23013544.5794
  22919023.907     2774530.875 7   2238494.67749  22919027.3064
  26313907.946     -249101.343 5   -153135.28349  26313913.3254
  23892955.360    -4593238.512 6  -5197044.85049  23892958.3134
  23613701.024    -2645651.124 7  -1950719.82749  23613703.6964
  22204737.767    -8894539.772 7  -6860895.83549  22204738.1534
 95  2 19 18 26 30.0050000  0  6 18 14 28 19 22 29
  23008169.782    -8037936.912 7  -6205406.02949  23008171.7744
  22940341.892     2886558.216 7   2325788.65849  22940345.1264
  26307378.548     -283413.508 5   -179871.89749  26307384.7594
  23887988.251    -4619341.745 6  -5217384.99249  23887991.2514
  23633114.962    -2543634.208 7  -1871226.16549  23633117.4584
  22208384.087    -8875378.570 7  -6845965.04149  22208384.6144
 95  2 19 18 27  0.0050000  0  6 18 14 28 19 22 29
  23002834.845    -8065972.633 7  -6227252.03049  23002836.7084
  22961737.712     2998992.065 7   2413399.39149  22961740.9584
  26300871.438     -317606.067 5   -206515.28249  26300876.2674
  23883065.282    -4645210.426 6  -5237542.37749  23883068.5874
  23652612.923    -2441169.716 7  -1791383.74449  23652615.8064
  22212083.478    -8855937.973 7  -6830816.52449  22212084.3564
 95  2 19 18 27 30.0050000  0  6 18 14 28 19 22 29
  22997533.524    -8093832.521 7  -6248961.02949  22997535.2244
  22983214.017     3111850.608 7   2501341.06649  22983217.0524
  26294390.251     -351669.123 5   -233057.81549  26294396.0054
  23878186.431    -4670846.678 6  -5257518.63449  23878190.3334
  23672195.306    -2338264.983 7  -1711198.26549  23672198.0954
  22215837.899    -8836208.203 7  -6815442.68049  22215838.6264
 95  2 19 18 28  0.0050000  0  6 18 14 28 19 22 29
  22992259.790    -8121543.611 7  -6270554.08049  22992261.7354
  23004770.313     3225131.251 7   2589611.64449  23004773.7004
  26287931.845     -385608.802 4   -259504.18248  26287937.0364
  23873348.868    -4696270.744 6  -5277329.56849  23873352.0674
  23691858.470    -2234935.016 7  -1630681.43949  23691860.5094
  22219646.610    -8816194.046 7  -6799847.23549  22219647.4544
 95  2 19 18 28 30.0050000  0  6 18 14 28 19 22 29
  22987017.009    -8149095.965 7  -6292023.43649  22987018.9424
  23026411.173     3338853.596 7   2678226.40049  23026414.5954
  26281499.227     -419408.449 4   -285841.40148  26281504.1854
  23868549.571    -4721492.058 6  -5296982.52049  23868552.9584
  23711605.407    -2131165.508 7  -1549822.11349  23711607.6454
  22223511.282    -8795885.730 7  -6784022.57449  22223512.1614
 95  2 19 18 29  0.0050000  0  6 18 14 28 19 22 29
  22981806.462    -8176475.357 7  -6313358.02149  22981808.4314
  23048136.751     3453022.786 7   2767189.35149  23048140.1384
  26275094.306     -453070.573 4   -312071.48549  26275100.5754
  23863786.673    -4746518.971 6  -5316483.98549  23863790.3884
  23731432.845    -2026968.898 7  -1468629.97749  23731435.4934
  22227430.868    -8775286.960 7  -6767971.57849  22227431.6534
 95  2 19 18 29 30.0050000  0  6 18 14 28 19 22 29
  22976634.415    -8203657.080 7  -6334538.56849  22976636.3604
  23069946.267     3567633.380 7   2856496.24949  23069950.0404
  26268714.727     -486592.669 5   -338192.44649  26268720.4814
  23859062.532    -4771346.543 6  -5335830.11649  23859065.9894
  23751345.649    -1922325.671 7  -1387089.83749  23751348.7204
  22231407.587    -8754390.334 7  -6751688.49449  22231408.3024
 95  2 19 18 30  0.0050000  0  6 18 14 28 19 22 29
  22971505.126    -8230610.550 7  -6355541.26649  22971506.9314
  23091839.024     3682677.481 7   2946140.95049  23091842.5994
  26262364.259     -519968.239 5   -364199.28249  26262370.4114
  23854379.165    -4795958.264 6  -5355008.05149  23854382.2594
  23771347.337    -1817218.298 7  -1305188.02049  23771349.7284
  22235441.938    -8733189.068 7  -6735168.02949  22235442.6534
 95  2 19 18 30 30.0050000  0  6 18 14 28 19 22 29
  22966416.454    -8257352.369 7  -6376379.03949  22966418.4464
  23113806.485     3798117.881 7   3036094.44749  23113809.8604
  26256036.563     -553215.197 5   -390105.87049  26256042.5284
  23849735.774    -4820355.687 6  -5374019.00349  23849739.1614
  23791434.829    -1711657.850 7  -1222933.15449  23791437.8174
  22239528.665    -8711711.036 7  -6718431.89749  22239529.7784
 95  2 19 18 31  0.0050000  0  6 18 14 28 19 22 29
  22961372.134    -8283859.698 7  -6397034.08449  22961374.1854
  23135853.938     3913977.867 7   3126374.90549  23135857.2784
  26249739.720     -586300.413 5   -415886.46649  26249744.2674
  23845143.688    -4844490.499 6  -5392825.32749  23845147.0174
  23811612.392    -1605620.448 7  -1140306.62849  23811615.4974
  22243673.806    -8689930.190 7  -6701459.80649  22243674.8024
 95  2 19 18 31 30.0050000  0  6 18 14 28 19 22 29
  22956365.173    -8310172.517 7  -6417537.57149  22956367.0364
  23157976.251     4030230.857 7   3216961.59149  23157979.5204
  26243471.696     -619243.977 5   -441556.66648  26243477.1454
  23840596.251    -4868385.824 6  -5411445.03649  23840599.8604
  23831877.313    -1499131.843 7  -1057328.52749  23831879.9274
  22247870.477    -8667874.865 7  -6684273.84149  22247871.3214
 95  2 19 18 32  0.0050000  0  6 18 14 28 19 22 29
  22951391.962    -8336305.836 7  -6437901.18749  22951393.7554
  23180174.899     4146885.160 7   3307860.99949  23180177.9934
  26237228.860     -652043.764 4   -467114.86447  26237231.6964
  23836094.665    -4892040.442 6  -5429877.16949  23836098.2164
  23852224.720    -1392206.854 7   -974010.38649  23852227.4974
  22252117.649    -8645557.040 7  -6666883.32949  22252118.5524
 95  2 19 18 32 30.0050000  0  6 18 14 28 19 22 29
  22946454.306    -8362253.741 7  -6458120.31949  22946456.4154
  23202453.454     4263959.446 7   3399087.66949  23202456.3724
  26231017.329     -684686.876 3   -492550.99247  26231022.7784
  23831640.485    -4915450.559 6  -5448118.79349  23831643.8724
  23872653.462    -1284849.783 7   -890355.55349  23872656.4974
  22256416.196    -8622969.186 7  -6649282.40349  22256416.7354
 95  2 19 18 33  0.0050000  0  6 18 14 28 19 22 29
  22941551.696    -8388016.052 7  -6478194.83149  22941553.7474
  23224812.009     4381454.766 7   3490642.41749  23224815.3494
  26224835.634     -717173.649 3   -517865.22446  26224840.3214
  23827230.720    -4938624.799 6  -5466176.61549  23827233.8724
  23893161.384    -1177080.323 7   -806379.38049  23893164.0794
  22260767.946    -8600099.043 7  -6631461.51949  22260768.3564
 95  2 19 18 33 30.0050000  0  6 18 14 28 19 22 29
  22936691.399    -8413558.928 7  -6498098.36149  22936693.1454
  23247256.173     4499399.320 7   3582547.20549  23247259.5714
  26218690.149     -749469.268 3   -543030.50048  26218693.8764
  23822870.423    -4961534.745 6  -5484028.49249  23822873.6224
  23913756.423    -1068853.303 7   -722046.66449  23913759.1534
  22265181.431    -8576906.792 7  -6613389.64149  22265182.0994
 95  2 19 18 34  0.0050000  0  6 18 14 28 19 22 29
  22931868.798    -8438900.076 7  -6517844.70449  22931870.8604
  23269775.907     4617742.937 7   3674762.95749  23269779.0014
  26212576.376     -781595.226 4   -568063.64849  26212581.6494
  23818558.071    -4984195.119 6  -5501685.89649  23818561.5404
  23934433.009     -960195.911 7   -637378.59549  23934436.3024
  22269653.556    -8553406.192 7  -6595077.49349  22269654.3644
 95  2 19 18 34 30.0050000  0  6 18 14 28 19 22 29
  22927085.181    -8464038.659 7  -6537433.19649  22927087.3724
  23292366.438     4736453.937 7   3767264.98949  23292369.4034
  26206495.548     -813554.559 5   -592966.91648  26206500.5404
  23814292.579    -5006612.402 6  -5519153.87449  23814295.7084
  23955190.118     -851118.961 7   -552383.60449  23955193.1184
  22274186.532    -8529585.300 7  -6576515.77049  22274187.3884
 95  2 19 18 35  0.0050000  0  6 18 14 28 19 22 29
  22922342.259    -8488960.831 7  -6556853.06249  22922344.3454
  23315027.032     4855536.277 7   3860056.38249  23315030.0444
  26200448.095     -845333.196 5   -617729.41349  26200452.8414
  23810073.642    -5028782.581 6  -5536429.30549  23810076.2904
  23976028.477     -741613.608 7   -467054.80049  23976031.3134
  22278784.438    -8505422.167 7  -6557687.36649  22278785.4114
 95  2 19 18 35 30.0050000  0  6 18 14 28 19 22 29
  22917640.509    -8513671.816 7  -6576108.36249  22917642.3954
  23337752.696     4974960.267 7   3953113.98549  23337756.1424
  26194431.001     -876952.573 5   -642367.79949  26194436.4274
  23805896.993    -5050732.553 6  -5553533.14849  23805899.6304
  23996945.118     -631694.164 7   -381403.31249  23996947.8134
  22283441.501    -8480948.529 7  -6538617.01249  22283442.4624
 95  2 19 18 36  0.0050000  0  6 18 14 28 19 22 29
  22912985.587    -8538132.779 7  -6595168.84149  22912987.4854
  23360548.688     5094755.398 7   4046460.79349  23360552.1344
  26188449.267     -908384.641 5   -666860.21849  26188454.7864
  23801767.642    -5072431.320 6  -5570441.24749  23801770.4544
  24017941.517     -521358.578 7   -295427.56449  24017944.2704
  22288163.212    -8456135.030 7  -6519281.81949  22288164.2314
 95  2 19 18 36 30.0050000  0  6 18 14 28 19 22 29
  22908375.399    -8562360.213 7  -6614047.34549  22908377.3454
  23383416.399     5214923.864 7   4140098.50349  23383419.2944
  26182500.306     -939648.674 5   -691221.71649  26182505.9664
  23797679.477    -5093913.949 6  -5587180.92749  23797682.6424
  24039010.899     -410637.871 7   -209151.72749  24039014.0874
  22292945.735    -8431005.536 7  -6499700.40749  22292946.4854
 95  2 19 18 37  0.0050000  0  6 18 14 28 19 22 29
  22903811.548    -8586342.944 7  -6632735.17649  22903813.4354
  23406359.048     5335487.510 7   4234044.14849  23406362.3064
  26176584.845     -970734.032 5   -715444.01949  26176589.8374
  23793632.837    -5115178.671 6  -5603750.80849  23793635.9424
  24060155.102     -299523.257 7   -122568.94349  24060158.3254
  22297788.118    -8405557.114 7  -6479870.48049  22297788.9034
 95  2 19 18 37 30.0050000  0  6 18 14 28 19 22 29
  22899289.798    -8610105.426 7  -6651251.38949  22899291.2394
  23429371.368     5456419.745 7   4328277.00749  23429374.6734
  26170700.446    -1001653.428 5   -739536.98049  26170705.4384
  23789626.149    -5136233.444 6  -5620157.10149  23789629.6774
  24081373.235     -188023.479 7    -35686.03849  24081376.0604
  22302686.384    -8379816.674 7  -6459813.00349  22302687.4504
 95  2 19 18 38  0.0050000  0  6 18 14 28 19 22 29
  22894809.196    -8633650.943 7  -6669598.53549  22894810.7084
  23452458.438     5577743.310 7   4422814.80049  23452461.9074
  26164853.040    -1032382.054 5   -763481.30849  26164857.4814
  23785661.829    -5157067.396 6  -5636391.32949  23785665.0754
  24102666.267      -76127.534 7     51505.56949  24102669.1144
  22307645.079    -8353761.144 7  -6439509.99849  22307645.9584
 95  2 19 18 38 30.0060000  0  6 18 14 28 19 22 29
  22890367.217    -8656992.344 7  -6687786.63649  22890368.8114
  23475618.709     5699451.755 7   4517652.49549  23475622.1664
  26159040.951    -1062921.362 5   -787278.12049  26159046.7404
  23781735.029    -5177701.731 6  -5652470.01149  23781738.4164
  24124036.084       36173.608 7    139012.91949  24124039.1194
  22312660.826    -8327401.220 7  -6418969.81349  22312661.6584
 95  2 19 18 39  0.0060000  0  6 18 14 28 19 22 29
  22885966.350    -8680119.831 7  -6705808.04049  22885968.0374
  23498851.795     5821540.608 7   4612786.61649  23498855.3574
  26153268.381    -1093257.288 5   -810916.46449  26153273.3734
  23777849.998    -5198117.419 6  -5668378.31449  23777853.5144
  24145484.053      148881.066 7    226836.86449  24145486.9824
  22317734.092    -8300741.380 7  -6398195.92149  22317734.9944
 95  2 19 18 39 30.0060000  0  6 18 14 28 19 22 29
  22881607.068    -8703027.537 7  -6723658.19549  22881608.4514
  23522158.959     5944021.055 7   4708225.88149  23522162.4634
  26147535.506    -1123382.475 5   -834390.60349  26147541.1894
  23774009.545    -5218300.113 6  -5684105.06449  23774012.9554
  24167008.162      261992.335 7    314975.47349  24167011.1854
  22322864.443    -8273780.505 7  -6377187.46249  22322865.4044
 95  2 19 18 40  0.0060000  0  6 18 14 28 19 22 29
  22877292.678    -8725699.171 7  -6741324.39849  22877294.2254
  23545542.631     6066902.087 7   4803977.27549  23545546.1584
  26141844.920    -1153290.158 5   -857695.23949  26141849.7954
  23770213.529    -5238247.042 6  -5699648.10149  23770216.7404
  24188607.928      375499.527 7    403422.59549  24188610.7754
  22328055.420    -8246501.749 7  -6355931.29749  22328056.4284
 95  2 19 18 40 30.0060000  0  6 18 14 28 19 22 29
  22873026.342    -8748119.366 7  -6758794.67049  22873028.0534
  23568999.514     6190169.902 6   4900030.06949  23569003.0294
  26136193.795    -1182982.706 5   -880832.26149  26136199.2914
  23766465.654    -5257942.764 6  -5714995.38449  23766468.7714
  24210281.537      489393.945 7    492171.45249  24210284.7364
  22333306.100    -8218909.420 7  -6334430.78649  22333307.1434
 95  2 19 18 41  0.0060000  0  6 18 14 28 19 22 29
  22868805.396    -8770301.684 7  -6776079.58449  22868806.8504
  23592523.982     6313792.061 6   4996358.96449  23592527.6154
  26130581.584    -1212476.766 5   -903814.63549  26130587.1854
  23762762.256    -5277403.711 6  -5730159.73249  23762765.1154
  24232026.021      603662.057 7    581211.49449  24232029.1394
  22338615.576    -8191008.344 7  -6312689.69749  22338616.3614
 95  2 19 18 41 30.0060000  0  6 18 14 28 19 22 29
  22864634.217    -8792221.740 7  -6793160.14049  22864635.8814
  23616117.443     6437775.974 6   5092969.74949  23616120.7254
  26125012.748    -1241742.595 5   -926619.12849  26125017.9284
  23759107.107    -5296612.631 6  -5745127.68949  23759109.9434
  24253849.162      718341.893 7    670572.35849  24253852.3504
  22343993.521    -8162746.860 7  -6290667.76649  22343994.5064
 95  2 19 18 42  0.0060000  0  6 18 14 28 19 22 29
  22860516.045    -8813861.712 7  -6810022.45249  22860517.5684
  23639780.928     6562126.089 6   5189865.87949  23639784.5024
  26119491.256    -1270762.794 5   -949232.23549  26119496.2484
  23755500.787    -5315566.670 7  -5759897.04349  23755503.4004
  24275753.685      833452.914 6    760269.21249  24275756.8034
  22349444.615    -8134101.023 7  -6268346.33949  22349445.7994
 95  2 19 18 42 30.0060000  0  6 18 14 28 19 22 29
  22856453.912    -8835207.641 7  -6826655.63549  22856455.7174
  23663515.154     6686851.524 6   5287054.47349  23663518.3894
  26114017.787    -1299522.156 5   -971642.07149  26114023.1314
  23751943.584    -5334255.528 6  -5774459.76049  23751946.5024
  24297743.303      949006.782 6    850311.14949  24297746.0924
  22354969.990    -8105065.477 7  -6245721.24749  22354970.8104
 95  2 19 18 43  0.0060000  0  6 18 14 28 19 22 29
  22852448.990    -8856253.983 7  -6843055.37149  22852450.8894
  23687323.545     6811965.590 6   5384545.90149  23687327.0144
  26108597.537    -1328006.619 5   -993837.72749  26108602.8344
  23748437.928    -5352677.579 6  -5788814.57349  23748441.1154
  24319817.232     1065006.729 6    940700.66249  24319820.3264
  22360571.701    -8075627.589 7  -6222782.63749  22360572.6504
 95  2 19 18 43 30.0060000  0  6 18 14 28 19 22 29
  22848500.545    -8877004.025 7  -6859224.22649  22848502.1974
  23711206.186     6937470.202 6   5482341.65149  23711209.8894
  26103227.803    -1356225.029 5  -1015826.05849  26103233.3574
  23744985.498    -5370822.478 7  -5802953.42249  23744988.1234
  24341970.350     1181423.686 6   1031415.13149  24341973.7134
  22366244.701    -8045816.206 7  -6199552.99349  22366245.7094
 95  2 19 18 44  0.0060000  0  6 18 14 28 19 22 29
  22844607.592    -8897460.518 7  -6875164.35149  22844609.5024
  23735163.396     7063364.667 6   5580441.17649  23735166.9944
  26097907.037    -1384184.088 5  -1037612.33449  26097911.9244
  23741586.053    -5388685.581 7  -5816872.69549  23741588.8654
  24364199.100     1298234.879 7   1122436.79049  24364201.9714
  22371981.920    -8015667.089 7  -6176060.18349  22371982.7994
 95  2 19 18 44 30.0060000  0  6 18 14 28 19 22 29
  22840767.654    -8917640.349 7  -6890888.89049  22840769.4354
  23759191.529     7189632.539 6   5678831.67249  23759194.9634
  26092634.232    -1411893.436 5  -1059204.00149  26092638.6864
  23738240.084    -5406268.547 7  -5830573.68249  23738243.0144
  24386499.287     1415424.662 6   1213753.45949  24386502.3464
  22377779.982    -7985197.043 7  -6152317.29649  22377781.0494
 95  2 19 18 45  0.0060000  0  6 18 14 28 19 22 29
  22836976.162    -8937565.508 7  -6906414.99049  22836977.9084
  23783286.818     7316254.741 6   5777498.26049  23783290.2174
  26087405.279    -1439369.204 5  -1080613.62649  26087410.9514
  23734942.975    -5423596.500 7  -5844075.95949  23734945.7644
  24408871.185     1532988.547 6   1305361.63049  24408873.9284
  22383636.732    -7954419.526 7  -6128334.82649  22383637.8934
 95  2 19 18 45 30.0060000  0  6 18 14 28 19 22 29
  22833234.810    -8957225.099 7  -6921734.15849  22833236.5334
  23807451.725     7443241.166 7   5876448.65649  23807455.3344
  26082224.006    -1466595.847 5  -1101829.15649  26082229.0924
  23731693.678    -5440669.338 7  -5857379.44449  23731696.7484
  24431318.857     1650952.717 6   1397281.70449  24431321.9514
  22389554.334    -7923323.647 7  -6104104.28349  22389555.3184
 95  2 19 18 46  0.0060000  0  6 18 14 28 19 22 29
  22829537.740    -8976654.011 7  -6936873.57949  22829539.4754
  23831679.482     7570559.437 6   5975657.64149  23831683.1274
  26077086.803    -1493593.633 5  -1122866.35949  26077091.9354
  23728483.701    -5457538.480 7  -5870524.21049  23728486.9004
  24453838.576     1769293.774 6   1489495.46249  24453841.5064
  22395531.318    -7891914.088 7  -6079629.31649  22395532.1154
 95  2 19 18 46 30.0060000  0  7 18 14 28 19 31 22 29
  22825881.248    -8995868.252 7  -6951845.71649  22825883.2284
  23855967.935     7698196.821 6   6075115.28849  23855971.4634
  26071991.810    -1520368.751 5  -1143730.06249  26071996.3344
  23725307.342    -5474229.404 7  -5883530.10349  23725310.1314
  26530823.904       -8489.26513
  24476427.084     1887995.908 6   1581990.57449  24476430.6704
  22401570.139    -7860179.550 7  -6054901.11449  22401571.0414
 95  2 19 18 47  0.0060000  0  8 18 14 28 19 31 22 27 29
  22822270.318    -9014844.252 7  -6966632.21149  22822272.1354
  23880321.217     7826172.022 6   6174836.16949  23880324.5924
  26066944.279    -1546892.473 5  -1164397.90249  26066948.9084
  23722169.076    -5490723.115 7  -5896382.32049  23722171.9244
  26521130.795      -59426.757 4
  24499086.748     2007073.717 6   1674778.42849  24499089.9944
  26903277.826       -7538.19813
  22407675.467    -7828095.140 7  -6029900.29149  22407676.6034
 95  2 19 18 47 30.0060000  0  8 18 14 28 19 31 22 27 29
  22818704.271    -9033584.174 7  -6981234.74349  22818706.3694
  23904731.529     7954451.774 6   6274794.36049  23904735.5614
  26061942.131    -1573179.421 5  -1184881.22949  26061946.7714
  23719067.568    -5507020.831 7  -5909081.81849  23719069.9944
  26511429.881     -110403.104 3    -25158.86556  26511437.6434
  24521810.037     2126484.790 6   1767825.96549  24521813.4364
  26894684.435      -52709.315 3
  22413843.381    -7795682.364 7  -6004643.59249  22413844.5884
 95  2 19 18 48  0.0060000  0  8 18 14 28 19 31 22 27 29
  22815186.506    -9052071.058 7  -6995640.10649  22815188.4394
  23929200.443     8083036.559 6   6374990.23449  23929204.4514
  26056987.068    -1599218.179 5  -1205171.16549  26056990.6544
  23716007.560    -5523101.188 7  -5921611.94449  23716010.2684
  26501720.256     -161426.049 3    -64916.79946  26501728.9784
  24544596.717     2246228.917 6   1861133.03049  24544599.2834
  26886110.264      -97771.668 3    -19885.25257  26886117.0724
  22420076.053    -7762931.086 7  -5979123.13049  22420077.1194
 95  2 19 18 48 30.0060000  0  8 18 14 28 19 31 22 27 29
  22811719.303    -9070290.371 7  -7009836.98049  22811721.0494
  23953728.178     8211929.576 6   6475426.28649  23953732.0924
  26052081.256    -1624997.445 5  -1225258.88049  26052085.9084
  23712994.084    -5538934.115 7  -5933949.26249  23712997.3424
  26492000.482     -212509.454 3   -104721.88245  26492005.7684
  24567448.436     2366313.621 6   1954705.47249  24567451.5884
  26877556.928     -142714.860 3    -54905.73646  26877562.4714
  22426372.545    -7729842.585 7  -5953339.90049  22426373.7054
 95  2 19 18 49  0.0060000  0  8 18 14 28 19 31 22 27 29
  22808302.771    -9088244.351 7  -7023827.09749  22808304.2954
  23978309.506     8341104.003 6   6576081.63049  23978313.2214
  26047222.240    -1650533.749 5  -1245157.28149  26047227.4904
  23710026.701    -5554530.135 7  -5946101.97749  23710029.5964
  26482264.217     -263662.422 2   -144581.15146  26482270.2754
  24590360.193     2486717.895 6   2048526.92849  24590363.6974
  26869019.404     -187574.608 3    -89861.26547  26869024.0924
  22432728.795    -7696439.978 7  -5927311.91349  22432729.7564
 95  2 19 18 49 30.0060000  0  8 18 14 28 19 31 22 27 29
  22804936.857    -9105932.374 7  -7037609.97049  22804938.4754
  24002944.717     8470560.659 6   6676956.88449  24002948.5024
  26042408.326    -1675829.434 5  -1264868.18649  26042413.6004
  23707102.842    -5569894.627 7  -5958074.29249  23707105.7954
  26472519.896     -314875.690 3   -184487.32848  26472527.5294
  24613331.350     2607434.021 6   2142591.38149  24613335.0644
  26860491.928     -232367.089 2   -124764.33948  26860499.3504
  22439146.592    -7662715.134 7  -5901032.82849  22439147.5414
 95  2 19 18 50  0.0060000  0  8 18 14 28 19 31 22 27 29
  22801611.873    -9123404.477 7  -7051224.60049  22801613.5964
  24027631.435     8600291.175 6   6778045.53749  24027635.5604
  26037636.373    -1700905.588 5  -1284408.04649  26037641.9864
  23704217.654    -5585057.076 7  -5969889.16549  23704220.7954
  26462759.810     -366166.224 3   -224453.81849  26462764.9904
  24636357.779     2728437.710 6   2236879.91249  24636361.1894
  26851979.514     -277116.501 3   -159633.93647  26851985.4324
  22445622.842    -7628680.444 7  -5874512.30449  22445624.0724
 95  2 19 18 50 30.0060000  0  8 18 14 28 19 31 22 27 29
  22798326.217    -9140670.147 7  -7064678.37649  22798327.6934
  24052368.248     8730286.381 6   6879340.43949  24052372.0104
  26032904.693    -1725771.114 5  -1303783.74849  26032909.7564
  23701367.131    -5600034.526 7  -5981559.88649  23701370.2484
  26452986.131     -417527.299 3   -264475.23548  26452993.8224
  24659435.459     2849708.749 6   2331376.77549  24659438.5534
  26843470.709     -321839.618 3   -194482.98749  26843476.5214
  22452158.818    -7594334.867 7  -5847749.53549  22452159.9674
 95  2 19 18 51  0.0060000  0  8 18 14 28 19 31 22 27 29
  22795082.678    -9157716.343 7  -7077961.13149  22795084.4004
  24077157.685     8860553.563 6   6980847.27549  24077161.8464
  26028214.248    -1750415.890 5  -1322987.44549  26028220.0374
  23698549.514    -5614841.983 7  -5993098.14349  23698552.5374
  26443201.842     -468944.494 3   -304540.36449  26443207.6194
  24682565.482     2971258.581 6   2426090.88849  24682568.8694
  26834964.404     -366536.967 3   -229312.01347  26834970.0184
  22458755.811    -7559667.301 7  -5820735.85949  22458757.0184
 95  2 19 18 51 30.0060000  0  8 18 14 28 19 31 22 27 29
  22791882.139    -9174535.517 7  -7091066.98649  22791883.9084
  24102000.826     8991104.224 6   7082574.99449  24102004.9864
  26023570.311    -1774825.695 5  -1342008.03549  26023575.6074
  23695766.787    -5629465.423 7  -6004493.01349  23695769.7644
  26433406.334     -520417.669 3   -344649.16646  26433412.7914
  24705752.748     3093109.539 6   2521039.63649  24705755.8074
  26826466.693     -411193.902 3   -264109.57649  26826472.9164
  22465417.350    -7524660.552 7  -5793457.88549  22465418.6154
 95  2 19 18 52  0.0060000  0  8 18 14 28 19 31 22 27 29
  22788731.412    -9191093.644 7  -7103969.42449  22788732.8654
  24126902.271     9121961.625 6   7184541.73649  24126906.3384
  26018975.201    -1798972.914 5  -1360823.99849  26018981.2954
  23693024.115    -5643879.019 7  -6015724.36949  23693027.0804
  26423603.498     -571930.283 3   -384788.73549  26423610.2484
  24729004.873     3215299.612 6   2616252.63849  24729008.2604
  26817980.467     -455780.919 3   -298852.61247  26817985.9754
  22472145.373    -7489304.891 7  -5765908.02849  22472146.2754
 95  2 19 18 52 30.0060000  0  8 18 14 28 19 31 22 27 29
  22785637.186    -9207352.550 7  -7116638.70749  22785639.0374
  24151862.092     9253127.994 6   7286749.22949  24151866.1584
  26014432.475    -1822841.424 5  -1379422.83949  26014438.0884
  23690321.834    -5658079.321 7  -6026789.52549  23690324.7404
  26413796.014     -623471.910 3   -424950.85349  26413802.0844
  24752324.436     3337844.308 6   2711741.95849  24752327.8344
  26809510.615     -500291.348 3   -333536.07449  26809516.1584
  22478939.365    -7453602.657 7  -5738088.12349  22478940.4084
 95  2 19 18 53  0.0060000  0  8 18 14 28 19 31 22 27 29
  22782596.725    -9223331.035 7  -7129089.47349  22782598.5534
  24176876.365     9384577.539 6   7389177.38349  24176880.4204
  26009940.529    -1846449.317 5  -1397818.59149  26009945.3574
  23687658.146    -5672078.592 7  -6037698.03049  23687661.1004
  26403977.740     -675067.372 4   -465154.92649  26403984.3384
  24775707.662     3460725.804 6   2807493.72749  24775710.8964
  26801053.084           0.52414   -368177.90346  26801058.0884
  22485793.334    -7417583.362 7  -5710021.15149  22485794.7404
 95  2 19 18 53 30.0060000  0  7 18 14 28 19 22 27 29
  22779604.209    -9239057.155 7  -7141343.59249  22779606.0724
  24201939.639     9516287.279 6   7491808.28349  24201943.7754
  26005493.826    -1869814.101 5  -1416024.88349  26005498.6894
  23685029.646    -5685888.355 7  -6048458.87049  23685032.5644
  24799148.764     3583908.214 6   2903479.96949  24799152.1504
  26792600.654                      -34044.77414
  22492704.396    -7381266.713 7  -5681722.47649  22492705.6504
 95  2 19 18 54  0.0060000  0  8 18 14 28 19 31 22 27 29
  22776663.834    -9254508.194 7  -7153383.36649  22776665.5334
  24227058.131     9648285.201 6   7594663.74149  24227061.9864
  26001100.896    -1892903.916 5  -1434016.91149  26001105.9474
  23682440.342    -5699497.006 7  -6059062.99449  23682443.2604
  26384319.709      -49931.102 5
  24822649.084     3707401.965 6   2999708.81449  24822652.9284
  26784161.779                      -78389.803 3
  22499675.740    -7344631.587 7  -5653175.64149  22499677.0184
 95  2 19 18 54 30.0060000  0  8 18 14 28 19 31 22 27 29
  22773770.943    -9269711.115 7  -7165229.80249  22773772.9244
  24252225.529     9780539.724 6   7697719.16249  24252229.5724
  25996755.217    -1915735.264 5  -1451807.54549  25996760.4554
  23679883.607    -5712931.865 7  -6069531.70349  23679886.3734
  26374486.826     -101599.007 5    -26841.17559  26374492.9434
  24846202.428     3831176.923 6   3096156.79349  24846205.8964
  26775729.740     -122690.066 3    -27612.92557  26775732.7874
  22506705.678    -7307688.684 7  -5624388.97449  22506707.0254
 95  2 19 18 55  0.0060000  0  8 18 14 28 19 31 22 27 29
  22770923.811    -9284672.995 7  -7176888.40749  22770925.7324
  24277440.271     9913044.647 6   7800969.68249  24277444.5144
  25992461.279    -1938303.578 5  -1469393.21249  25992466.3894
  23677361.920    -5726182.253 7  -6079856.66949  23677364.7914
  26364653.935     -153271.193 5    -67105.13349  26364659.5604
  24869810.131     3955234.144 6   3192824.70749  24869813.6704
  26767313.795     -166923.907 3    -62080.81848  26767319.3964
  22513798.467    -7270415.783 7  -5595345.17049  22513799.7684
 95  2 19 18 55 30.0060000  0  8 18 14 28 19 31 22 27 29
  22768122.764    -9299392.122 7  -7188357.86549  22768124.3464
  24302704.060    10045807.874 6   7904421.48749  24302708.7254
  25988218.959    -1960597.857 5  -1486765.33449  25988223.1314
  23674876.256    -5739244.835 7  -6090035.28749  23674879.3034
  26354818.943     -204955.332 5   -107378.40149  26354825.9554
  24893471.053     4079574.496 6   3289713.23649  24893474.8264
  26758914.404     -211070.141 3    -96480.42147  26758920.4284
  22520955.654    -7232805.385 7  -5566038.37649  22520956.5924
 95  2 19 18 56  0.0060000  0  8 18 14 28 19 31 22 27 29
  22765371.975    -9313847.193 7  -7199621.56649  22765373.8854
  24328017.631    10178832.378 6   8008076.87649  24328021.9554
  25984029.936    -1982605.478 5  -1503914.08949  25984034.8574
  23672429.201    -5752104.698 7  -6100055.94549  23672432.1784
  26344978.264     -256668.658 5   -147674.45249  26344984.3814
  24917187.842     4204206.499 6   3386829.02149  24917190.7134
  26750530.912     -255123.337 3   -130807.54949  26750534.7564
  22528180.061    -7194839.968 7  -5536454.95249  22528181.1274
 95  2 19 18 56 30.0060000  0  8 18 14 28 19 31 22 27 29
  22762673.818    -9328025.016 7  -7210669.22149  22762675.7874
  24353380.037    10312111.743 6   8111930.85249  24353384.5604
  25979897.037    -2004325.770 5  -1520838.95849  25979901.5494
  23670023.771    -5764744.194 7  -6109904.88549  23670027.2054
  26335130.170     -308416.206 4   -187997.13949  26335136.1234
  24940960.139     4329131.564 6   3484173.16749  24940963.1274
  26742164.084     -299081.951 3   -165060.93449  26742169.9324
  22535475.006    -7156505.217 7  -5506583.72349  22535476.1434
 95  2 19 18 57  0.0060000  0  8 18 14 28 19 31 22 27 29
  22760032.881    -9341905.154 7  -7221484.92549  22760034.6854
  24378794.654    10445663.689 6   8215997.24749  24378799.1314
  25975821.607    -2025744.928 5  -1537529.17149  25975826.4714
  23667665.139    -5777139.138 7  -6119563.25649  23667668.2914
  26325280.951     -360178.911 5   -228331.67949  26325286.4474
  24964788.271     4454347.888 6   3581744.26649  24964791.7054
  26733818.084     -342935.195 3   -199232.23147  26733823.6394
  22542842.490    -7117787.821 7  -5476414.34149  22542843.7444
 95  2 19 18 57 30.0060000  0  8 18 14 28 19 31 22 27 29
  22757448.318    -9355486.806 7  -7232068.03849  22757450.3464
  24404261.381    10579491.754 6   8320278.78849  24404265.5414
  25971802.514    -2046865.657 5  -1553986.83049  25971807.5414
  23665350.584    -5789301.839 7  -6129040.67349  23665353.5494
  26315428.771     -411947.347 4   -268670.70548  26315434.7834
  24988669.779     4579845.372 6   3679534.44849  24988673.1194
  26725489.943     -386707.382 3   -233340.39749  26725496.4244
  22550281.342    -7078698.185 7  -5445954.89949  22550282.6314
 95  2 19 18 58  0.0060000  0  8 18 14 28 19 31 22 27 29
  22754920.443    -9368771.199 7  -7242419.51749  22754922.2834
  24429777.357    10713577.945 6   8424761.47649  24429781.8344
  25967838.615    -2067694.941 5  -1570217.37549  25967842.7404
  23663078.318    -5801242.944 7  -6138345.40649  23663080.8264
  26305581.990     -463696.375 5   -308994.57449  26305588.0844
  25012604.053     4705620.988 6   3777541.35549  25012607.8504
  26717173.232     -430420.660 4   -267402.66348  26717179.3854
  22557789.006    -7039243.796 7  -5415211.23549  22557790.1434
 95  2 19 18 58 30.0060000  0  8 18 14 28 19 31 22 27 29
  22752450.787    -9381748.806 7  -7252531.94149  22752452.7094
  24455345.279    10847940.781 6   8529459.72249  24455349.6854
  25963933.131    -2088215.542 5  -1586207.43649  25963938.0884
  23660852.428    -5812942.522 7  -6147461.94849  23660854.8894
  26295745.756     -515387.119 5   -349273.03548  26295751.0294
  25036594.693     4831693.727 6   3875779.78749  25036597.8224
  26708867.021                      -14532.38313
  22565366.943    -6999423.385 7  -5384182.36349  22565368.3264
 95  2 19 18 59  0.0060000  0  8 18 14 28 19 31 22 27 29
  22750038.600    -9394425.176 7  -7262409.64149  22750040.2284
  24480965.115    10982572.017 6   8634367.11449  24480969.5104
  25960087.896    -2108424.810 5  -1601954.88049  25960093.0534
  23658669.115    -5824413.983 7  -6156400.72449  23658672.0454
  26285919.732     -567019.407 4   -389505.91547  26285926.4714
  25060641.709     4958057.484 6   3974244.99449  25060644.6034
  26700578.186                      -58083.876 2
  22573010.428    -6959255.141 7  -5352882.44549  22573011.8814
 95  2 19 18 59 30.0060000  0  8 18 14 28 19 31 22 27 29
  22747683.139    -9406803.482 7  -7272055.07649  22747684.8964
  24506631.935    11117453.663 6   8739469.63149  24506636.6704
  25956301.771    -2128319.315 5  -1617457.04849  25956306.4594
  23656528.451    -5835663.775 7  -6165166.77349  23656531.0534
  26276103.537                      -18908.31314
  25084744.365     5084718.950 6   4072942.17949  25084748.0334
  26692310.506     -101543.457 3    -12406.78057  26692316.0724
  22580719.975    -6918741.584 7  -5321313.45449  22580721.2174
 95  2 19 19  0  0.0060000  0  8 18 14 28 19 31 22 27 29
  22745384.537    -9418881.630 7  -7281466.62649  22745386.1784
  24532344.060    11252568.857 6   8844754.13149  24532348.1744
  25952577.209    -2147893.105 5  -1632709.32149  25952582.2014
  23654430.795    -5846686.910 7  -6173756.21449  23654433.2684
  26266293.553                      -70458.654 3
  25108902.654     5211671.664 6   4171866.30049  25108906.1004
  26684059.881     -144902.026 3    -46192.51048  26684065.0254
  22588494.881    -6877884.736 7  -5289476.95849  22588496.0884
 95  2 19 19  0 30.0060000  0  7 18 14 28 19 22 27 29
  22743144.295    -9430652.973 7  -7290639.11249  22743145.8774
  24558101.451    11387924.700 6   8950226.14549  24558106.2094
  25948915.279    -2167134.630 5  -1647702.70549  25948920.8464
  23652375.568    -5857485.077 7  -6182170.34949  23652378.4754
  25133116.889     5338918.201 6   4271019.37149  25133120.6394
  26675829.248     -188145.770 3    -79888.87747  26675833.9714
  22596337.068    -6836674.026 7  -5257364.73549  22596338.1234
 95  2 19 19  1  0.0060000  0  8 18 14 28 19 31 22 27 29
  22740965.217    -9442104.747 7  -7299562.57649  22740966.9754
  24583905.693    11523530.316 6   9055892.78749  24583910.6624
  25945321.584    -2186023.116 5  -1662420.96549  25945326.8934
  23650364.850    -5868053.183 7  -6190405.22749  23650367.6034
  26246694.936      -49753.401 4
  25157388.029     5466462.519 6   4370404.47649  25157391.3224
  26667624.381     -231258.820 3   -113483.39948  26667627.5684
  22604253.779    -6795070.536 7  -5224946.45249  22604254.9164
 95  2 19 19  1 30.0070000  0  8 18 14 28 19 31 22 27 29
  22738842.300    -9453262.267 7  -7308256.75349  22738844.3974
  24609757.112    11659375.514 6   9161746.12649  24609761.3084
  25941790.823    -2204577.544 5  -1676878.93549  25941795.5344
  23648395.808    -5878401.369 7  -6198468.74049  23648398.3514
  26236905.683     -101195.177 4     -4005.72858  26236912.0464
  25181712.550     5594289.772 6   4470010.06649  25181716.4764
  26659441.581     -274274.408 5   -147001.96549  26659445.4954
  22612242.948    -6753086.512 7  -5192231.64049  22612244.2264
 95  2 19 19  2  0.0070000  0  7 18 14 28 19 22 27 29
  22736775.698    -9464123.505 7  -7316720.06049  22736777.2454
  24635653.737    11795464.677 6   9267789.55949  24635658.0154
  25938322.589    -2222799.341 5  -1691077.70349  25938328.2494
  23646467.487    -5888533.574 7  -6206363.95649  23646470.4174
  25206089.394     5722388.593 6   4569827.26749  25206092.2654
  26651273.151     -317198.652 5   -180449.39649  26651277.9094
  22620303.667    -6710728.973 7  -5159225.78549  22620304.8974
 95  2 19 19  2 30.0070000  0  8 18 14 28 19 31 22 27 29
  22734765.901    -9474683.550 7  -7324948.66949  22734767.4954
  24661598.628    11931808.075 6   9374031.10349  24661603.0814
  25934917.308    -2240694.205 5  -1705021.72849  25934922.3354
  23644580.089    -5898451.271 7  -6214092.02649  23644582.4444
  26217353.597      -35940.91914
  25230516.097     5850756.297 6   4669853.96749  25230519.6834
  26643116.683     -360043.886 3   -213835.21549  26643121.2534
  22628434.909    -6667998.044 7  -5125928.97349  22628436.2104
 95  2 19 19  3  0.0070000  0  8 18 14 28 19 31 22 27 29
  22732819.925    -9484910.919 7  -7332918.05049  22732821.6124
  24687596.425    12068425.330 6   9480486.04249  24687600.7844
  25931578.198    -2258242.888 5  -1718695.99549  25931582.9794
  23642739.722    -5908121.808 7  -6221627.50549  23642742.5694
  26207592.159      -87239.440 4
  25254996.495     5979398.946 6   4770094.92749  25254999.5544
  26634983.253     -402793.120 3   -247146.27549  26634988.5384
  22636641.503    -6624872.998 7  -5092325.06849  22636642.7694
 95  2 19 19  3 30.0070000  0  8 18 14 28 19 31 22 27 29
  22730938.581    -9494797.391 7  -7340621.79749  22730939.9994
  24713644.597    12205310.474 6   9587149.72149  24713649.7184
  25928302.206    -2275455.471 5  -1732108.38349  25928307.8194
  23640944.065    -5917559.159 7  -6228981.28149  23640947.1244
  26197838.370     -138494.116 4    -38605.69859  26197843.7024
  25279528.886     6108318.597 6   4870551.72249  25279532.7884
  26626865.019     -445464.422 3   -280396.57447  26626870.1864
  22644919.136    -6581374.734 7  -5058430.33949  22644920.5424
 95  2 19 19  4  0.0070000  0  8 18 14 28 19 31 22 27 29
  22729126.706    -9504317.999 7  -7348040.46449  22729128.3944
  24739746.987    12342478.873 6   9694034.10549  24739751.3584
  25925095.253    -2292310.207 5  -1745241.89749  25925100.6674
  23639192.464    -5926764.050 7  -6236153.91349  23639195.2414
  26188097.003     -189687.343 5    -78496.46349  26188102.4874
  25304116.370     6237524.546 6   4971231.60849  25304119.8044
  26618760.511     -488041.335 3   -313573.35347  26618765.5614
  22653272.347    -6537477.844 7  -5024224.98849  22653273.7764
 95  2 19 19  4 30.0070000  0  8 18 14 28 19 31 22 27 29
  22727378.089    -9513506.773 7  -7355200.54949  22727379.7764
  24765895.409    12479887.917 6   9801106.01749  24765900.0504
  25921951.128    -2308832.189 5  -1758116.12549  25921956.5654
  23637479.315    -5935767.776 7  -6243169.78849  23637482.2694
  26178359.269     -240854.997 5   -118367.24349  26178365.1984
  25328751.261     6366982.089 6   5072107.55249  25328754.7534
  26610672.214     -530546.509 3   -346694.26647  26610677.8514
  22661695.917    -6493210.076 7  -4989730.64449  22661697.2294
 95  2 19 19  5  0.0070000  0  8 18 14 28 19 31 22 27 29
  22725691.644    -9522370.514 8  -7362107.34949  22725693.2144
  24792088.097    12617533.038 6   9908361.88749  24792092.8664
  25918871.784    -2325012.315 5  -1770723.97249  25918877.3394
  23635803.659    -5944573.495 7  -6250031.40949  23635806.0974
  26168630.401     -291981.787 5   -158206.22349  26168636.1554
  25353435.979     6496700.895 6   5173187.06649  25353439.6714
  26602600.581     -572969.339 3   -379750.93749  26602605.7144
  22670191.847    -6448563.226 7  -4954940.91249  22670193.3354
 95  2 19 19  5 30.0070000  0  8 18 14 28 19 31 22 27 29
  22724065.440    -9530915.431 7  -7368765.74249  22724066.8704
  24818324.636    12755405.400 6  10015794.81449  24818329.4404
  25915860.386    -2340840.047 5  -1783057.22649  25915864.9684
  23634164.862    -5953183.341 7  -6256740.35749  23634167.6634
  26158912.651     -343044.047 5   -197994.90849  26158918.9334
  25378173.058     6626696.098 6   5274481.96549  25378176.9014
  26594545.112     -615300.071 4   -412735.86149  26594549.9644
  22678759.815    -6403538.938 7  -4919857.07449  22678761.1404
 95  2 19 19  6  0.0070000  0  8 18 14 28 19 31 22 27 29
  22722494.894    -9539168.661 7  -7375196.83649  22722496.5694
  24844596.378    12893462.077 6  10123371.37449  24844600.4914
  25912911.792    -2356335.036 5  -1795131.19649  25912917.1714
  23632562.167    -5961605.747 7  -6263303.26649  23632565.2964
  26149207.065     -394052.318 5   -237741.51749  26149212.5264
  25402956.245     6756931.336 6   5375963.87749  25402959.9134
  26586504.894     -657545.506 4   -445654.36749  26586509.8274
  22687394.948    -6358161.709 7  -4884498.21749  22687395.9914
 95  2 19 19  6 30.0070000  0  8 18 14 28 19 31 22 27 29
  22720979.136    -9547134.122 8  -7381403.68349  22720980.8114
  24870896.542    13031672.306 6  10231067.56549  24870900.8904
  25910023.565    -2371511.240 5  -1806956.75449  25910028.7334
  23630996.784    -5969833.299 7  -6269714.33849  23630999.6204
  26139509.331     -445011.480 5   -277449.85549  26139515.1794
  25427783.456     6887397.588 6   5477625.83249  25427786.8544
  26578482.558     -699712.136 5   -478511.44049  26578485.9914
  22696093.612    -6312451.151 7  -4848879.62149  22696094.7144
 95  2 19 19  7  0.0070000  0  8 18 14 28 19 31 22 27 29
  22719517.800    -9554814.432 8  -7387388.34949  22719519.4174
  24897223.378    13170020.566 6  10338871.32949  24897227.9484
  25907193.878    -2386379.159 5  -1818542.07049  25907198.9054
  23629465.589    -5977879.330 7  -6275983.97349  23629468.2374
  26129821.081     -495925.655 5   -317123.14849  26129826.5074
  25452650.464     7018075.778 6   5579452.90749  25452654.3664
  26570469.612     -741820.196 5   -511322.86749  26570474.6284
  22704853.284    -6266417.119 7  -4813008.96949  22704854.4564
 95  2 19 19  7 30.0070000  0  8 18 14 28 19 31 22 27 29
  22718119.097    -9562162.444 7  -7393114.08249  22718120.8084
  24923584.214    13308545.776 6  10446812.96049  24923588.8434
  25904431.644    -2400897.381 5  -1829854.90749  25904436.5894
  23627977.894    -5985697.820 7  -6282076.29149  23627980.3084
  26120147.417     -546760.972 5   -356734.97749  26120152.8194
  25477564.456     7148997.931 6   5681470.07949  25477568.2534
  26562473.042     -783833.328 3   -544060.31249  26562478.7614
  22713681.776    -6220023.435 7  -4776858.06349  22713682.9484
 95  2 19 19  8  0.0070000  0  8 18 14 28 19 31 22 27 29
  22716782.237    -9569189.577 8  -7398589.77649  22716783.7964
  24949976.737    13447240.010 6  10554886.30749  24949981.8234
  25901732.284    -2415080.808 5  -1840906.86049  25901736.9834
  23626530.284    -5993303.940 7  -6288003.13749  23626532.5344
  26110486.292     -597529.838 5   -396295.00049  26110491.8474
  25502519.065     7280135.063 6   5783654.75649  25502523.0854
  26554493.042     -825775.930 3   -576742.82249  26554498.0694
  22722575.901    -6173285.861 7  -4740439.19249  22722577.0974
 95  2 19 19  8 30.0070000  0  8 18 14 28 19 31 22 27 29
  22715504.659    -9575902.581 8  -7403820.70149  22715506.1014
  24976404.948    13586121.863 6  10663105.84649  24976409.7534
  25899097.839    -2428925.602 5  -1851694.94249  25899102.3044
  23625121.308    -6000707.323 7  -6293772.00249  23625123.9564
  26100837.456     -648236.872 5   -435806.90849  26100842.9764
  25527513.190     7411480.763 6   5886001.96449  25527516.3314
  26546520.839     -867662.489 3   -609381.61249  26546527.0854
  22731535.269    -6126202.922 7  -4703751.20849  22731536.6514
 95  2 19 19  9  0.0070000  0  8 18 14 28 19 31 22 27 29
  22714281.933    -9582327.771 8  -7408827.35249  22714283.6674
  25002871.925    13725204.703 6  10771482.00549  25002876.2264
  25896528.151    -2442429.407 5  -1862217.30149  25896532.8974
  23623748.065    -6007922.343 7  -6299394.09449  23623751.1834
  26091198.558     -698886.405 5   -475273.95149  26091204.2764
  25552545.792     7543025.994 6   5988504.66049  25552549.6364
  26538560.331     -909498.697 4   -641981.21249  26538564.7614
  22740561.870    -6078768.382 7  -4666789.24949  22740563.3704
 95  2 19 19  9 30.0070000  0  8 18 14 28 19 31 22 27 29
  22713112.972    -9588472.668 8  -7413615.59449  22713114.4134
  25029374.089    13864476.611 6  10880005.47949  25029378.5894
  25894021.800    -2455598.319 5  -1872478.70649  25894026.4524
  23622409.378    -6014957.373 7  -6304875.93949  23622412.3784
  26081568.269     -749491.629 5   -514706.50249  26081573.8584
  25577613.589     7674758.625 6   6091153.38449  25577617.8434
  26530608.253     -951286.941 5   -674543.45849  26530614.3354
  22749653.831    -6030988.903 7  -4629558.51049  22749655.4134
 95  2 19 19 10  0.0070000  0  8 18 14 28 19 31 22 27 29
  22711991.776    -9594363.772 8  -7418206.07649  22711993.2764
  25055906.706    14003905.187 6  10988651.04749  25055911.9094
  25891575.128    -2468457.184 5  -1882498.49849  25891580.0614
  23621098.175    -6021849.374 7  -6310246.32949  23621101.1634
  26071942.542     -800075.306 5   -554122.26049  26071948.2844
  25602709.386     7806637.816 6   6193916.30049  25602712.8544
  26522661.800     -993049.711 5   -707085.81549  26522666.1244
  22758807.815    -5982884.744 7  -4592074.76649  22758809.4914
 95  2 19 19 10 30.0070000  0  8 18 14 28 19 31 22 27 29
  22710921.729    -9599987.289 8  -7422588.04349  22710923.3004
  25082470.589    14143497.549 6  11097424.21949  25082475.3824
  25889190.839    -2480985.350 5  -1892260.63649  25889195.8084
  23619818.417    -6028575.945 7  -6315487.80949  23619820.9014
  26062323.354     -850627.462 5   -593513.45849  26062329.1084
  25627836.448     7938683.855 6   6296809.21649  25627840.6444
  26514721.261    -1034773.609 5   -739597.89749  26514724.1324
  22768030.128    -5934420.636 7  -4554310.54449  22768031.6864
 95  2 19 19 11  0.0070000  0  8 18 14 28 19 31 22 27 29
  22709902.526    -9605343.746 8  -7426761.90949  22709903.9444
  25109059.776    14283225.124 6  11206302.76149  25109064.9334
  25886867.792    -2493192.086 5  -1901772.27649  25886872.1404
  23618567.269    -6035150.903 7  -6320611.15649  23618569.7654
  26052707.026     -901155.629 5   -632885.96849  26052712.9214
  25652995.995     8070894.926 6   6399830.72649  25653000.4604
  26506785.323    -1076474.238 5   -772091.82349  26506789.1904
  22777320.331    -5885601.209 7  -4516269.45149  22777321.6324
 95  2 19 19 11 30.0070000  0  8 18 14 28 19 31 22 27 29
  22708939.901    -9610401.070 8  -7430702.69249  22708941.2614
  25135671.151    14423070.322 6  11315272.94949  25135676.1904
  25884607.948    -2505068.185 5  -1911026.30049  25884613.0344
  23617345.159    -6041571.142 7  -6325613.94049  23617347.8784
  26043099.058     -951647.983 5   -672230.61449  26043105.1984
  25678187.386     8203276.848 6   6502985.35949  25678191.8744
  26498855.612    -1118145.219 4   -804562.62149  26498860.2294
  22786677.542    -5836429.451 7  -4477953.81449  22786678.7724
 95  2 19 19 12  0.0070000  0  8 18 14 28 19 31 22 27 29
  22708033.097    -9615166.101 7  -7434415.70649  22708034.7374
  25162303.269    14563021.679 6  11424325.87649  25162308.3664
  25882411.339    -2516612.076 5  -1920021.45249  25882416.0614
  23616153.214    -6047835.845 7  -6330495.53749  23616156.0154
  26033499.644    -1002091.307 5   -711536.99749  26033505.7374
  25703412.800     8335833.902 6   6606276.48549  25703416.7844
  26490931.448    -1159793.998 4   -837016.13749  26490936.5584
  22796098.706    -5786920.301 7  -4439375.27349  22796099.9364
 95  2 19 19 12 30.0070000  0  8 18 14 28 19 31 22 27 29
  22707184.581    -9619624.349 7  -7437889.67249  22707186.3154
  25188957.183    14703088.204 6  11533468.52249  25188961.8114
  25880277.964    -2527820.097 5  -1928754.88249  25880282.6284
  23614991.401    -6053939.562 7  -6335251.68449  23614994.4254
  26023911.534    -1052477.766 5   -750799.10549  26023917.3704
  25728673.097     8468580.730 6   6709715.48949  25728677.3044
  26483007.729    -1201426.006 4   -869456.57749  26483012.9794
  22805583.034    -5737079.902 7  -4400538.62249  22805584.3474
 95  2 19 19 13  0.0070000  0  8 18 14 28 19 31 22 27 29
  22706401.300    -9623740.564 7  -7441097.11449  22706403.0224
  25215634.995    14843279.157 6  11642708.12649  25215639.7654
  25878212.503    -2538673.219 5  -1937211.77549  25878217.1554
  23613863.479    -6059867.237 7  -6339870.64949  23613866.2334
  26014339.222    -1102779.997 5   -789995.57249  26014345.5734
  25753974.300     8601539.858 6   6813319.92349  25753978.2494
  26475096.526    -1243001.382 5   -901852.89849  26475102.1514
  22815130.229    -5686908.037 7  -4361443.68849  22815131.7654
 95  2 19 19 13 30.0070000  0  8 18 14 28 19 31 22 27 29
  22705684.003    -9627510.117 7  -7444034.43549  22705685.9014
  25242337.167    14983601.976 6  11752050.49049  25242342.0544
  25876215.542    -2549169.413 5  -1945390.55649  25876220.0774
  23612772.300    -6065603.123 7  -6344340.16149  23612774.8904
  26004785.604    -1152984.063 5   -829115.55649  26004791.7924
  25779312.933     8734695.156 6   6917077.20749  25779316.7294
  26467197.519    -1284507.231 4   -934195.05949  26467203.1674
  22824741.292    -5636401.820 7  -4322088.21549  22824742.8624
 95  2 19 19 14  0.0070000  0  8 18 14 28 19 31 22 27 29
  22705035.378    -9630920.117 7  -7446691.58249  22705037.2764
  25269073.323    15124097.805 6  11861527.64949  25269078.4334
  25874290.409    -2559286.809 5  -1953274.16749  25874294.7574
  23611724.042    -6071111.669 7  -6348632.53749  23611726.3864
  25995255.370    -1203065.143 5   -868139.74849  25995260.5614
  25804691.058     8868056.331 5   7020994.90749  25804695.9214
  26459314.589    -1325932.990 5   -966474.81748  26459320.4724
  22834421.112    -5585534.861 7  -4282451.65049  22834422.6944
 95  2 19 19 14 30.0070000  0  8 18 14 28 19 31 22 27 29
  22704458.229    -9633952.260 7  -7449054.29849  22704459.9644
  25295845.933    15264790.284 6  11971158.04049  25295850.6324
  25872439.823    -2569011.734 6  -1960851.97149  25872444.3004
  23610721.800    -6076377.134 7  -6352735.48849  23610724.6474
  25985750.034    -1253015.431 5   -907061.96449  25985756.3044
  25830109.206     9001629.395 6   7125077.70249  25830113.0504
  26451450.597    -1367261.028 5   -998678.43149  26451455.3664
  22844177.354    -5534264.289 7  -4242500.58049  22844178.9724
 95  2 19 19 15  0.0070000  0  8 18 14 28 19 31 22 27 29
  22703949.948    -9636623.993 7  -7451136.17449  22703951.7534
  25322654.589    15405669.222 6  12080933.73749  25322659.9684
  25870664.354    -2578340.106 5  -1968120.77649  25870669.3474
  23609766.050    -6081399.117 7  -6356648.71949  23609768.8514
  25976271.065    -1302828.423 5   -945877.19049  25976276.5384
  25855564.378     9135400.583 6   7229314.89749  25855568.8194
  26443605.706    -1408485.484 5  -1030801.33047  26443611.6944
  22854012.651    -5482579.498 7  -4202226.74149  22854014.5854
 95  2 19 19 15 30.0070000  0  8 18 14 28 19 31 22 27 29
  22703506.323    -9638953.929 7  -7452951.71449  22703508.0934
  25349498.573    15546735.819 6  12190855.66149  25349503.1674
  25868963.839    -2587277.879 6  -1975085.21849  25868968.3514
  23608852.183    -6086202.444 7  -6360391.56349  23608855.0894
  25966816.425    -1352514.170 5   -984593.27949  25966821.7334
  25881054.136     9269343.498 6   7333685.89949  25881057.8744
  26435773.573    -1449637.248 4  -1062867.56749  26435779.3044
  22863926.261    -5430484.105 7  -4161632.95349  22863928.1014
 95  2 19 19 16  0.0070000  0  8 18 14 28 19 31 22 27 29
  22703124.636    -9640959.454 7  -7454514.46349  22703126.3114
  25376373.339    15687965.193 6  12300904.41949  25376378.5424
  25867335.112    -2595833.460 5  -1981751.85449  25867340.1044
  23607973.690    -6090820.150 7  -6363989.77049  23607976.5734
  25957382.753    -1402088.879 5  -1023222.82549  25957389.0584
  25906574.862     9403457.143 6   7438189.95049  25906578.6244
  26427956.808    -1490720.338 4  -1094880.28849  26427962.3394
  22873914.214    -5377996.629 7  -4120733.64949  22873915.9604
 95  2 19 19 16 30.0070000  0  8 18 14 28 19 31 22 27 29
  22702806.261    -9642632.982 7  -7455818.50449  22702808.0774
  25403276.847    15829343.487 5  12411069.21749  25403282.4364
  25865781.573    -2603998.073 6  -1988113.83649  25865785.7694
  23607127.667    -6095265.668 7  -6367453.79549  23607130.5384
  25947972.472    -1451536.850 5  -1061753.63449  25947978.3904
  25932128.972     9537743.224 6   7542828.33949  25932132.9214
  26420157.003    -1531712.220 5  -1126821.91849  26420162.9914
  22883977.737    -5325112.237 7  -4079525.05549  22883979.3784
 95  2 19 19 17  0.0070000  0  8 18 14 28 19 31 22 27 29
  22702546.550    -9643997.975 7  -7456882.12849  22702547.9094
  25430203.183    15970842.101 5  12521327.78049  25430208.5504
  25864300.276    -2611783.405 6  -1994180.28149  25864304.7764
  23606309.409    -6099564.915 7  -6370803.84549  23606312.0934
  25938583.542    -1500876.717 5  -1100200.18449  25938588.1014
  25957711.479     9672182.477 5   7647586.11049  25957715.6404
  26412369.776    -1572633.366 5  -1158708.49049  26412374.0074
  22894109.464    -5271869.227 7  -4038037.01949  22894111.2804
 95  2 19 19 17 30.0070000  0  8 18 14 28 19 31 22 27 29
  22702346.894    -9645047.150 7  -7457699.67549  22702348.3114
  25457150.300    16112448.992 5  12631670.68649  25457155.4094
  25862890.620    -2619192.093 6  -1999953.21849  25862895.1554
  23605518.534    -6103719.525 7  -6374041.18949  23605521.4764
  25929213.058    -1550121.126 5  -1138572.33949  25929218.8474
  25983323.604     9806772.801 5   7752461.57049  25983328.2574
  26404595.956    -1613482.971 5  -1190539.27248  26404600.7024
  22904307.464    -5218279.492 7  -3996278.81149  22904309.1284
 95  2 19 19 18  0.0070000  0  8 18 14 28 19 31 22 27 29
  22702204.581    -9645795.336 7  -7458282.68549  22702206.4334
  25484115.698    16254153.339 5  12742089.54049  25484121.1834
  25861550.995    -2626229.363 6  -2005436.75449  25861554.8624
  23604756.737    -6107722.141 7  -6377160.09449  23604759.3864
  25919859.214    -1599274.617 5  -1176873.67449  25919864.1244
  26008961.433     9941501.233 6   7857444.67549  26008965.8394
  26396835.386    -1654261.743 4  -1222314.90149  26396838.8194
  22914570.675    -5164346.109 7  -3954252.82149  22914572.1514
 95  2 19 19 18 30.0070000  0  8 18 14 28 19 31 22 27 29
  22702128.050    -9646196.181 7  -7458595.03449  22702130.0544
  25511107.675    16395997.692 5  12852617.49549  25511112.8904
  25860290.464    -2632852.957 6  -2010597.94749  25860294.2024
  23604033.886    -6111523.307 7  -6380122.02749  23604036.6634
  25910530.097    -1648296.610 5  -1215072.50549  25910535.5584
  26034632.636    10076405.562 6   7962564.82549  26034637.3114
  26389093.698    -1694943.616 5  -1254015.02648  26389097.7294
  22924907.823    -5110024.352 7  -3911924.19749  22924909.4994
 95  2 19 19 19  0.0070000  0  8 18 14 28 19 31 22 27 29
  22702117.940    -9646250.825 7  -7458637.62249  22702119.3944
  25538126.269    16537977.554 5  12963251.04249  25538131.7064
  25859107.229    -2639072.237 6  -2015444.07049  25859111.2144
  23603349.909    -6115116.287 7  -6382921.74149  23603352.8154
  25901223.972    -1697200.935 5  -1253179.68049  25901229.5614
  26060339.331    10211491.461 6   8067826.44349  26060343.7494
  26381366.870    -1735547.453 4  -1285654.31249  26381372.4834
  22935317.214    -5055321.380 7  -3869298.52349  22935319.1594
 95  2 19 19 19 30.0070000  0  8 18 14 28 19 31 22 27 29
  22702177.690    -9645937.020 7  -7458393.10649  22702179.1794
  25565172.128    16680105.032 5  13073999.59549  25565178.0694
  25858002.144    -2644877.293 6  -2019967.43349  25858006.6084
  23602708.026    -6118488.213 7  -6385549.20949  23602711.0384
  25891947.097    -1745954.912 5  -1291169.68549  25891952.8864
  26086081.761    10346770.478 5   8173238.57949  26086085.4644
  26373657.901    -1776057.860 5  -1317220.83549  26373662.9994
  22945803.011    -5000219.052 7  -3826361.66349  22945805.0614
 95  2 19 19 20  0.0070000  0  8 18 14 28 19 31 22 27 29
  22702313.245    -9645225.691 7  -7457838.83149  22702314.6984
  25592248.237    16822389.818 5  13184870.74149  25592253.5344
  25856980.065    -2650251.308 6  -2024154.91349  25856984.2964
  23602111.847    -6121622.115 7  -6387991.19949  23602114.7654
  25882703.792    -1794524.544 5  -1329016.04649  25882709.5694
  26111864.722    10482259.425 5   8278814.27249  26111868.4954
  26365968.690    -1816468.769 5  -1348709.81049  26365973.3904
  22956369.886    -4944690.421 7  -3783092.62149  22956371.7964
 95  2 19 19 20 30.0070000  0  8 18 14 28 19 31 22 27 29
  22702523.917    -9644117.191 7  -7456975.07149  22702525.4524
  25619346.175    16964791.089 5  13295832.64449  25619351.4834
  25856035.042    -2655216.289 6  -2028023.66749  25856039.6124
  23601556.472    -6124541.216 7  -6390265.82149  23601559.1554
  25873494.167    -1842923.137 5  -1366729.15049  25873499.8624
  26137684.995    10617945.266 5   8384543.39149  26137689.4014
  26358294.183    -1856798.937 5  -1380135.88149  26358298.9404
  22967013.425    -4888757.890 7  -3739508.84749  22967015.2184
 95  2 19 19 21  0.0070000  0  8 18 14 28 19 31 22 27 29
  22702808.612    -9642621.258 7  -7455809.41549  22702810.4404
  25646465.409    17107303.708 5  13406881.32749  25646470.6944
  25855166.198    -2659778.451 5  -2031578.54249  25855170.8044
  23601040.722    -6127252.592 7  -6392378.57749  23601043.3584
  25864316.073    -1891151.790 5  -1404309.79249  25864321.2764
  26163537.573    10753805.753 5   8490408.60749  26163541.9684
  26350631.847    -1897059.987 5  -1411508.09849  26350636.8744
  22977732.058    -4832430.395 7  -3695617.31549  22977733.8394
 95  2 19 19 21 30.0070000  0  8 18 14 28 19 31 22 27 29
  22703168.269    -9640731.878 7  -7454337.17449  22703170.0154
  25673606.198    17249929.113 5  13518017.89249  25673611.9874
  25854376.511    -2663927.937 6  -2034811.85349  25854380.9874
  23600562.972    -6129762.542 7  -6394334.38649  23600565.8434
  25855173.120    -1939199.442 5  -1441749.42449  25855177.7614
  26189421.378    10889819.860 6   8596393.52649  26189425.9364
  26342985.253    -1937244.760 5  -1442820.86249  26342989.7294
  22988526.526    -4775705.251 7  -3651415.92949  22988528.4254
 95  2 19 19 22  0.0070000  0  8 18 14 28 19 31 22 27 29
  22703603.089    -9638447.716 7  -7452557.31149  22703604.6834
  25700768.183    17392664.578 5  13629240.20349  25700773.3044
  25853665.604    -2667662.900 6  -2037722.14949  25853669.5074
  23600123.073    -6132072.060 7  -6396134.01049  23600126.1324
  25846061.284    -1987084.238 5  -1479062.17449  25846066.4294
  26215329.472    11025968.300 5   8702483.13249  26215334.0544
  26335351.401    -1977362.277 5  -1474081.24749  26335356.3004
  22999394.503    -4718594.214 7  -3606913.83249  22999396.4724
 95  2 19 19 22 30.0070000  0  8 18 14 28 19 31 22 27 29
  22704113.620    -9635763.740 7  -7450465.90849  22704115.4364
  25727957.714    17535544.352 5  13740574.95449  25727963.7144
  25853039.167    -2670957.589 6  -2040289.39149  25853042.5774
  23599723.854    -6134170.118 7  -6397768.87049  23599726.9134
  25836980.683    -2034797.703 5  -1516241.40049  25836985.4174
  26241265.339    11162262.390 5   8808686.24149  26241270.7414
  26327733.644    -2017393.641 5  -1505274.46349  26327737.8044
  23010337.261    -4661091.039 7  -3562106.18549  23010339.1474
 95  2 19 19 23  0.0070000  0  8 18 14 28 19 31 22 27 29
  22704701.542    -9632675.169 7  -7448059.23249  22704703.2764
  25755178.401    17678592.170 5  13852040.67649  25755183.9794
  25852498.808    -2673796.191 6  -2042501.22449  25852502.6634
  23599366.714    -6136048.835 7  -6399232.81049  23599369.8194
  25827933.862    -2082339.715 5  -1553287.00749  25827939.5464
  26267229.112    11298703.852 5   8915004.17649  26267233.6944
  26320135.323    -2057317.443 5  -1536383.90349  26320139.5304
  23021355.792    -4603186.470 7  -3516985.76049  23021357.7264
 95  2 19 19 23 30.0070000  0  8 18 14 28 19 31 22 27 29
  22705370.120    -9629160.719 7  -7445320.71149  22705371.8314
  25782431.456    17821802.742 5  13963633.19249  25782436.8354
  25852047.886    -2676165.710 6  -2044347.55149  25852051.8114
  23599051.511    -6137704.986 7  -6400523.32749  23599053.9364
  25818921.394    -2129697.496 5  -1590189.08249  25818927.2184
  26293222.183    11435297.178 5   9021440.41949  26293227.2454
  26312562.948    -2097114.705 5  -1567394.72249  26312567.5544
  23032454.058    -4544865.404 7  -3471540.79449  23032455.8394
 95  2 19 19 24  0.0070000  0  8 18 14 28 19 31 22 27 29
  22706115.690    -9625243.028 7  -7442267.97349  22706117.3084
  25809708.417    17965151.490 5  14075333.38449  25809714.3474
  25851684.808    -2678075.841 6  -2045835.90449  25851688.8514
  23598777.472    -6139144.946 7  -6401645.38649  23598779.9444
  25809941.651    -2176886.467 5  -1626959.59849  25809947.1944
  26319245.503    11572051.187 5   9128001.87049  26319250.0264
  26305010.378    -2136799.724 5  -1598318.08149  26305015.2654
  23043630.315    -4486133.338 7  -3425775.57249  23043632.0974
 95  2 19 19 24 30.0080000  0  8 18 14 28 19 31 22 27 29
  22706933.148    -9620948.693 7  -7438921.74649  22706934.7424
  25837008.187    18108609.702 5  14187118.87549  25837013.4024
  25851404.172    -2679549.439 6  -2046984.11449  25851408.2154
  23598540.078    -6140392.113 7  -6402617.20949  23598542.8554
  25800991.742    -2223918.650 5  -1663607.94349  25800997.4374
  26345299.406    11708961.618 5   9234685.22949  26345304.0944
  26297477.234    -2176391.735 5  -1629168.98749  26297482.7544
  23054884.719    -4426992.136 7  -3379691.54049  23054886.6874
 95  2 19 19 25  0.0080000  0  8 18 14 28 19 31 22 27 29
  22707822.047    -9616276.703 7  -7435281.23849  22707823.6994
  25864322.453    18252146.008 5  14298965.22849  25864328.2304
  25851206.039    -2680592.681 6  -2047796.92549  25851209.6134
  23598340.070    -6141443.052 7  -6403436.14149  23598342.8014
  25792075.125    -2270776.045 5  -1700120.08849  25792080.9264
  26371380.148    11846018.657 5   9341482.80149  26371385.5274
  26289959.359    -2215895.431 5  -1659951.07549  26289964.2934
  23066218.539    -4367432.191 7  -3333281.20949  23066220.3204
 95  2 19 19 25 30.0080000  0  8 18 14 28 19 31 22 27 29
  22708783.148    -9611226.286 7  -7431345.85749  22708785.0234
  25891650.141    18395753.722 5  14410867.21049  25891655.6724
  25851088.351    -2681207.804 6  -2048276.25949  25851092.3364
  23598175.781    -6142305.945 7  -6404108.53549  23598178.3714
  25783192.906    -2317451.535 5  -1736490.48349  25783198.7774
  26397490.422    11983229.355 5   9448400.16049  26397495.2034
  26282453.695    -2255339.847 5  -1690686.94549  26282457.7504
  23077630.969    -4307460.150 7  -3286549.77649  23077632.6094
 95  2 19 19 26  0.0080000  0  8 18 14 28 19 31 22 27 29
  22709813.883    -9605807.237 7  -7427123.22949  22709815.7934
  25918990.961    18539428.827 5  14522821.70349  25918996.8204
  25851051.875    -2681399.298 6  -2048425.43549  25851056.1174
  23598047.680    -6142979.383 7  -6404633.29949  23598050.1764
  25774343.211    -2363956.567 5  -1772728.07249  25774348.2504
  26423630.078    12120592.725 5   9555436.45549  26423634.6024
  26274956.406    -2294735.546 5  -1721384.86049  26274960.7894
  23089118.523    -4247091.877 7  -3239509.58249  23089120.3984
 95  2 19 19 26 30.0080000  0  8 18 14 28 19 31 22 27 29
  22710920.422    -9599993.132 7  -7422592.76249  22710922.3794
  25946348.398    18683190.165 5  14634843.41249  25946354.2114
  25851098.109    -2681156.754 6  -2048236.40049  25851101.5194
  23597956.273    -6143461.135 7  -6405008.69749  23597958.7344
  25765531.969    -2410265.492 5  -1808812.84349  25765535.9064
  26449796.156    12258097.206 5   9662582.71549  26449800.2114
  26267471.469    -2334073.289 5  -1752037.61949  26267475.7694
  23100681.367    -4186329.659 7  -3192162.42449  23100683.1844
 95  2 19 19 27  0.0080000  0  8 18 14 28 19 31 22 27 29
  22712094.148    -9593826.066 7  -7417787.26449  22712096.1524
  25973711.664    18826987.769 5  14746893.34149  25973717.1484
  25851219.562    -2680520.626 6  -2047740.67449  25851223.9694
  23597891.203    -6143800.374 7  -6405273.04049  23597893.8754
  25756747.476    -2456425.385 5  -1844781.47449  25756752.4344
  26475978.867    12395687.603 5   9769795.91849  26475982.5234
  26259988.437    -2373391.483 5  -1782675.09349  26259992.9144
  23112306.273    -4125239.176 7  -3144559.47249  23112308.1254
 95  2 19 19 27 30.0080000  0  8 18 14 28 19 31 22 27 29
  22713334.023    -9587311.044 7  -7412710.62449  22713335.8634
  26001080.781    18970812.922 5  14858964.76849  26001086.6644
  25851415.375    -2679487.823 6  -2046935.86649  25851419.1844
  23597852.531    -6144004.808 7  -6405432.34249  23597855.1684
  25747990.445    -2502440.128 5  -1880636.99249  25747995.8484
  26502177.047    12533359.154 5   9877072.34049  26502181.1954
  26252512.672    -2412681.651 5  -1813290.76049  26252517.3944
  23123990.562    -4063839.434 7  -3096715.53649  23123992.3794
 95  2 19 19 28  0.0080000  0  8 18 14 28 19 31 22 27 29
  22714641.883    -9580437.267 7  -7407354.44149  22714643.7934
  26028456.898    19114672.812 5  14971063.25049  26028462.3124
  25851691.414    -2678036.870 6  -2045805.21049  25851695.5624
  23597844.976    -6144045.443 7  -6405463.99949  23597847.4374
  25739267.492    -2548281.399 5  -1916357.34549  25739272.5784
  26528394.562    12671131.312 5   9984427.16249  26528399.0394
  26245048.734    -2451905.627 5  -1843854.84149  26245053.2814
  23135740.937    -4002091.015 7  -3048599.91149  23135742.5664
 95  2 19 19 28 30.0080000  0  8 18 14 28 19 31 22 27 29
  22716021.281    -9573189.637 8  -7401706.94649  22716022.9924
  26055842.531    19258585.234 5  15083202.66149  26055847.2074
  25852051.477    -2676145.492 6  -2044331.35349  25852055.7194
  23597871.273    -6143908.407 7  -6405357.22249  23597873.4654
  25730583.773    -2593911.935 5  -1951913.48649  25730589.3874
  26554635.898    12809029.319 5  10091880.02849  26554641.1724
  26237601.351    -2491041.096 5  -1874349.98449  26237605.1254
  23147564.336    -3939957.812 7  -3000184.45449  23147566.1294
 95  2 19 19 29  0.0080000  0  8 18 14 28 19 31 22 27 29
  22717467.984    -9565586.711 7  -7395782.60349  22717469.7544
  26083234.695    19402531.492 5  15195368.45249  26083240.5904
  25852494.297    -2673816.611 6  -2042516.60449  25852498.2584
  23597931.445    -6143591.540 7  -6405110.30149  23597934.2234
  25721939.133    -2639340.816 5  -1987312.49549  25721944.3364
  26580900.125    12947048.362 5  10199427.21349  26580904.9884
  26230171.336    -2530085.131 5  -1904773.87449  26230174.4654
  23159462.453    -3877433.493 7  -2951464.23049  23159464.2934
 95  2 19 19 29 30.0080000  0  8 18 14 28 19 31 22 27 29
  22718979.641    -9557642.826 7  -7389592.56449  22718981.8094
  26110633.922    19546514.388 5  15307562.78949  26110639.3124
  25853019.156    -2671060.224 6  -2040368.71449  25853023.2694
  23598024.828    -6143100.065 7  -6404727.32749  23598027.5944
  25713331.687    -2684572.033 5  -2022557.49349  25713337.0314
  26607183.555    13085170.647 5  10307054.86649  26607188.0904
  26222752.109    -2569067.866 5  -1935150.01549  26222756.7384
  23171437.219    -3814505.967 7  -2902429.82049  23171439.0704
 95  2 19 19 30  0.0080000  0  8 18 14 28 19 31 22 27 29
  22720559.281    -9549341.894 7  -7383124.30749  22720561.0624
  26138044.078    19690557.256 5  15419803.83949  26138049.7974
  25853626.484    -2667868.329 6  -2037881.48949  25853630.5864
  23598154.430    -6142419.730 7  -6404197.18849  23598157.0434
  25704764.601    -2729593.525 6  -2057639.05449  25704769.4064
  26633485.164    13223389.551 5  10414757.79949  26633490.5554
  26215346.305    -2607990.974 5  -1965479.67649  26215351.1444
  23183491.477    -3751160.366 7  -2853069.64449  23183493.2114
 95  2 19 19 30 30.0080000  0  8 18 14 28 19 31 22 27 29
  22722213.226    -9540649.777 7  -7376351.23849  22722214.9614
  26165475.375    19834706.678 5  15532127.93849  26165480.6024
  25854322.281    -2664211.107 6  -2035031.66449  25854325.9144
  23598322.523    -6141535.220 7  -6403507.94849  23598325.0084
  25696242.477    -2774377.481 6  -2092535.54049  25696246.9064
  26659808.016    13361713.155 5  10522542.33849  26659813.2774
  26207955.141    -2646830.573 5  -1995744.23849  26207959.7114
  23195627.859    -3687383.993 7  -2803373.78849  23195629.5944
 95  2 19 19 31  0.0080000  0  8 18 14 28 19 31 22 27 29
  22723940.891    -9531571.533 7  -7369277.28349  22723942.7194
  26192923.086    19978950.844 5  15644525.83349  26192928.7584
  25855104.305    -2660100.490 6  -2031828.55249  25855107.9734
  23598527.680    -6140457.788 7  -6402668.38449  23598530.1414
  25687762.750    -2818938.756 6  -2127258.48949  25687767.9534
  26686143.945    13500112.014 5  10630385.47249  26686149.6294
  26200576.734    -2685605.249 5  -2025958.22249  26200581.9024
  23207843.195    -3623191.984 7  -2753354.06449  23207844.9884
 95  2 19 19 31 30.0080000  0  8 18 14 28 19 31 22 27 29
  22725748.586    -9522071.318 7  -7361874.52749  22725750.4144
  26220395.391    20123313.973 5  15757016.43249  26220401.0624
  25855975.562    -2655520.653 6  -2028259.81849  25855979.3364
  23598772.359    -6139171.103 7  -6401665.76549  23598774.9844
  25679328.000    -2863262.188 6  -2161796.11849  25679332.1844
  26712498.758    13638603.030 5  10738300.41649  26712502.5434
  26193211.023    -2724312.515 5  -2056119.67449  26193216.7304
  23220138.891    -3558579.151 7  -2703006.42449  23220140.4374
 95  2 19 19 32  0.0080000  0  8 18 14 28 19 31 22 27 29
  22727641.133    -9512126.465 7  -7354125.29549  22727642.9964
  26247889.305    20267796.339 5  15869599.96449  26247894.8364
  25856940.141    -2650452.663 6  -2024310.71549  25856944.4774
  23599060.430    -6137657.446 7  -6400486.28949  23599063.3244
  25670942.352    -2907328.438 6  -2196133.36049  25670947.5194
  26738874.320    13777207.105 5  10846303.49249  26738879.0784
  26185867.180    -2762907.771 5  -2086193.87249  26185872.2664
  23232513.742    -3493548.135 7  -2652332.93549  23232515.4654
 95  2 19 19 32 30.0080000  0  8 18 14 28 19 31 22 27 29
  22729620.226    -9501725.670 7  -7346020.78549  22729622.4184
  26275405.383    20412390.420 5  15982270.54549  26275411.1724
  25857999.625    -2644884.533 6  -2019971.88249  25858004.1724
  23599392.187    -6135913.642 7  -6399127.48049  23599395.1174
  25662606.734    -2951132.663 6  -2230266.38949  25662612.2894
  26765276.883    13915953.095 5  10954417.14949  26765281.7344
  26178546.234    -2801372.783 5  -2116166.58849  26178551.1094
  23244971.344    -3428082.232 7  -2601320.56649  23244973.0664
 95  2 19 19 33  0.0080000  0  8 18 14 28 19 31 22 27 29
  22731685.594    -9490872.109 7  -7337563.46849  22731687.6564
  26302936.258    20557067.933 5  16095006.10949  26302942.2114
  25859153.234    -2638824.205 6  -2015249.51849  25859157.4304
  23599768.461    -6133937.194 7  -6397587.39449  23599771.2854
  25654317.812    -2994690.568 6  -2264207.51949  25654322.4414
  26791708.562    14054850.708 5  11062648.95749  26791713.4374
  26171247.719    -2839723.659 5  -2146050.34049  26171252.8754
  23257510.398    -3362189.641 7  -2549975.71249  23257512.3554
 95  2 19 19 33 30.0080000  0  8 18 14 28 19 31 22 27 29
  22733831.836    -9479593.800 7  -7328775.18449  22733833.7344
  26330478.586    20701804.463 5  16207787.68349  26330484.4694
  25860397.906    -2632285.871 6  -2010154.67149  25860401.6914
  23600184.601    -6131748.843 7  -6395882.18649  23600187.3554
  25646071.789    -3038021.994 6  -2297972.18549  25646076.6524
  26818168.836    14193904.262 5  11171002.23849  26818173.1604
  26163971.687    -2877963.482 5  -2175847.59049  26163977.1844
  23270124.609    -3295899.714 7  -2498321.25349  23270126.4494
 95  2 19 19 34  0.0080000  0  8 18 14 28 19 31 22 27 29
  22736059.187    -9467889.569 7  -7319655.00949  22736061.1684
  26358032.594    20846600.969 5  16320615.97449  26358038.8164
  25861735.766    -2625252.877 6  -2004674.39849  25861739.7384
  23600642.766    -6129342.714 7  -6394007.28949  23600645.1684
  25637873.539    -3081105.845 6  -2331543.92449  25637878.3324
  26844663.898    14333134.312 5  11279493.05549  26844668.3634
  26156719.906    -2916073.424 5  -2205543.59749  26156725.1444
  23282821.555    -3229178.512 7  -2446330.73549  23282823.1844
 95  2 19 19 34 30.0080000  0  8 18 14 28 19 31 22 27 29
  22738369.375    -9455749.224 7  -7310195.00949  22738371.3914
  26385599.516    20991466.413 5  16433497.97449  26385605.1414
  25863169.156    -2617718.336 6  -1998803.28649  25863173.5864
  23601141.242    -6126723.150 7  -6391966.07649  23601143.8204
  25629723.828    -3123932.526 6  -2364915.28349  25629728.3164
  26871192.312    14472542.818 5  11388122.93649  26871198.7344
  26149488.289    -2954074.479 5  -2235154.77749  26149493.7264
  23295602.351    -3162015.551 7  -2393995.99149  23295604.0744
 95  2 19 19 35  0.0080000  0  8 18 14 28 19 31 22 27 29
  22740758.500    -9443194.351 7  -7300411.99749  22740760.7974
  26413175.836    21136380.316 5  16546417.75649  26413181.2624
  25864694.633    -2609704.268 6  -1992558.53449  25864698.7814
  23601676.242    -6123911.559 7  -6389775.22749  23601678.8794
  25621620.117    -3166518.183 6  -2398098.81749  25621624.8284
  26897744.117    14612074.160 5  11496848.52549  26897750.0354
  26142273.695    -2991987.102 5  -2264696.99949  26142279.2854
  23308459.383    -3094451.139 7  -2341348.43349  23308461.0944
 95  2 19 19 35 30.0080000  0  8 18 14 28 19 31 22 27 29
  22743227.430    -9430219.692 7  -7290301.87849  22743229.6564
  26440762.555    21281343.948 5  16659376.26749  26440768.4844
  25866311.023    -2601209.561 6  -1985939.25449  25866314.4454
  23602245.859    -6120918.826 7  -6387443.23249  23602248.3554
  25613564.414    -3208850.935 6  -2431085.28649  25613569.2664
  26924313.937    14751697.867 5  11605646.13449  26924319.4804
  26135075.852    -3029814.267 5  -2294172.67549  26135080.8674
  23321393.922    -3026479.807 7  -2288383.79049  23321395.6214
 95  2 19 19 36  0.0080000  0  8 18 14 28 19 31 22 27 29
  22745782.687    -9416791.041 7  -7279837.99749  22745784.9144
  26468360.586    21426375.056 5  16772387.36249  26468366.9374
  25868022.586    -2592213.858 6  -1978929.58149  25868025.8794
  23602852.961    -6117728.622 7  -6384957.36049  23602855.4224
  25605562.219    -3250898.726 6  -2463849.72849  25605567.2934
  26950899.109    14891399.976 5  11714504.82849  26950904.3014
  26127892.508    -3067559.322 5  -2323584.37949  26127897.1484
  23334411.219    -2958072.685 7  -2235079.57449  23334412.8834
 95  2 19 19 36 30.0080000  0  8 18 14 28 19 31 22 27 29
  22748421.750    -9402922.743 7  -7269031.53949  22748423.9774
  26495970.523    21571463.069 5  16885442.80849  26495976.1954
  25869828.148    -2582727.663 6  -1971537.71749  25869831.7464
  23603495.937    -6114349.620 7  -6382324.37249  23603498.4574
  25597613.805    -3292670.655 6  -2496399.21449  25597618.7974
  26977492.828    15031152.222 5  11823402.54749  26977497.9024
  26120724.258    -3105230.001 5  -2352938.14449  26120728.7934
  23347507.227    -2889253.372 7  -2181454.16849  23347508.9964
 95  2 19 19 37  0.0080000  0  8 18 14 28 19 31 22 27 29
  22751141.594    -9388631.149 7  -7257895.23849  22751143.5624
  26523585.594    21716580.788 5  16998521.38849  26523590.8554
  25871724.976    -2572761.554 6  -1963771.87449  25871728.8204
  23604176.187    -6110773.736 7  -6379537.97049  23604178.8944
  25589716.312    -3334171.647 6  -2528737.58349  25589720.4494
  27004095.078    15170946.750 5  11932333.19849  27004100.1414
  26113568.508    -3142833.336 5  -2382239.41349  26113572.9374
  23360680.422    -2820027.856 7  -2127512.23849  23360682.2384
 95  2 19 19 37 30.0080000  0  8 18 14 28 19 31 22 27 29
  22753943.258    -9373907.704 7  -7246422.43949  22753945.1804
  26551205.234    21861719.698 5  17111616.49749  26551211.4224
  25873713.844    -2562306.032 6  -1955624.68649  25873717.7464
  23604897.281    -6106985.145 7  -6376585.82949  23604900.0594
  25581872.836    -3375389.201 6  -2560855.08749  25581877.5944
  27030711.461    15310816.955 5  12041322.85049  27030716.8984
  26106424.484    -3180374.437 5  -2411492.19149  26106429.4184
  23373935.391    -2750373.082 7  -2073235.82649  23373937.1134
 95  2 19 19 38  0.0080000  0  8 18 14 28 19 31 22 27 29
  22756825.945    -9358759.273 7  -7234618.47749  22756827.7384
  26578824.664    22006870.639 5  17224720.98749  26578830.4654
  25875795.187    -2551367.979 6  -1947101.48349  25875799.0434
  23605660.586    -6102973.332 7  -6373459.74249  23605663.3284
  25574080.945    -3416334.785 6  -2592760.65949  25574085.4804
  27057343.844    15450772.718 5  12150379.16549  27057349.6684
  26099294.359    -3217844.977 5  -2440689.99549  26099299.3984
  23387268.484    -2680306.902 7  -2018638.83649  23387270.2774
 95  2 19 19 38 30.0080000  0  8 18 14 28 19 31 22 27 29
  22759791.227    -9343176.863 7  -7222476.35049  22759793.1604
  26606448.945    22152030.392 5  17337832.31249  26606454.5354
  25877969.359    -2539940.827 6  -1938197.17349  25877973.0984
  23606470.812    -6098716.056 7  -6370142.38849  23606473.5084
  25566340.250    -3457010.804 6  -2624456.20149  25566345.0784
  27083997.383    15590838.002 4  12259520.77049  27084004.3014
  26092182.508    -3255218.219 5  -2469811.99349  26092187.4064
  23400679.953    -2609828.891 7  -1963720.94349  23400681.8404
 95  2 19 19 39  0.0080000  0  8 18 14 28 19 31 22 27 29
  22762840.734    -9327150.585 7  -7209988.35449  22762842.8444
  26634069.805    22297178.360 5  17450934.44148  26634075.9574
  25880235.937    -2528032.501 6  -1928917.92549  25880239.4184
  23607323.969    -6094230.916 7  -6366647.47749  23607326.9574
  25558648.891    -3497430.593 6  -2655952.06549  25558653.4844
  27110669.742    15730999.831 5  12368737.60649  27110675.4494
  26085087.445    -3292502.716 5  -2498864.84049  26085092.1684
  23414168.547    -2538946.910 7  -1908488.25849  23414170.5514
 95  2 19 19 39 30.0080000  0  8 18 14 28 19 31 22 27 29
  22765974.750    -9310681.642 7  -7197155.42149  22765976.7424
  26661690.297    22442329.641 5  17564039.20449  26661696.3444
  25882593.758    -2515640.393 6  -1919261.70849  25882597.2384
  23608216.289    -6089542.949 7  -6362994.51749  23608219.0314
  25551004.781    -3537598.599 6  -2687251.75449  25551009.6214
  27137356.453    15871239.650 5  12478015.30649  27137361.7624
  26078012.352    -3329685.157 5  -2527838.17049  26078016.9224
  23427735.484    -2467652.633 7  -1852934.31049  23427737.3594
 95  2 19 19 40  0.0080000  0  8 18 14 28 19 31 22 27 29
  22769188.437    -9293795.588 7  -7183997.46749  22769190.3834
  26689311.101    22587471.849 5  17677136.83548  26689316.3754
  25885040.859    -2502784.565 6  -1909244.17249  25885044.2344
  23609139.484    -6084692.561 7  -6359215.00649  23609142.0394
  25543406.039    -3577528.424 6  -2718365.84049  25543411.0084
  27164050.836    16011518.118 5  12587323.10749  27164055.6644
  26070950.226    -3366790.114 5  -2556751.10249  26070955.0554
  23441377.016    -2395965.641 7  -1797074.34949  23441378.7274
 95  2 19 19 40 30.0080000  0  8 18 14 28 19 31 22 27 29
  22772480.594    -9276494.082 7  -7170515.78349  22772482.3984
  26716927.531    22732599.606 5  17790223.22448  26716933.8594
  25887577.297    -2489452.638 6  -1898855.61849  25887580.5084
  23610090.906    -6079692.212 7  -6355318.63949  23610093.4494
  25535857.477    -3617197.338 6  -2749276.62449  25535863.4064
  27190750.836    16151827.531 5  12696655.01947  27190756.8484
  26063903.023    -3403825.131 5  -2585609.52549  26063907.6414
  23455096.945    -2323866.010 7  -1740892.85149  23455098.6804
 95  2 19 19 41  0.0080000  0  8 18 14 28 19 31 22 27 29
  22775850.328    -9258786.037 7  -7156717.31849  22775852.0514
  26744543.648    22877725.029 4  17903307.85047  26744549.1094
  25890205.891    -2475638.405 6  -1888091.26949  25890209.1844
  23611069.305    -6074550.513 7  -6351312.12849  23611072.1644
  25528362.125    -3656586.786 6  -2779969.65449  25528367.0704
  27217453.258    16292150.912 5  12805997.77449  27217458.5554
  26056865.766    -3440805.435 5  -2614425.33749  26056870.4774
  23468896.305    -2251350.720 7  -1684387.46549  23468898.2274
 95  2 19 19 41 30.0080000  0  8 18 14 28 19 31 22 27 29
  22779288.820    -9240716.728 7  -7142637.35249  22779290.8014
  26772156.922    23022828.764 5  18016375.48249  26772162.9224
  25892921.328    -2461370.285 6  -1876973.22949  25892925.1604
  23612070.633    -6069286.907 7  -6347210.62549  23612073.3634
  25520916.211    -3695716.938 6  -2810460.62449  25520920.6524
  27244152.164    16432456.491 3  12915326.64447  27244156.9694
  26049830.664    -3477775.303 5  -2643233.02649  26049834.5904
  23482766.344    -2178461.669 7  -1627590.83849  23482768.3014
 95  2 19 19 42  0.0080000  0  8 18 14 28 19 31 22 27 29
  22782795.172    -9222292.341 8  -7128280.69849  22782797.0474
  26799760.625    23167889.705 4  18129409.82748  26799765.8054
  25895721.133    -2446656.338 6  -1865507.80349  25895725.5514
  23613096.102    -6063899.866 7  -6343012.93949  23613098.5044
  25513517.617    -3734594.274 6  -2840754.61549  25513522.6334
  27270848.547    16572743.583 3  13024641.08548  27270853.7854
  26042794.937    -3514749.400 5  -2672043.99849  26042799.7194
  23496702.758    -2105225.485 7  -1570523.70949  23496704.6804
 95  2 19 19 42 30.0080000  0  8 18 14 28 19 31 22 27 29
  22786371.547    -9203495.943 7  -7113634.16649  22786373.6214
  26827359.039    23312918.099 5  18242418.75947  26827364.7934
  25898608.414    -2431482.168 6  -1853683.75249  25898612.7974
  23614151.336    -6058354.380 7  -6338691.78849  23614153.9964
  25506169.617    -3773208.466 6  -2870843.53849  25506173.7894
  27297546.109       18701.37514
  26035764.977    -3551694.577 5  -2700832.44349  26035769.0434
  23510705.281    -2031643.763 7  -1513187.33549  23510707.1914
 95  2 19 19 43  0.0080000  0  8 18 14 28 19 31 22 27 29
  22790019.664    -9184325.574 7  -7098696.22849  22790021.9024
  26854954.609    23457932.335 5  18355416.69049  26854960.2934
  25901583.492    -2415847.193 6  -1841500.64249  25901587.5594
  23615237.891    -6052643.947 7  -6334242.11649  23615240.6804
  25498870.422    -3811564.816 6  -2900731.56049  25498875.1094
  27324248.492      159023.418 5
  26028741.656    -3588601.419 5  -2729591.02749  26028745.4884
  23524772.703    -1957718.911 7  -1455583.58949  23524774.7074
 95  2 19 19 43 30.0080000  0  8 18 14 28 19 31 22 27 29
  22793745.117    -9164747.017 7  -7083440.22149  22793747.3094
  26882548.727    23602939.001 5  18468408.72449  26882554.7264
  25904651.359    -2399728.616 6  -1828940.69349  25904654.8054
  23616360.086    -6046747.757 7  -6329647.68849  23616363.0514
  25491622.391    -3849653.690 6  -2930411.15549  25491627.6294
  27350962.766      299408.096 5     80220.80359  27350968.6724
  26021734.031    -3625427.325 5  -2758286.52249  26021738.5784
  23538910.937    -1883421.278 7  -1397689.36149  23538913.0004
 95  2 19 19 44  0.0080000  0  8 18 14 28 19 31 22 27 29
  22797550.102    -9144753.542 7  -7067860.90049  22797552.0704
  26910138.305    23747920.379 5  18581381.05348  26910143.8124
  25907808.953    -2383130.729 6  -1816007.26649  25907812.8444
  23617515.648    -6040674.526 7  -6324915.31849  23617518.6604
  25484422.976    -3887485.655 6  -2959890.56149  25484428.3674
  27377689.523      439862.315 5    189665.55849  27377695.7694
  26014742.000    -3662165.358 5  -2786913.55749  26014746.9694
  23553122.297    -1808739.640 7  -1339495.91549  23553124.3124
 95  2 19 19 44 30.0080000  0  8 18 14 28 19 31 22 27 29
  22801437.336    -9124323.783 7  -7051941.62649  22801439.4694
  26937725.578    23892892.119 5  18694345.86549  26937731.0044
  25911062.055    -2366038.892 6  -1802688.94149  25911065.9804
  23618706.406    -6034417.396 7  -6320039.64749  23618709.3124
  25477277.805    -3925035.402 6  -2989150.06949  25477282.7734
  27404431.773      580387.277 5    299165.41449  27404437.5624
  26007769.555    -3698806.659 5  -2815465.21049  26007774.6644
  23567409.914    -1733657.785 7  -1280990.61449  23567411.9064
 95  2 19 19 45  0.0080000  0  8 18 14 28 19 31 22 27 29
  22805407.883    -9103459.744 8  -7035683.94249  22805410.0164
  26965307.953    24037836.421 5  18807289.29349  26965313.8834
  25914405.891    -2348465.567 6  -1788995.43149  25914410.0864
  23619925.336    -6028012.807 7  -6315049.06749  23619927.9024
  25470183.195    -3962318.590 6  -3018201.85949  25470187.2034
  27431180.102      720946.135 5    408691.65849  27431185.7624
  26000809.430    -3735384.639 5  -2843967.51749  26000813.7304
  23581773.234    -1658179.143 7  -1222176.12049  23581775.2734
 95  2 19 19 45 30.0080000  0  8 18 14 28 19 31 22 27 29
  22809466.859    -9082130.604 8  -7019063.84249  22809468.7584
  26992884.086    24182751.064 5  18920209.61848  26992889.9454
  25917844.851    -2330392.331 6  -1774912.37949  25917849.2584
  23621175.461    -6021443.074 7  -6309929.80949  23621178.1334
  25463142.312    -3999317.020 6  -3047031.74349  25463146.7774
  27457933.820      861540.407 5    518245.53949  27457940.1484
  25993863.086    -3771886.016 5  -2872410.12749  25993866.7774
  23596213.609    -1582292.861 7  -1163043.98649  23596215.7544
 95  2 19 19 46  0.0080000  0  8 18 14 28 19 31 22 27 29
  22813615.227    -9060330.465 8  -7002076.73349  22813616.9844
  27020457.898    24327656.064 4  19033122.43849  27020463.7114
  25921380.289    -2311813.917 6  -1760435.70549  25921384.6134
  23622457.656    -6014705.193 7  -6304679.51849  23622460.4574
  25456162.687    -4035994.169 6  -3075611.28449  25456167.2344
  27484694.875     1002174.039 3    627830.05847  27484701.2034
  25986931.031    -3808318.435 5  -2900799.02349  25986934.5234
  23610730.625    -1506007.377 7  -1103600.79149  23610732.7114
 95  2 19 19 46 30.0080000  0  8 18 14 28 19 31 22 27 29
  22817852.398    -9038063.644 8  -6984725.97649  22817854.2384
  27048028.930    24472537.906 4  19146017.19049  27048034.6134
  25925011.406    -2292734.840 6  -1745568.88549  25925015.4494
  23623771.219    -6007803.411 7  -6299301.51649  23623773.6914
  25449247.039    -4072335.682 6  -3103929.29349  25449251.3984
  27511460.414     1142827.519 3    737430.01247  27511466.2624
  25980008.578    -3844697.395 5  -2929146.23049  25980012.1524
  23625320.414    -1429337.684 7  -1043858.21149  23625322.3244
 95  2 19 19 47  0.0080000  0  7 18 14 28 19 31 27 29
  22822172.531    -9015361.657 8  -6967036.13049  22822174.2304
  27075585.601    24617347.437 4  19258855.59848  27075590.7234
  25928731.312    -2273184.149 6  -1730334.57949  25928735.4374
  23625111.078    -6000761.747 7  -6293814.51349  23625113.4574
  25442390.062    -4108372.397 6  -3132009.78049  25442394.5394
  25973089.008    -3881054.916 5  -2957476.73449  25973093.6254
  23639978.797    -1352307.897 7   -983835.03649  23639980.7074
 95  2 19 19 47 30.0080000  0  7 18 14 28 19 31 27 29
  22826574.664    -8992228.718 8  -6949010.47349  22826576.5744
  27103127.898    24762087.308 4  19371639.72547  27103134.6374
  25932543.664    -2253153.149 6  -1714726.01649  25932547.3204
  23626481.516    -5993559.600 7  -6288202.45849  23626484.0594
  25435595.133    -4144077.332 6  -3159831.75349  25435599.5394
  25966179.703    -3917366.174 5  -2985771.21549  25966183.9694
  23654707.805    -1274904.996 7   -923521.12849  23654709.6914
 95  2 19 19 48  0.0090000  0  6 18 28 19 31 27 29
  22831057.935    -8968669.649 8  -6930652.76949  22831059.8804
  25936447.552    -2232636.787 6  -1698739.24149  25936451.5954
  23627882.841    -5986196.551 7  -6282465.02149  23627885.3724
  25428865.606    -4179440.191 6  -3187387.14749  25428870.8334
  25959278.395    -3953627.500 5  -3014026.77049  25959282.6964
  23669511.185    -1197112.793 7   -862903.86349  23669513.1184
 95  2 19 19 48 30.0090000  0  7 18 14 28 19 31 27 29
  22835622.130    -8944684.964 8  -6911963.41849  22835623.6884
  27158175.317      110846.71714
  25940445.247    -2211630.595 6  -1682370.76349  25940448.9034
  23629315.333    -5978668.652 7  -6276599.13349  23629317.7474
  25422198.802    -4214475.329 6  -3214687.18849  25422203.1144
  25952388.317    -3989835.376 5  -3042240.68649  25952393.2744
  23684392.122    -1118913.469 7   -801969.36249  23684394.0204
 95  2 19 19 49  0.0090000  0  6 18 28 19 31 27 29
  22840263.895    -8920291.541 8  -6892955.56749  22840265.4424
  25944535.138    -2190136.994 6  -1665622.49849  25944538.5834
  23630776.653    -5970988.418 7  -6270614.53749  23630778.9274
  25415590.036    -4249203.630 6  -3241748.14249  25415594.4894
  25945510.411    -4025984.063 5  -3070408.46049  25945514.8644
  23699350.317    -1040307.145 7   -740717.71549  23699352.5204
 95  2 19 19 49 30.0090000  0  7 18 14 28 19 31 27 29
  22844985.020    -8895481.771 8  -6873623.29149  22844986.6964
  27213180.872      134869.05213
  25948721.255    -2168139.703 6  -1648481.73649  25948724.5834
  23632269.974    -5963142.230 7  -6264500.62649  23632272.2124
  25409041.302    -4283616.149 6  -3268563.01649  25409045.9774
  25938645.880    -4062060.468 6  -3098519.90249  25938650.0174
  23714389.294     -961278.254 7   -679136.80249  23714391.3564
 95  2 19 19 50  0.0090000  0  7 18 14 28 19 31 27 29
  22849784.708    -8870259.950 8  -6853969.93149  22849786.5244
  27240674.044      279341.684 4     48773.63858  27240679.8924
  25953001.630    -2145644.570 6  -1630953.03949  25953004.6304
  23633795.559    -5955126.137 7  -6258254.31849  23633797.7744
  25402549.380    -4317732.290 6  -3295146.95049  25402554.0674
  25931791.333    -4098080.913 6  -3126587.76249  25931795.0364
  23729506.099     -881838.665 7   -617235.86149  23729507.9034
 95  2 19 19 50 30.0090000  0  7 18 14 28 19 31 27 29
  22854664.341    -8844617.052 8  -6833988.47049  22854665.9354
  27268160.810      134808.94413    161327.41148  27268165.2984
  25957378.450    -2122642.168 6  -1613029.06249  25957381.6844
  23635356.231    -5946922.465 7  -6251861.84749  23635358.5404
  25396115.270    -4351547.445 6  -3321496.35449  25396119.0204
  25924947.599    -4134038.765 5  -3154606.85549  25924951.2084
  23744700.708     -801991.099 7   -555017.01949  23744702.5714
 95  2 19 19 51  0.0090000  0  7 18 14 28 19 31 27 29
  22859623.809    -8818553.280 8  -6813679.05549  22859625.6734
  27295639.528      279209.456 4    273847.09547  27295644.9314
  25961852.349    -2099131.952 6  -1594709.37849  25961856.1814
  23636955.388    -5938518.647 7  -6245313.42049  23636957.9894
  25389738.919    -4385053.467 6  -3347604.86049  25389742.9854
  25918119.513    -4169922.428 5  -3182568.13049  25918124.2824
  23759970.903     -721746.018 7   -492488.42549  23759972.8374
 95  2 19 19 51 30.0090000  0  7 18 14 28 19 31 27 29
  22864672.466    -8792024.598 8  -6793007.36549  22864674.2474
  27323108.505      423557.897 3    386326.23948  27323115.0094
  25966427.841    -2075090.644 6  -1575975.85649  25966431.5564
  23638598.927    -5929881.690 7  -6238583.32449  23638601.6224
  25383428.372    -4418216.054 6  -3373445.76549  25383432.5444
  25911309.583    -4205707.087 5  -3210452.27949  25911314.1184
  23775321.286     -641080.287 7   -429632.05849  23775323.1144
 95  2 19 19 52  0.0090000  0  7 18 14 28 19 31 27 29
  22869813.731    -8765007.367 8  -6771954.99949  22869815.0914
  27350567.802      567865.007 3    498773.14846  27350575.5054
  25971105.341    -2050510.294 6  -1556822.30749  25971109.1614
  23640286.731    -5921012.030 7  -6231671.91049  23640289.5324
  25377188.130    -4451007.261 6  -3398997.29849  25377191.5524
  25904522.653    -4241377.537 6  -3238247.42749  25904526.6144
  23790751.075     -559996.769 7   -366450.13449  23790752.9274
 95  2 19 19 52 30.0090000  0  7 18 14 28 19 31 27 29
  22875051.708    -8737481.098 8  -6750505.97349  22875053.1844
  27378020.770      712130.117 3    611187.32046  27378027.3684
  25975886.825    -2025381.778 6  -1537241.60749  25975890.2704
  23642015.224    -5911928.718 7  -6224594.00849  23642017.8724
  25371024.106    -4483397.148 6  -3424236.11049  25371028.4424
  25897758.138    -4276921.568 5  -3265944.08249  25897762.4504
  23806259.856     -478496.179 7   -302943.21949  23806261.7674
 95  2 19 19 53  0.0090000  0  7 18 14 28 19 31 27 29
  22880387.911    -8709440.274 8  -6728655.99049  22880389.4344
  27405464.841      856343.646 3    723561.28248  27405471.5204
  25980772.036    -1999710.424 6  -1517237.92049  25980775.2474
  23643781.763    -5902646.148 7  -6217360.84449  23643784.5524
  25364938.950    -4515375.978 6  -3449154.61749  25364943.0994
  25891016.763    -4312347.469 5  -3293548.66649  25891021.7904
  23821847.067     -396585.307 7   -239116.60849  23821849.0244
 95  2 19 19 53 30.0090000  0  7 18 14 28 19 31 27 29
  22885825.583    -8680864.086 8  -6706388.84549  22885827.0954
  27432904.114     1000540.650 3    835922.37346  27432909.9624
  25985762.911    -1973482.696 6  -1496800.71349  25985766.6264
  23645585.114    -5893169.501 7  -6209976.45449  23645587.5994
  25358933.536    -4546932.611 6  -3473744.14049  25358937.4504
  25884297.145    -4347659.569 5  -3321064.57749  25884301.7394
  23837513.864     -314256.650 7   -174964.45149  23837515.6574
 95  2 19 19 54  0.0090000  0  7 18 14 28 19 31 27 29
  22891362.114    -8651769.679 8  -6683717.89149  22891363.7314
  27460341.505     1144725.976 3    948274.43945  27460348.0444
  25990860.044    -1946697.537 6  -1475929.14149  25990863.5244
  23647423.755    -5883507.189 7  -6202447.39149  23647426.4384
  25353007.028    -4578077.123 6  -3498012.54049  25353011.3524
  25877596.474    -4382872.596 6  -3348503.31249  25877601.1024
  23853258.614     -231517.115 7   -110492.12749  23853260.4544
 95  2 19 19 54 30.0090000  0  6 18 28 19 31 27 29
  22896996.153    -8622162.837 8  -6660647.63549  22896997.7354
  25996063.888    -1919350.779 6  -1454619.96749  25996066.8064
  23649300.731    -5873642.968 7  -6194760.98949  23649303.5914
  25347156.856    -4608822.185 6  -3521969.67349  25347160.5244
  25870913.208    -4417995.054 6  -3375871.46049  25870917.3684
  23869083.591     -148356.494 7    -45691.68249  23869085.6534
 95  2 19 19 55  0.0090000  0  7 18 28 19 31  2 27 29
  22902719.059    -8592088.482 8  -6637213.08849  22902720.6184
  26001368.255    -1891475.302 6  -1432898.81549  26001371.7124
  23651213.005    -5863593.895 7  -6186930.54849  23651215.7594
  25341371.317    -4639223.292 6  -3545658.79949  25341375.3844
  27519864.552      -34956.35913
  25864239.505    -4453062.075 5  -3403196.40749  25864243.7594
  23884984.177      -64798.476 7     19418.42149  23884986.4034
 95  2 19 19 55 30.0090000  0  7 18 28 19 31  2 27 29
  22908531.208    -8561545.823 8  -6613413.63049  22908532.8724
  26006777.810    -1863048.698 6  -1410748.21649  26006781.4544
  23653164.645    -5853340.439 7  -6178940.85149  23653167.1884
  25335653.224    -4669272.790 6  -3569073.93049  25335657.0204
  27508149.208      -96523.052 3
  25857582.888    -4488043.903 6  -3430454.96449  25857587.5284
  23900965.474       19184.347 7     84859.54349  23900967.6774
 95  2 19 19 56  0.0090000  0  7 18 28 19 31  2 27 29
  22914432.755    -8530532.855 8  -6589247.69349  22914434.5014
  26012294.552    -1834058.117 6  -1388158.14749  26012298.2434
  23655160.020    -5842854.330 7  -6170769.86449  23655162.4584
  25330007.333    -4698940.059 6  -3592191.23849  25330011.2704
  27496470.591     -157904.298 3    -22301.38558  27496474.3524
  25850947.739    -4522912.650 6  -3457625.42749  25850951.0324
  23917032.520      103616.614 7    150650.87849  23917034.7354
 95  2 19 19 56 30.0090000  0  7 18 28 19 31  2 27 29
  22920421.849    -8499059.872 8  -6564723.30549  22920423.6774
  26017914.942    -1804524.182 6  -1365144.70449  26017918.4234
  23657197.450    -5832146.048 7  -6162425.74949  23657200.0874
  25324433.911    -4728230.577 6  -3615014.96649  25324438.1654
  27484820.278     -219107.753 2    -69992.29245  27484827.3494
  25844332.489    -4557674.773 6  -3484712.78849  25844336.3924
  23933184.145      188492.933 7    216788.23549  23933186.2084
 95  2 19 19 57  0.0090000  0  7 18 28 19 31  2 27 29
  22926502.411    -8467106.622 8  -6539824.67849  22926504.0174
  26023640.864    -1774432.613 6  -1341696.73849  26023644.6494
  23659278.645    -5821210.108 7  -6153904.24049  23659281.2354
  25318937.255    -4757114.327 6  -3637521.71949  25318941.1814
  27473211.224     -280118.517 3   -117533.01747  27473216.8254
  25837742.747    -4592303.281 6  -3511696.01349  25837747.1184
  23949421.270      273821.734 7    283278.16849  23949423.5094
 95  2 19 19 57 30.0090000  0  7 18 28 19 31  2 27 29
  22932675.950    -8434663.546 8  -6514544.37049  22932677.4974
  26029473.356    -1743781.043 6  -1317812.39949  26029477.2004
  23661401.286    -5810056.678 7  -6145213.26049  23661403.6424
  25313521.747    -4785572.923 6  -3659697.19849  25313525.6494
  27461636.036                      -34453.01915
  25831176.731    -4626807.739 6  -3538582.57449  25831181.1964
  23965743.903      359597.115 7    350116.08649  23965746.3064
 95  2 19 19 58  0.0090000  0  7 18 28 19 31  2 27 29
  22938942.442    -8401733.248 8  -6488884.41049  22938944.0484
  26035409.263    -1712587.211 6  -1293505.52149  26035412.7904
  23663561.778    -5798703.366 7  -6136366.52449  23663564.1694
  25308185.481    -4813616.255 6  -3681549.09249  25308189.1144
  27450083.911                      -95153.980 5
  25824631.020    -4661207.968 6  -3565387.93649  25824634.5954
  23982147.388      445797.223 7    417284.96049  23982149.7204
 95  2 19 19 58 30.0090000  0  7 18 28 19 31  2 27 29
  22945301.044    -8368319.143 8  -6462847.45549  22945302.6024
  26041447.661    -1680859.688 6  -1268782.79949  26041451.4934
  23665754.677    -5787178.303 7  -6127385.95749  23665757.1734
  25302924.364    -4841262.888 6  -3703091.86549  25302928.0674
  27438555.161                      -10084.68913
  25818101.645    -4695521.842 6  -3592126.00949  25818105.0794
  23998627.575      532401.075 7    484768.44549  23998629.9544
 95  2 19 19 59  0.0090000  0  7 18 28 19 31  2 27 29
  22951746.614    -8334446.335 8  -6436453.07249  22951748.1144
  26047584.356    -1648611.313 6  -1243654.21249  26047587.6964
  23667974.372    -5775512.431 7  -6118295.67249  23667976.8454
  25297735.364    -4868530.004 6  -3724338.90749  25297739.6064
  27427047.474                      -70560.644 3
  25811581.958    -4729779.849 6  -3618820.54549  25811585.9544
  24015177.708      619372.161 7    552538.07049  24015180.0994
 95  2 19 19 59 30.0090000  0  7 18 28 19 31  2 27 29
  22958279.622    -8300115.384 8  -6409701.69749  22958281.2044
  26053822.489    -1615827.667 6  -1218108.53549  26053826.1694
  23670224.427    -5763688.791 7  -6109082.45149  23670226.8294
  25292619.630    -4895413.527 6  -3745287.04049  25292623.5794
  27415563.130     -130916.087 4    -40751.43559  27415568.8604
  25805074.130    -4763976.830 6  -3645467.51049  25805077.8334
  24031801.692      706730.772 7    620609.66649  24031803.9774
 95  2 19 20  0  0.0090000  0  7 18 28 19 31  2 27 29
  22964903.169    -8265308.094 8  -6382579.14649  22964904.9624
  26060165.403    -1582494.080 6  -1192134.32949  26060169.1654
  23672509.755    -5751679.685 7  -6099724.71149  23672512.1694
  25287580.552    -4921893.798 6  -3765920.94149  25287584.7824
  27404106.856     -191111.567 4    -87656.96346  27404112.5994
  25798583.106    -4798087.643 6  -3672047.35049  25798587.2314
  24048502.692      794496.876 7    688998.79049  24048505.1884
 95  2 19 20  0 30.0090000  0  7 18 28 19 31  2 27 29
  22971619.208    -8230016.127 8  -6355078.92749  22971620.9194
  26066613.403    -1548611.945 6  -1165732.68049  26066616.5444
  23674830.872    -5739481.498 7  -6090219.64049  23674833.1454
  25282620.356    -4947961.164 6  -3786233.10949  25282623.8024
  27392684.325     -251139.067 3   -134431.53747  27392691.0524
  25792107.317    -4832123.215 6  -3698568.56349  25792111.1854
  24065280.669      882664.914 7    757701.11249  24065283.0364
 95  2 19 20  1  0.0090000  0  7 18 28 19 31  2 27 29
  22978430.661    -8194222.007 8  -6327187.42149  22978432.2084
  26073166.145    -1514177.744 6  -1138900.84949  26073169.3214
  23677191.161    -5727078.730 7  -6080555.14549  23677193.5174
  25277740.552    -4973603.094 6  -3806213.76549  25277744.1264
  27381294.481     -310993.373 4   -181071.13348  27381299.7084
  25785645.419    -4866073.626 6  -3725023.41649  25785648.8884
  24082137.075      971245.126 7    826724.60249  24082139.1964
 95  2 19 20  1 30.0090000  0  7 18 28 19 31  2 27 29
  22985337.114    -8157927.894 8  -6298906.31349  22985338.6024
  26079820.177    -1479210.357 6  -1111653.54349  26079822.9314
  23679588.927    -5714477.134 7  -6070735.72549  23679591.6574
  25272939.974    -4998829.899 6  -3825870.95349  25272943.8174
  27369935.560     -370686.972 5   -227585.52749  27369941.6064
  25779201.849    -4899939.905 6  -3751412.73449  25779205.4934
  24099072.880     1060243.295 7    896073.77949  24099075.2124
 95  2 19 20  2  0.0090000  0  7 18 28 19 31  2 27 29
  22992342.981    -8121112.384 8  -6270218.92249  22992344.5054
  26086575.927    -1443707.340 6  -1083988.86149  26086579.2314
  23682024.583    -5701678.899 7  -6060763.07749  23682027.1264
  25268221.192    -5023628.454 6  -3845194.43849  25268224.5204
  27358606.364     -430218.160 5   -273973.36549  27358611.7784
  25772773.825    -4933716.495 6  -3777732.13649  25772778.1024
  24116088.044     1149659.474 7    965748.67249  24116090.5524
 95  2 19 20  2 30.0090000  0  7 18 28 19 31  2 27 29
  22999450.349    -8083762.819 8  -6241115.37849  22999451.9894
  26093438.388    -1407644.095 6  -1055887.64449  26093441.9384
  23684501.122    -5688664.602 7  -6050622.06849  23684503.5604
  25263587.114    -5047979.120 6  -3864168.92949  25263590.8994
  27347311.880     -489572.593 5   -320223.50649  27347318.0914
  25766368.809    -4967372.557 6  -3803957.62849  25766373.5094
  24133186.333     1239512.763 7   1035764.17449  24133188.9814
 95  2 19 20  3  0.0090000  0  7 18 28 19 31  2 27 29
  23006654.216    -8045905.664 8  -6211616.31149  23006655.8804
  26100408.356    -1371017.558 6  -1027347.50349  26100411.9894
  23687018.013    -5675439.245 7  -6040316.60749  23687020.4504
  25259038.536    -5071882.092 6  -3882794.55949  25259042.7084
  27336050.184     -548751.544 3   -366336.84949  27336057.3844
  25759988.833    -5000901.090 6  -3830083.74149  25759993.6964
  24150370.497     1329813.672 7   1106128.46649  24150372.9704
 95  2 19 20  3 30.0090000  0  7 18 28 19 31  2 27 29
  23013948.372    -8007575.884 8  -6181748.96849  23013950.0484
  26107480.591    -1333849.946 6   -998385.73349  26107484.7044
  23689569.450    -5662031.895 7  -6029869.33049  23689571.8524
  25254570.177    -5095362.961 6  -3901091.29149  25254574.0914
  27324817.489     -607776.862 3   -412330.47648  27324823.9934
  25753625.677    -5034342.261 6  -3856141.79749  25753629.4034
  24167632.833     1420528.691 7   1176815.44549  24167635.2004
 95  2 19 20  4  0.0090000  0  7 18 28 19 31  2 27 29
  23021329.091    -7968790.262 8  -6151526.42149  23021330.6264
  26114655.497    -1296146.934 6   -969006.75949  26114658.9074
  23692151.364    -5648462.751 7  -6019295.98349  23692154.0484
  25250182.575    -5118421.395 6  -3919058.85749  25250186.7354
  27313612.864     -666666.571 5   -458218.44249  27313619.1694
  25747276.130    -5067711.062 6  -3882143.44949  25747279.5634
  24184968.880     1511629.738 7   1247803.22849  24184971.1534
 95  2 19 20  4 30.0090000  0  7 18 28 19 31  2 27 29
  23028797.849    -7929540.953 8  -6120942.56349  23028799.2204
  26121936.349    -1257888.086 6   -939194.67949  26121939.9814
  23694768.567    -5634709.136 7  -6008578.88649  23694771.1454
  25245879.638    -5141029.062 6  -3936675.17949  25245883.3994
  27302434.809     -725406.310 5   -503989.60149  27302440.5994
  25740943.520    -5100991.845 6  -3908076.50449  25740947.3884
  24202382.403     1603138.240 7   1319108.50549  24202385.0284
 95  2 19 20  5  0.0090000  0  7 18 28 19 31  2 27 29
  23036351.981    -7889844.279 8  -6090010.11149  23036353.4114
  26129316.731    -1219103.750 6   -908973.12549  26129320.2704
  23697413.841    -5620808.034 7  -5997746.86149  23697416.4774
  25241659.833    -5163207.779 6  -3953957.25249  25241663.7474
  27291276.559     -784033.900 5   -549673.37148  27291281.6694
  25734617.708    -5134230.475 6  -3933976.71549  25734621.7044
  24219868.763     1695029.108 7   1390711.73049  24219871.2594
 95  2 19 20  5 30.0090000  0  6 18 28 19 31 27 29
  23043998.763    -7849659.668 8  -6058697.44849  23044000.2744
  26136798.958    -1179782.948 6   -878333.53549  26136802.2274
  23700090.302    -5606743.889 7  -5986787.79749  23700092.7864
  25237522.911    -5184948.388 6  -3970897.94749  25237526.3214
  25728304.403    -5167406.098 6  -3959827.81849  25728308.8454
  24237429.216     1787308.440 7   1462617.65149  24237431.4194
 95  2 19 20  6  0.0090000  0  7 18 28 19 31  2 27 29
  23051738.138    -7808988.951 8  -6027006.00249  23051739.6264
  26144383.075    -1139928.907 6   -847278.43549  26144386.6144
  23702797.786    -5592514.933 7  -5975700.30349  23702800.2354
  25233469.130    -5206249.390 6  -3987496.10549  25233472.9154
  27269031.716      -33068.39815
  25722004.747    -5200507.778 6  -3985621.31149  25722009.4934
  24255063.130     1879976.665 7   1534826.61249  24255065.2984
 95  2 19 20  6 30.0090000  0  7 18 28 19 31  2 27 29
  23059570.200    -7767831.087 8  -5994934.96049  23059571.9704
  26152067.020    -1099546.847 6   -815811.90149  26152071.0994
  23705539.349    -5578108.569 7  -5964474.57149  23705542.1384
  25229495.036    -5227131.825 6  -4003768.09749  25229498.8104
  27257948.880      -91310.672 5    -10576.78559  27257955.0094
  25715718.224    -5233546.338 6  -4011365.62449  25715722.9584
  24272771.224     1973031.031 7   1607336.45449  24272773.4274
 95  2 19 20  7  0.0090000  0  7 18 28 19 31  2 27 29
  23067500.005    -7726160.545 8  -5962464.43249  23067501.6694
  26159855.942    -1058618.277 6   -783919.50849  26159859.6814
  23708318.106    -5563505.741 7  -5953095.73749  23708320.6494
  25225602.036    -5247590.519 6  -4019709.90949  25225605.9274
  27246899.911     -149369.555 5    -55817.37949  27246905.4894
  25709446.794    -5266502.240 6  -4037045.53149  25709451.5404
  24290553.106     2066475.979 7   1680150.64949  24290555.1694
 95  2 19 20  7 30.0090000  0  7 18 28 19 31  2 27 29
  23075524.497    -7683991.475 8  -5929605.43949  23075526.1734
  26167745.411    -1017155.730 6   -751611.03849  26167749.5714
  23711132.786    -5548714.791 7  -5941570.32049  23711135.3064
  25221786.802    -5267640.118 6  -4035332.93649  25221790.2244
  27235888.536     -207235.902 5   -100907.91949  27235895.1454
  25703190.614    -5299378.814 6  -4062663.61949  25703194.8924
  24308403.841     2160282.046 7   1753246.23649  24308406.2084
 95  2 19 20  8  0.0090000  0  7 18 28 19 31  2 27 29
  23083639.474    -7641346.381 8  -5896375.51949  23083641.1964
  26175736.934     -975162.366 6   -718888.94049  26175740.8374
  23713982.708    -5533739.049 7  -5929900.90949  23713985.1574
  25218048.888    -5287282.900 6  -4050638.96149  25218052.1814
  27224917.286     -264887.049 5   -145830.82748  27224922.2434
  25696945.630    -5332197.873 6  -4088236.88249  25696949.8604
  24326321.974     2254443.079 7   1826618.42449  24326324.5174
 95  2 19 20  8 30.0090000  0  7 18 28 19 31  2 27 29
  23091845.942    -7598221.255 8  -5862771.54449  23091847.6424
  26183829.481     -932633.876 6   -685749.85949  26183832.9384
  23716868.958    -5518570.239 7  -5918081.05549  23716871.5134
  25214390.724    -5306506.050 6  -4065618.00349  25214394.3564
  27213987.067     -322329.032 5   -190590.77049  27213993.2904
  25690713.880    -5364946.286 6  -4113755.10849  25690717.5834
  24344309.450     2348968.641 7   1900274.65449  24344312.1104
 95  2 19 20  9  0.0090000  0  7 18 28 19 31  2 27 29
  23100141.216    -7554628.556 8  -5828803.23049  23100142.7044
  26192023.270     -889575.996 6   -652198.27349  26192027.1494
  23719787.669    -5503231.395 7  -5906128.70949  23719790.4354
  25210814.966    -5325295.719 6  -4080259.26649  25210818.5054
  27203088.716     -379595.999 5   -235214.28449  27203093.8024
  25684496.349    -5397617.712 6  -4139213.35049  25684499.7704
  24362367.591     2443863.043 7   1974218.30249  24362370.0754
 95  2 19 20  9 30.0090000  0  7 18 28 19 31  2 27 29
  23108522.997    -7510582.180 8  -5794481.39949  23108524.6844
  26200317.669     -845986.954 6   -618232.80249  26200321.7124
  23722741.005    -5487712.367 7  -5894035.95749  23722743.7124
  25207324.856    -5343636.652 6  -4094550.85649  25207328.5834
  27192222.536     -436700.169 5   -279710.92249  27192229.1344
  25678293.810    -5430216.284 6  -4164614.81449  25678297.8644
  24380498.388     2539139.509 7   2048459.65649  24380500.6144
 95  2 19 20 10  0.0090000  0  7 18 28 19 31  2 27 29
  23116991.575    -7466080.761 8  -5759804.98949  23116993.2044
  26208715.747     -801856.556 6   -583845.48749  26208719.8024
  23725730.278    -5472003.184 7  -5881795.03849  23725732.9974
  25203923.114    -5361512.102 6  -4108479.74049  25203926.7704
  27181384.497     -493655.388 5   -324091.50349  27181390.2634
  25672105.731    -5462727.628 6  -4189948.30749  25672110.0324
  24398706.309     2634824.085 7   2123019.01349  24398708.6654
 95  2 19 20 10 30.0090000  0  7 18 28 19 31  2 27 29
  23125547.950    -7421115.578 8  -5724767.20749  23125549.6854
  26217215.474     -757190.536 6   -549040.80749  26217219.4114
  23728754.544    -5456112.054 7  -5869412.34249  23728757.0634
  25200611.731    -5378913.687 6  -4122039.37249  25200615.6574
  27170568.067     -550495.647 5   -368382.54049  27170573.5524
  25665938.177    -5495141.398 6  -4215205.76049  25665943.0404
  24416992.130     2730916.939 7   2197896.51849  24416994.6854
 95  2 19 20 11  0.0090000  0  7 18 28 19 31  2 27 29
  23134197.380    -7375663.538 8  -5689350.05249  23134199.1964
  26225820.692     -711971.578 6   -513805.27249  26225824.8294
  23731815.685    -5440025.429 7  -5856877.31749  23731818.0524
  25197392.411    -5395834.249 6  -4135224.18349  25197395.6104
  27159775.669     -607205.507 5   -412571.97849  27159780.5564
  25659790.247    -5527446.881 6  -4240378.83349  25659794.5714
  24435357.200     2827425.944 7   2273098.28849  24435359.5324
 95  2 19 20 11 30.0100000  0  7 18 28 19 31  2 27 29
  23142940.088    -7329720.088 8  -5653549.98349  23142941.7994
  26234527.705     -666213.212 6   -478149.42449  26234531.7134
  23734911.127    -5423757.373 7  -5844200.91649  23734913.7644
  25194259.666    -5412294.377 6  -4148050.22049  25194263.0644
  27149007.510     -663793.859 4   -456666.70349  27149013.4044
  25653659.228    -5559666.472 6  -4265484.97849  25653663.4004
  24453797.299     2924329.722 7   2348607.67549  24453799.7834
 95  2 19 20 12  0.0100000  0  7 18 28 19 31  2 27 29
  23151779.893    -7283266.454 8  -5617352.37049  23151781.6394
  26243337.502     -619919.704 6   -442076.58549  26243340.9714
  23738038.713    -5407323.236 7  -5831395.09849  23738041.5024
  25191213.666    -5428298.333 6  -4160520.79849  25191216.9124
  27138265.010     -720246.709 5   -500655.80049  27138270.0374
  25647546.947    -5591786.314 6  -4290513.40749  25647551.3774
  24472310.611     3021617.688 7   2424416.42849  24472313.0024
 95  2 19 20 12 30.0100000  0  7 18 28 19 31  2 27 29
  23160718.322    -7236295.945 8  -5580751.99649  23160720.1034
  26252248.275     -573090.669 6   -405586.44249  26252252.1424
  23741196.338    -5390729.324 7  -5818464.77849  23741199.1154
  25188254.111    -5443850.681 6  -4172639.47549  25188257.4754
  27127552.346     -776548.135 5   -544527.01549  27127557.7014
  25641451.814    -5623819.136 6  -4315474.02249  25641456.3964
  24490895.596     3119281.519 7   2500518.06649  24490898.0334
 95  2 19 20 13  0.0100000  0  7 18 28 19 31  2 27 29
  23169755.978    -7188802.662 8  -5543744.26649  23169757.6664
  26261263.471     -525717.659 6   -368672.43249  26261267.4084
  23744386.689    -5373966.518 7  -5805402.85749  23744389.3734
  25185382.158    -5458945.960 6  -4184402.00049  25185385.4754
  27116872.424     -832665.976 5   -588255.14149  27116878.5644
  25635370.736    -5655773.466 6  -4340373.45749  25635375.1544
  24509552.432     3217323.260 7   2576914.17849  24509555.0684
 95  2 19 20 13 30.0100000  0  7 18 28 19 31  2 27 29
  23178895.807    -7140772.404 8  -5506318.11149  23178897.4124
  26270385.166     -477782.370 6   -331320.28747  26270389.7134
  23747612.072    -5357016.118 7  -5792194.76449  23747614.5924
  25182601.674    -5473554.540 6  -4195785.27549  25182605.3774
  27106234.416     -888564.959 4   -631812.71548  27106240.1584
  25629307.971    -5687633.667 6  -4365199.55849  25629311.7094
  24528286.986     3315774.324 7   2653629.23949  24528289.7994
 95  2 19 20 14  0.0100000  0  7 18 28 19 31  2 27 29
  23188131.533    -7092237.528 8  -5468498.74749  23188133.0804
  26279611.432     -429301.421 6   -293543.00647  26279617.2794
  23750872.775    -5339878.622 7  -5778840.87849  23750875.3184
  25179912.580    -5487686.461 6  -4206797.14449  25179916.5294
  27095636.400     -944257.894 5   -675209.71749  27095642.5644
  25623260.002    -5719417.069 6  -4389965.82349  25623263.4244
  24547097.525     3414623.806 7   2730654.76249  24547100.1504
 95  2 19 20 14 30.0100000  0  7 18 28 19 31  2 27 29
  23197460.807    -7043212.275 8  -5430297.27549  23197462.6004
  26288939.494     -380279.456 6
  23754170.611    -5322550.454 7  -5765338.41049  23754173.2484
  25177315.783    -5501333.143 6  -4217430.90249  25177319.9434
  27085076.197     -999754.074 5   -718453.44349  27085082.4434
  25617223.775    -5751136.865 6  -4414682.51549  25617227.3504
  24565982.494     3513864.349 7   2807984.99949  24565985.0724
 95  2 19 20 15  0.0100000  0  7 18 28 19 31  2 27 29
  23206883.432    -6993695.227 8  -5391712.57649  23206885.3894
  26298372.338     -330710.206 6
  23757508.416    -5305009.264 7  -5751669.94849  23757511.0884
  25174812.728    -5514486.173 6  -4227679.99249  25174816.5254
  27074553.502    -1055055.173 5   -761545.16349  27074559.6074
  25611201.072    -5782785.004 6  -4439343.36949  25611204.9394
  24584943.096     3613502.366 7   2885624.95849  24584945.7794
 95  2 19 20 15 30.0100000  0  7 18 28 19 31  2 27 29
  23216399.697    -6943687.673 8  -5352745.66549  23216401.7134
  26307909.416     -280592.526 6     35166.05459  26307913.3654
  23760886.424    -5287259.689 7  -5737839.11049  23760888.7794
  25172404.377    -5527141.945 6  -4237541.61749  25172407.8814
  27064065.596    -1110163.804 5   -804486.91049  27064071.2794
  25605194.369    -5814350.986 6  -4463940.20749  25605198.6704
  24603978.971     3713537.732 7   2963574.54349  24603981.8304
 95  2 19 20 16  0.0100000  0  7 18 28 19 31  2 27 29
  23226007.182    -6893200.747 8  -5313405.22349  23226009.2324
  26317548.447     -229940.845 6     74634.87349  26317552.3854
  23764298.869    -5269325.154 7  -5723864.14949  23764301.2014
  25170088.900    -5539311.871 6  -4247024.64849  25170092.5804
  27053610.900    -1165101.888 5   -847295.75549  27053616.4554
  25599199.244    -5845854.948 6  -4488488.72949  25599203.8144
  24623082.025     3813924.470 7   3041797.92149  24623084.9674
 95  2 19 20 16 30.0100000  0  7 18 28 19 31  2 27 29
  23235707.807    -6842223.853 8  -5273682.98349  23235709.9634
  26327289.439     -178749.703 6    114524.04849  26327292.7914
  23767743.807    -5251222.544 7  -5709758.21649  23767746.4324
  25167866.002    -5550993.130 6  -4256126.90749  25167869.1894
  27043193.564    -1219854.407 5   -889959.99349  27043199.2954
  25593216.510    -5877292.908 6  -4512985.81449  25593221.2674
  24642250.830     3914658.422 7   3120291.85849  24642253.5724
 95  2 19 20 17  0.0100000  0  7 18 28 19 31  2 27 29
  23245503.619    -6790745.455 8  -5233569.96549  23245505.6234
  26337134.291     -127013.563 6    154837.90549  26337137.8304
  23771219.236    -5232959.015 7  -5695526.89149  23771221.8504
  25165734.182    -5562196.832 6  -4264857.03549  25165737.3344
  27032812.338    -1274402.854 5   -932465.19049  27032817.9984
  25587247.775    -5908659.572 6  -4537427.32849  25587252.2404
  24661487.197     4015743.558 7   3199059.43749  24661490.1504
 95  2 19 20 17 30.0100000  0  7 18 28 19 31  2 27 29
  23255394.143    -6738770.615 8  -5193070.10549  23255396.1234
  26347082.518      -74738.607 6    195571.61849  26347085.7524
  23774720.572    -5214558.796 7  -5681189.05849  23774722.9634
  25163691.689    -5572928.968 6  -4273219.70449  25163695.0884
  27022471.033    -1328744.497 5   -974809.25949  27022476.9164
  25581293.643    -5939951.807 6  -4561810.86149  25581297.0414
  24680789.244     4117177.417 7   3278098.75449  24680792.0684
 95  2 19 20 18  0.0100000  0  7 18 28 19 31  2 27 29
  23265377.252    -6686309.699 8  -5152191.48549  23265379.1744
  26357131.330      -21931.326 6    236720.14849  26357134.7644
  23778249.494    -5196013.966 7  -5666738.53649  23778252.0254
  25161737.017    -5583202.597 6  -4281225.09749  25161740.3104
  27012168.572    -1382887.331 5  -1016998.46649  27012174.2564
  25575352.189    -5971172.812 6  -4586138.88349  25575355.5414
  24700156.846     4218954.831 7   3357405.77249  24700159.2364
 95  2 19 20 18 30.0100000  0  7 18 28 19 31  2 27 29
  23275447.713    -6633388.502 8  -5110954.20749  23275449.5884
  26367277.236       31385.974 6    278266.09849  26367280.9044
  23781804.939    -5177329.736 7  -5652179.39349  23781807.4244
  25159863.471    -5593046.319 6  -4288895.49649  25159866.7404
  27001898.885    -1436851.296 5  -1059048.26249  27001904.1824
  25569423.197    -6002330.730 6  -4610417.73849  25569426.7714
  24719591.205     4321082.824 7   3436985.97349  24719594.0534
 95  2 19 20 19  0.0100000  0  7 18 28 19 31  2 27 29
  23285606.416    -6580002.389 8  -5069354.65549  23285608.5604
  26377520.986       85216.811 6    320212.18949  26377524.4084
  23785391.010    -5158485.539 7  -5637495.60049  23785393.3304
  25158075.299    -5602441.406 6  -4296216.30949  25158079.2134
  26991661.517    -1490643.721 5  -1100964.34949  26991667.7284
  25563508.400    -6033413.949 6  -4634638.39849  25563512.0924
  24739095.986     4423578.386 7   3516852.58749  24739098.8344
 95  2 19 20 19 30.0100000  0  8 18 16 28 19 31  2 27 29
  23295857.260    -6526135.783 8  -5027380.69449  23295859.2754
  27812415.744       -5404.80415
  26387865.353      139579.116 6    362572.41449  26387869.4554
  23789012.986    -5139451.989 7  -5622664.26249  23789015.4354
  25156380.244    -5611348.756 6  -4303157.06449  25156383.7484
  26981458.611    -1544264.403 5  -1142746.61249  26981464.0724
  25557610.103    -6064404.864 6  -4658787.13949  25557613.8424
  24758674.197     4526465.891 7   3597024.61349  24758677.0104
 95  2 19 20 20  0.0100000  0  8 18 16 28 19 31  2 27 29
  23306196.549    -6471802.233 8  -4985042.87749  23306198.5884
  27806280.760      -37641.758 5
  26398307.314      194453.465 6    405331.62849  26398311.0184
  23792668.643    -5120241.340 7  -5607694.92849  23792671.1504
  25154775.346    -5619780.154 6  -4309726.95349  25154779.1894
  26971283.322    -1597739.339 5  -1184415.36049  26971288.7014
  25551724.580    -6095333.221 6  -4682887.11349  25551728.6584
  24778323.619     4629724.173 7   3677485.56349  24778326.7604
 95  2 19 20 20 30.0100000  0  8 18 16 28 19 31  2 27 29
  23316630.143    -6416973.290 8  -4942319.04349  23316632.3574
  27800218.408      -69500.960 5    -15687.24559  27800224.4784
  26408850.049      249851.899 6    448499.21949  26408854.2324
  23796357.080    -5100858.937 7  -5592591.75849  23796359.4594
  25153266.971    -5627709.695 6  -4315905.78349  25153270.4634
  26961137.697    -1651057.724 5  -1225962.11149  26961143.3574
  25545852.072    -6126193.128 6  -4706933.75449  25545856.1744
  24798046.916     4733370.262 7   3758248.69849  24798049.8344
 95  2 19 20 21  0.0100000  0  8 18 16 28 19 31  2 27 29
  23327161.963    -6361628.467 8  -4899193.22049  23327164.2714
  27794239.025     -100921.752 5    -40170.92748  27794245.6114
  26419495.455      305796.533 6    492092.41649  26419499.7324
  23800079.049    -5081299.380 7  -5577350.55349  23800081.4754
  25151858.955    -5635108.022 6  -4321670.68649  25151862.4474
  26951024.119    -1704203.825 5  -1267374.62049  26951029.8854
  25539994.791    -6156974.786 6  -4730919.42649  25539998.5294
  24817846.619     4837415.880 7   3839323.15049  24817849.6194
 95  2 19 20 21 30.0100000  0  8 18 16 28 19 31  2 27 29
  23337789.971    -6305777.685 8  -4855673.15149  23337792.2564
  27788345.642     -131889.072 3    -64301.29346  27788353.9554
  26430244.994      362284.285 6    536108.81449  26430248.8854
  23803833.666    -5061569.939 7  -5561976.96549  23803836.0574
  25150550.236    -5641987.287 6  -4327031.12549  25150553.4824
  26940942.135    -1757179.065 5  -1308653.99049  26940947.9594
  25534151.080    -6187683.690 6  -4754848.41649  25534154.8184
  24837717.588     4941839.655 7   3920692.27649  24837720.5174
 95  2 19 20 22  0.0100000  0  8 18 16 28 19 31  2 27 29
  23348511.525    -6249435.249 8  -4811769.97249  23348514.1154
  27782542.189                      -11126.63213
  26441097.080      419310.424 6    580544.74949  26441100.7484
  23807618.861    -5041678.652 7  -5546477.25949  23807621.1464
  25149338.947    -5648351.134 6  -4331989.94949  25149342.0764
  26930896.291    -1809974.965 5  -1349793.63249  26930902.1504
  25528321.900    -6218316.865 6  -4778718.38849  25528325.8854
  24857657.080     5046622.272 7   4002341.01749  24857660.1504
 95  2 19 20 22 30.0100000  0  8 18 16 28 19 31  2 27 29
  23359330.611    -6192580.097 8  -4767467.27749  23359333.1894
  27776828.853                      -41149.833 3
  26452054.307      476893.103 6    625414.35449  26452057.4244
  23811438.611    -5021604.765 7  -5530835.27549  23811440.9204
  25148230.963    -5654173.168 6  -4336526.58649  25148234.3264
  26920887.072    -1862568.562 5  -1390775.62649  26920893.0254
  25522512.713    -6248844.773 6  -4802506.34349  25522516.7214
  24877669.010     5151784.902 7   4084285.87349  24877672.0104
 95  2 19 20 23  0.0100000  0  8 18 16 28 19 31  2 27 29
  23370242.228    -6135239.831 8  -4722786.57349  23370244.7134
  27771203.166      -70710.180 3    -21486.98256  27771208.7794
  26463115.385      535020.187 6    670708.16749  26463118.9594
  23815294.213    -5001343.009 7  -5515046.90149  23815296.4984
  25147223.291    -5659467.204 6  -4340651.78749  25147227.0064
  26910915.799    -1914970.554 5  -1431608.31649  26910921.4124
  25516721.658    -6279273.761 6  -4826217.21449  25516725.6194
  24897748.213     5257302.546 7   4166507.36649  24897751.2484
 95  2 19 20 23 30.0100000  0  8 18 16 28 19 31  2 27 29
  23381249.666    -6077395.187 8  -4677712.84749  23381252.1744
  27765663.057      -99822.665 3    -44171.99048  27765668.9864
  26474281.088      593695.248 6    716428.98249  26474285.5064
  23819189.713    -4980872.392 7  -5499095.77049  23819192.1504
  25146318.150    -5664225.599 6  -4344359.61749  25146321.9824
  26900985.682    -1967153.961 5  -1472270.67649  26900991.7284
  25510951.307    -6309599.838 6  -4849847.89649  25510955.5494
  24917895.103     5363175.928 7   4249006.04749  24917898.1274
 95  2 19 20 24  0.0100000  0  8 18 16 28 19 31  2 27 29
  23392355.994    -6019032.374 8  -4632235.35249  23392358.4084
  27760203.986     -128513.902 4    -66528.75749  27760209.8814
  26485550.228      652915.403 6    762574.52949  26485554.0254
  23823125.307    -4960190.480 7  -5482979.99849  23823127.8734
  25145513.432    -5668453.954 6  -4347654.42349  25145517.0414
  26891097.244    -2019114.561 5  -1512759.42549  26891103.2794
  25505198.135    -6339831.604 6  -4873405.09149  25505202.4714
  24938112.916     5469419.870 7   4331793.48649  24938115.8574
 95  2 19 20 24 30.0100000  0  8 18 16 28 19 31  2 27 29
  23403562.182    -5960143.741 8  -4586348.12949  23403564.3034
  27754820.424     -156797.880 4    -88568.17849  27754826.6704
  26496922.385      712676.611 6    809141.66649  26496926.2054
  23827101.478    -4939294.741 7  -5466697.60549  23827104.1154
  25144807.502    -5672164.159 6  -4350545.48149  25144811.1004
  26881252.268    -2070853.757 5  -1553075.65049  26881257.8224
  25499460.978    -6369980.623 6  -4896897.79549  25499465.9354
  24958400.885     5576032.636 7   4414868.31349  24958403.6504
 95  2 19 20 25  0.0100000  0  8 18 16 28 19 31  2 27 29
  23414867.111    -5900736.129 8  -4540056.50849  23414869.1744
  27749517.174     -184668.592 5   -110285.55849  27749523.8304
  26508398.807      772984.226 6    856134.58749  26508403.0604
  23831119.861    -4918181.106 7  -5450245.42849  23831122.2284
  25144200.463    -5675354.404 6  -4353031.37649  25144203.6624
  26871449.307    -2122370.169 5  -1593218.31249  26871455.1314
  25493738.736    -6400049.866 6  -4920328.33349  25493743.3184
  24978757.674     5683008.742 7   4498226.25449  24978760.4864
 95  2 19 20 25 30.0100000  0  8 18 16 28 19 31  2 27 29
  23426274.314    -5840790.246 7  -4493345.45249  23426276.6004
  27744295.603     -212107.719 5   -131666.67949  27744302.0844
  26519981.650      833853.553 6    903565.20049  26519985.5414
  23835179.947    -4896843.719 7  -5433618.89649  23835182.3734
  25143695.572    -5678006.335 6  -4355097.81449  25143698.7134
  26861690.400    -2173652.558 5  -1633178.58749  26861695.4044
  25488035.760    -6430021.261 6  -4943682.62649  25488039.7214
  24999187.736     5790369.797 6   4581884.16849  24999190.7954
 95  2 19 20 26  0.0100000  0  8 18 16 28 19 31  2 27 29
  23437776.736    -5780343.466 7  -4446244.08749  23437779.3034
  27739154.728     -239122.698 5   -152717.28449  27739160.7524
  26531667.627      895264.799 6    951418.10049  26531671.6004
  23839275.096    -4875323.276 7  -5416849.71949  23839277.4984
  25143290.697    -5680132.515 6  -4356754.56649  25143294.0604
  26851968.127    -2224743.814 5  -1672989.91149  26851974.1624
  25482349.658    -6459900.891 6  -4966965.40749  25482353.1394
  25019687.205     5898094.827 6   4665825.68849  25019690.4044
 95  2 19 20 26 30.0100000  0  8 18 16 28 19 31  2 27 29
  23449374.072    -5719398.953 7  -4398754.87949  23449376.8504
  27734102.439     -265676.307 5   -173408.38349  27734107.9474
  26543457.971      957224.489 6    999698.35349  26543461.1824
  23843404.182    -4853624.036 7  -5399941.22049  23843406.7604
  25142990.580    -5681710.715 6  -4357984.32149  25142994.3424
  26842283.439    -2275634.990 5  -1712645.30749  26842289.0884
  25476682.385    -6489682.569 6  -4990171.87049  25476686.3344
  25040254.385     6006175.151 7   4750044.06449  25040257.5144
 95  2 19 20 27  0.0100000  0  8 18 16 28 19 31  2 27 29
  23461065.111    -5657962.319 7  -4350882.20049  23461067.8534
  27729138.650     -291767.560 5   -193739.24249  27729143.8894
  26555351.885     1019724.739 6   1048399.81449  26555355.0724
  23847565.166    -4831757.607 7  -5382902.45249  23847567.9554
  25142794.182    -5682744.121 7  -4358789.56349  25142797.5684
  26832635.689    -2326333.663 5  -1752150.74549  26832641.5144
  25471032.361    -6519372.799 6  -5013307.06849  25471036.4514
  25060887.635     6114604.575 6   4834534.46649  25060890.7754
 95  2 19 20 27 30.0100000  0  8 18 16 28 19 31  2 27 29
  23472852.783    -5596016.467 7  -4302612.73049  23472855.3964
  27724263.596     -317388.224 4   -213703.33649  27724268.6234
  26567348.478     1082768.329 6   1097524.67249  26567352.1464
  23851758.955    -4809719.368 7  -5365729.80149  23851761.6974
  25142703.057    -5683223.888 7  -4359163.38949  25142706.2214
  26823029.947    -2376809.688 5  -1791482.67349  26823035.7134
  25465401.174    -6548965.599 6  -5036366.34649  25465405.0064
  25081589.924     6223395.028 6   4919306.18449  25081592.8534
 95  2 19 20 28  0.0100000  0  8 18 16 28 19 31  2 27 29
  23484737.541    -5533563.500 7  -4253948.10249  23484740.2484
  27719473.650     -342543.894 3   -233305.09447  27719481.5294
  26579447.041     1146343.882 6   1147064.02849  26579450.2874
  23855984.346    -4787513.294 7  -5348426.36549  23855987.3574
  25142715.119    -5683160.075 7  -4359113.65649  25142718.4004
  26813468.330    -2427056.435 5  -1830635.92349  26813474.2834
  25459783.947    -6578482.246 6  -5059366.27949  25459788.3654
  25102358.517     6332534.231 6   5004349.65649  25102361.8924
 95  2 19 20 28 30.0100000  0  8 18 16 28 19 31  2 27 29
  23496718.424    -5470603.942 7  -4204888.72649  23496720.9904
  27714774.064     -367246.120 4   -252553.64747  27714778.9754
  26591645.291     1210446.121 6   1197013.79849  26591649.5804
  23860245.783    -4765120.975 7  -5330977.80949  23860248.4084
  25142827.549    -5682567.826 7  -4358652.14549  25142830.9244
  26803953.705    -2477056.038 5  -1869596.59349  26803959.6354
  25454181.252    -6607928.252 6  -5082311.16149  25454184.8384
  25123192.275     6442018.533 6   5089662.04449  25123195.6034
 95  2 19 20 29  0.0100000  0  8 18 16 28 19 31  2 27 29
  23508798.674    -5407120.782 7  -4155421.35649  23508801.4514
  27710158.064                       -8842.38215
  26603945.369     1275083.461 6   1247380.49949  26603949.1434
  23864545.463    -4742525.536 7  -5313370.98149  23864548.0184
  25143043.002    -5681436.122 7  -4357770.29049  25143046.3894
  26794487.807    -2526802.505 5  -1908360.00549  26794493.6664
  25448596.072    -6637274.931 6  -5105178.66049  25448599.5174
  25144095.666     6551863.736 6   5175255.64949  25144098.6314
 95  2 19 20 29 30.0100000  0  8 18 16 28 19 31  2 27 29
  23520978.674    -5343117.314 7  -4105548.54549  23520981.1464
  27705625.689                      -32653.943 3
  26616347.994     1340261.882 6   1298168.81949  26616351.6854
  23868884.221    -4719724.610 7  -5295604.02249  23868887.0454
  25143362.533    -5679756.259 7  -4356461.29649  25143366.3184
  26785069.392    -2576298.937 6  -1946928.59849  26785074.4324
  25443033.346    -6666507.270 6  -5127957.06649  25443037.2484
  25165069.549     6662081.318 6   5261139.41149  25165072.8304
 95  2 19 20 30  0.0100000  0  8 18 16 28 19 31  2 27 29
  23533252.932    -5278614.717 7  -4055286.80849  23533255.2644
  27701177.041      -56031.106 4     -7244.48959  27701183.0414
  26628851.510     1405968.648 6   1349368.85149  26628855.6114
  23873259.635    -4696732.725 7  -5277688.26749  23873262.4354
  25143783.142    -5677546.820 7  -4354739.65249  25143786.5294
  26775689.650    -2625587.653 5  -1985335.35149  26775694.7954
  25437492.353    -6695627.277 6  -5150647.94449  25437496.0454
  25186111.283     6772657.000 6   5347302.22449  25186114.2484
 95  2 19 20 30 30.0100000  0  7 18 16 19 31  2 27 29
  23545624.439    -5213600.934 7  -4004626.74149  23545626.8654
  27696816.572      -78951.813 5    -25104.73349  27696822.9714
  23877673.494    -4673538.668 7  -5259614.97949  23877676.2954
  25144310.119    -5674778.110 7  -4352582.20049  25144313.4824
  26766350.244    -2674663.996 5  -2023576.61449  26766355.6704
  25431978.017    -6724605.721 6  -5173228.51749  25431981.4044
  25207225.236     6883611.111 7   5433759.90849  25207228.1074
 95  2 19 20 31  0.0100000  0  8 18 16 28 19 31  2 27 29
  23558091.541    -5148085.485 7  -3953575.76649  23558094.0374
  27692543.767     -101406.788 5    -42602.06149  27692549.9324
                     64578.416 5     39940.59019  26654174.768    26654171.424
  23882121.486    -4650163.338 7  -5241400.43849  23882124.1234
  25144944.432    -5671443.116 7  -4349983.50049  25144947.9004
  26757046.689    -2723554.610 5  -2061673.13649  26757052.5254
  25426486.557    -6753463.065 6  -5195714.73249  25426489.9784
  25228410.439     6994940.163 6   5520509.75349  25228413.7674
 95  2 19 20 31 30.0100000  0  8 18 16 28 19 31  2 27 29
  23570648.221    -5082100.261 7  -3902158.72849  23570650.7874
  27688358.392     -123400.430 5    -59739.95049  27688364.1354
                    131910.136 5     92406.823 9  26666987.303    26666984.346
  23886601.564    -4626619.938 7  -5223054.93149  23886604.4004
  25145684.025    -5667556.666 7  -4346955.09249  25145687.5064
  26747778.025    -2772263.819 6  -2099628.31049  26747783.7794
  25421012.853    -6782225.796 6  -5218127.22249  25421016.2524
  25249664.783     7106633.101 6   5607543.15249  25249668.2874
 95  2 19 20 32  0.0100000  0  8 18 16 28 19 31  2 27 29
  23583296.377    -5015633.678 7  -3850366.60949  23583298.9674
  27684261.353     -144930.764 5    -76516.81249  27684267.6704
                    199775.412 5    145288.820 9  26679902.475    26679898.658
  23891116.713    -4602893.676 7  -5204566.94049  23891119.4784
  25146531.088    -5663105.146 7  -4343486.36749  25146534.4044
  26738547.564    -2820768.891 6  -2137424.41949  26738552.9204
  25415555.158    -6810906.037 6  -5240475.43849  25415558.9434
  25270987.400     7218683.461 6   5694855.05349  25270990.3424
 95  2 19 20 32 30.0100000  0  8 18 16 28 19 31  2 27 29
  23596037.658    -4948678.722 7  -3798193.93649  23596040.2134
  27680250.728     -166003.435 4    -92937.01048  27680256.7174
                    268169.430 5    198582.817 9  26692917.353    26692913.807
  23895666.947    -4578982.013 7  -5185934.48049  23895669.6074
  25147488.682    -5658074.388 7  -4339566.28849  25147492.0804
  26729360.244    -2869051.034 5  -2175046.82549  26729365.8224
  25410110.268    -6839518.903 6  -5262771.14649  25410114.2174
  25292375.283     7331078.432 6   5782435.48349  25292378.8224
 95  2 19 20 33  0.0100000  0  8 18 16 28 19 31  2 27 29
  23608874.455    -4881221.070 8  -3745629.55349  23608876.7644
  27676330.767     -186597.934 3   -108984.67648  27676337.0254
                    337106.957 5    252300.315 9  26706035.783    26706031.971
  23900258.658    -4554851.947 7  -5167131.83249  23900261.3184
  25148556.627    -5652459.962 7  -4335191.39849  25148560.0254
  26720218.283    -2917084.963 5  -2212475.82449  26720224.1314
  25404682.088    -6868046.962 6  -5285000.78649  25404685.6974
  25313831.728     7443832.964 6   5870296.09349  25313835.4084
 95  2 19 20 33 30.0100000  0  8 18 16 28 19 31  2 27 29
  23621810.994    -4813239.019 8  -3692656.55349  23621813.2324
  27672503.775     -206703.345 3   -124651.18146  27672509.9634
                    406602.870 5    306452.935 9  26719260.342    26719256.908
  23904897.400    -4530475.932 7  -5148137.53849  23904900.1314
  25149737.900    -5646254.597 7  -4330356.04549  25149741.5214
  26711131.557    -2964839.113 5  -2249686.79949  26711137.5454
  25399274.502    -6896461.107 6  -5307141.65249  25399278.0644
  25335358.197     7556952.056 6   5958440.77249  25335361.3144
 95  2 19 20 34  0.0100000  0  8 18 16 28 19 31  2 27 29
  23634847.197    -4744733.411 8  -3639275.58449  23634849.4714
  27668770.932     -226327.259 3   -139942.47147  27668777.1424
  26732584.924                       39751.54416
  23909579.932    -4505869.005 7  -5128963.30549  23909582.5214
  25151027.861    -5639474.898 7  -4325073.14949  25151031.4474
  26702091.330    -3012342.233 5  -2286702.17349  26702096.9434
  25393888.307    -6924765.758 6  -5329197.19749  25393891.9394
  25356951.057     7670423.652 6   6046860.12749  25356954.2684
 95  2 19 20 34 30.0100000  0  8 18 16 28 19 31  2 27 29
  23647982.369    -4675708.082 7  -3585489.64049  23647984.7484
  27665131.658     -245459.367 4   -154850.58646  27665138.1974
  26746016.900      110340.200 6     18378.36759  26746021.0724
  23914304.736    -4481039.011 7  -5109615.26449  23914307.2214
  25152424.502    -5632135.292 7  -4319353.96049  25152427.9124
  26693098.228    -3059607.535 6  -2323532.24849  26693103.2674
  25388525.721    -6952946.486 6  -5351156.17249  25388529.1074
  25378614.182     7784262.777 6   6135565.87249  25378617.5334
 95  2 19 20 35  0.0110000  0  8 18 16 28 19 31  2 27 29
  23661211.890    -4606185.866 7  -3531316.50949  23661214.4564
  27661582.421     -264112.176 5   -169385.21449  27661587.8474
  26759552.140      181466.150 6     73801.15449  26759555.7024
  23919067.843    -4456008.786 7  -5090111.19449  23919070.4914
  25153922.936    -5624261.153 7  -4313218.25749  25153926.5224
  26684144.843    -3106651.796 5  -2360190.07349  26684150.4094
  25383185.108    -6981010.607 6  -5373024.27549  25383189.0694
  25400345.780     7898465.793 6   6224555.15249  25400348.8744
 95  2 19 20 35 30.0110000  0  8 18 16 28 19 31  2 27 29
  23674540.936    -4536141.808 7  -3476736.75149  23674543.4684
  27658124.530     -282282.340 5   -183543.79447  27658130.4484
  26773191.015      253136.121 6    129647.85949  26773194.4954
  23923867.647    -4430787.515 7  -5070458.25349  23923870.1794
  25155527.351    -5615830.280 7  -4306648.73149  25155530.9364
  26675240.358    -3153445.913 5  -2396652.94749  26675246.1714
  25377868.218    -7008950.481 6  -5394795.58249  25377871.8974
  25422147.655     8013033.314 6   6313828.47749  25422150.8084
 95  2 19 20 36  0.0110000  0  8 18 16 28 19 31  2 27 29
  23687970.905    -4465567.844 8  -3421744.08149  23687973.2614
  27654758.851     -299969.981 5   -197326.38049  27654763.5264
  26786932.272      325348.216 6    185916.98049  26786936.2104
  23928702.468    -4405379.916 7  -5050660.11749  23928704.9294
  25157239.749    -5606831.466 7  -4299636.65249  25157243.1014
  26666384.147    -3199991.546 6  -2432922.22549  26666389.5034
  25372571.804    -7036780.520 6  -5416481.29149  25372575.8354
  25444019.733     8127972.274 6   6403391.23549  25444023.0264
 95  2 19 20 36 30.0110000  0  8 18 16 28 19 31  2 27 29
  23701501.249    -4394465.012 8  -3366339.29949  23701503.4174
  27651483.515     -317175.633 5   -210733.39949  27651488.9054
  26800775.741      398095.146 6    242602.86349  26800779.7494
  23933573.421    -4379782.103 7  -5030713.76549  23933575.7534
  25159062.608    -5597252.321 7  -4292172.36249  25159065.9724
  26657577.913    -3246267.390 6  -2468981.28049  26657583.2454
  25367294.202    -7064520.233 6  -5438096.60949  25367297.9994
  25465957.710     8243258.245 6   6493224.39149  25465961.2494
 95  2 19 20 37  0.0110000  0  8 18 16 28 19 31  2 27 29
  23715133.358    -4322827.216 7  -3310517.66749  23715135.5734
  27648303.499     -333887.112 5   -223755.31249  27648309.2884
  26814720.929      471377.558 6    299705.99149  26814724.4214
  23938483.077    -4353983.173 7  -5010610.69349  23938485.3394
  25161000.265    -5587069.869 7  -4284237.96849  25161003.7334
  26648824.030    -3292268.792 6  -2504826.49349  26648829.5614
  25362032.741    -7092166.664 6  -5459639.24749  25362036.2454
  25487958.741     8358873.044 6   6583313.77149  25487962.1044
 95  2 19 20 37 30.0110000  0  8 18 16 28 19 31  2 27 29
  23728868.593    -4250649.323 8  -3254275.17549  23728870.8784
  27645217.530     -350102.233 5   -236390.45449  27645222.8154
  26828767.390      545191.591 6    357223.36749  26828771.1164
  23943432.515    -4327973.920 7  -4990343.73549  23943434.7534
  25163052.054    -5576286.095 7  -4275835.01349  25163055.1714
  26640117.913    -3338018.166 6  -2540475.28349  26640123.2574
  25356789.116    -7119720.896 6  -5481110.03749  25356792.5384
  25510021.171     8474812.244 6   6673655.93249  25510024.3474
 95  2 19 20 38  0.0110000  0  8 18 16 28 19 31  2 27 29
  23742705.788    -4177934.292 7  -3197614.13549  23742707.9794
  27642229.483     -365807.338 3   -248628.20149  27642235.7184
  26842916.397      619546.920 6    415162.55149  26842920.4644
  23948425.436    -4301734.306 7  -4969897.27649  23948427.7924
  25165221.054    -5564889.791 7  -4266954.76549  25165224.6634
  26631459.343    -3383522.434 6  -2575933.08249  26631464.8864
  25351569.233    -7147153.000 7  -5502485.65949  25351572.3394
  25532148.007     8591088.170 6   6764260.48549  25532151.2294
 95  2 19 20 38 30.0110000  0  8 18 16 28 19 31  2 27 29
  23756639.124    -4104712.688 7  -3140558.36549  23756641.3974
  27639330.421     -381032.365 3   -260491.79347  27639336.2804
  26857165.304      694424.719 6    473508.85049  26857169.5114
  23953458.163    -4275287.455 7  -4949289.32849  23953460.5654
  25167501.108    -5552906.930 7  -4257617.45749  25167504.2724
  26622840.944    -3428806.862 6  -2611219.58549  26622845.9604
  25346372.390    -7174463.512 7  -5523766.54449  25346375.6364
  25554334.069     8707676.124 6   6855108.15449  25554337.6434
 95  2 19 20 39  0.0110000  0  8 18 16 28 19 31  2 27 29
  23770671.194    -4030974.199 7  -3083099.82249  23770673.4214
  27636526.804     -395774.680 3   -271979.25449  27636532.8394
  26871515.069      769832.315 6    532267.97849  26871519.5114
  23958530.288    -4248633.342 7  -4928519.88149  23958532.4684
  25169893.507    -5540335.373 7  -4247821.42249  25169896.8824
  26614264.780    -3473878.427 6  -2646340.22949  26614270.1244
  25341202.976    -7201627.764 6  -5544933.45649  25341206.4794
  25576585.233     8824605.751 6   6946222.08049  25576588.5614
 95  2 19 20 39 30.0110000  0  8 18 16 28 19 31  2 27 29
  23784800.475    -3956725.272 7  -3025243.53849  23784802.7144
  27633813.655     -410038.395 4   -283093.83549  27633819.3394
  26885965.561      845771.535 5    591441.34249  26885969.8154
  23963641.835    -4221771.242 7  -4907588.36849  23963644.1084
  25172399.483    -5527165.705 7  -4237559.32649  25172402.6714
  26605731.077    -3518719.737 6  -2681281.46349  26605736.6434
  25336062.007    -7228644.141 6  -5565985.13249  25336065.6284
  25598903.327     8941890.949 6   7037613.07249  25598906.7844
 95  2 19 20 40  0.0110000  0  8 18 16 28 19 31  2 27 29
  23799021.640    -3881991.754 7  -2967009.64949  23799024.2294
  27631185.436     -423841.965 5   -293849.85949  27631191.6364
  26900513.499      922219.733 5    651011.32549  26900517.3904
  23968788.765    -4194723.558 7  -4886512.24349  23968791.1554
  25175018.882    -5513401.497 7  -4226833.94849  25175022.4094
  26597241.311    -3563333.366 6  -2716045.26049  26597246.9134
  25330942.522    -7255547.262 7  -5586948.55149  25330946.0734
  25621285.093     9059506.459 6   7129261.45049  25621288.7964
 95  2 19 20 40 30.0110000  0  8 18 16 28 19 31  2 27 29
  23813335.030    -3806774.928 7  -2908399.16049  23813337.5264
  27628652.202     -437159.450 5   -304227.10449  27628658.0734
  26915157.741      999177.159 5    710978.12749  26915161.7024
  23973971.382    -4167489.876 7  -4865291.18249  23973973.6554
  25177752.647    -5499033.977 7  -4215638.46749  25177756.2924
  26588796.124    -3607711.986 6  -2750625.92249  26588801.6084
  25325840.788    -7282355.726 7  -5607838.22949  25325844.0814
  25643729.905     9177454.689 6   7221169.08949  25643733.3394
 95  2 19 20 41  0.0110000  0  8 18 16 28 19 31  2 27 29
  23827736.241    -3731097.152 8  -2849429.48649  23827738.3624
  27626209.819     -449991.783 5   -314226.34149  27626216.0074
  26929894.718     1076620.247 5    771323.35049  26929898.9014
  23979184.991    -4140091.741 7  -4843941.97349  23979187.5344
  25180597.413    -5484086.454 7  -4203991.02649  25180600.8354
  26580394.163    -3651867.636 6  -2785032.86249  26580400.0694
  25320749.444    -7309108.558 6  -5628684.55549  25320753.2654
  25666234.108     9295715.320 6   7313320.16649  25666237.6834
 95  2 19 20 41 30.0110000  0  8 18 16 28 19 31  2 27 29
  23842227.147    -3654945.628 7  -2790090.66049  23842229.2224
  27623862.405     -462327.805 5   -323838.84649  27623866.4834
  26944727.194     1154565.123 6    832059.59349  26944731.4724
  23984432.608    -4112516.114 7  -4822454.46949  23984434.9524
  25183553.280    -5468550.822 7  -4191885.31949  25183556.7144
  26572038.038    -3695779.189 6  -2819249.61249  26572043.4294
  25315670.593    -7335797.268 6  -5649480.91649  25315674.3314
  25688798.054     9414288.595 6   7405714.85549  25688801.7224
 95  2 19 20 42  0.0110000  0  8 18 16 28 19 31  2 27 29
  23856812.952    -3578297.531 7  -2730364.89849  23856815.2614
  27621610.835     -474156.199 5   -333055.79449  27621616.3194
  26959656.382     1233020.168 5    893193.34949  26959661.3154
  23989714.679    -4084757.797 7  -4800824.60449  23989717.1754
  25186618.288    -5452444.795 7  -4179335.15149  25186621.5224
  26563729.257    -3739438.836 6  -2853270.04249  26563735.1044
  25310608.811    -7362399.908 7  -5670210.21649  25310612.2684
  25711423.015     9533182.064 6   7498359.04749  25711426.6834
 95  2 19 20 42 30.0110000  0  8 18 16 28 19 31  2 27 29
  23871488.077    -3501179.962 7  -2670273.31149  23871490.3744
  27619452.296     -485503.209 5   -341897.63449  27619457.6044
  26974678.765     1311961.953 5    954706.37849  26974683.2884
  23995026.194    -4056845.197 7  -4779074.52049  23995028.8784
  25189783.921    -5435809.332 7  -4166372.43449  25189787.3084
  26555465.132    -3782868.191 6  -2887111.03249  26555470.9564
  25305562.952    -7388915.126 7  -5690871.38949  25305566.1164
  25734103.054     9652368.519 6   7591231.53149  25734106.8744
 95  2 19 20 43  0.0110000  0  8 18 16 28 19 31  2 27 29
  23886252.975    -3423589.606 7  -2609813.31349  23886255.3194
  27617380.163     -496392.060 5   -350382.49149  27617386.4214
  26989794.374     1391394.029 6   1016601.46849  26989797.9834
  24000368.647    -4028770.737 7  -4757198.30749  24000371.1794
  25193049.890    -5418647.020 7  -4152999.18449  25193053.1124
  26547245.569    -3826064.180 6  -2920770.18649  26547250.6204
  25300537.905    -7415324.246 7  -5711449.88049  25300541.0344
  25756838.897     9771843.502 6   7684328.85249  25756842.6364
 95  2 19 20 43 30.0110000  0  8 18 16 28 19 31  2 27 29
  23901105.350    -3345539.166 7  -2548994.81349  23901107.6944
  27615392.046     -506838.948 5   -358522.95148  27615396.3584
  27005000.288     1471300.319 6   1078866.06949  27005004.5184
  24005741.358    -4000538.371 7  -4735199.06449  24005743.7964
  25196413.835    -5400969.621 7  -4139224.57549  25196417.3394
  26539066.241    -3869045.521 6  -2954262.08949  26539071.0344
  25295533.632    -7441620.822 7  -5731940.68949  25295536.7024
  25779625.671     9891588.737 6   7777636.75049  25779629.4914
 95  2 19 20 44  0.0110000  0  8 18 16 28 19 31  2 27 29
  23916048.202    -3267014.510 7  -2487806.78949  23916050.3004
  27613495.288     -516808.581 5   -366291.49749  27613499.2254
  27020300.694     1551701.784 6   1141516.54249  27020304.6904
  24011150.522    -3972110.637 7  -4713047.58449  24011153.3114
  25199881.811    -5382743.286 7  -4125022.22049  25199885.3044
  26530932.819    -3911787.997 6  -2987567.84749  26530937.8584
  25290557.140    -7467771.961 7  -5752318.16049  25290560.5034
  25802469.233    10011632.187 6   7871177.02549  25802472.7144
 95  2 19 20 44 30.0110000  0  8 18 16 28 19 31  2 27 29
  23931078.765    -3188028.493 7  -2426259.26449  23931080.9094
  27611689.499     -526295.449 4   -373683.84849  27611695.1004
  27035692.405     1632590.323 5   1204546.52149  27035696.2844
  24016598.366    -3943483.339 7  -4690740.60149  24016600.9564
  25203460.249    -5363940.199 7  -4110370.44749  25203463.6474
  26522842.343    -3954300.528 6  -3020694.41849  26522847.7924
  25285602.999    -7493805.032 7  -5772603.63049  25285606.7254
  25825368.468    10131968.519 6   7964945.53549  25825372.0424
 95  2 19 20 45  0.0110000  0  8 18 16 28 19 31  2 27 29
  23946202.741    -3108551.790 7  -2364329.38349  23946205.0154
  27609980.476     -535268.210 4   -380675.61448  27609986.9444
  27051181.265     1713982.340 5   1267968.82349  27051185.4254
  24022089.241    -3914628.572 7  -4668256.36949  24022091.7614
  25207153.108    -5344532.657 7  -4095247.67249  25207156.4014
  26514799.202    -3996567.018 6  -3053629.27749  26514804.8624
  25280670.022    -7519726.912 7  -5792802.46049  25280673.6554
  25848328.194    10252621.171 6   8058960.50849  25848331.9094
 95  2 19 20 45 30.0110000  0  7 18 28 19 31  2 27 29
  23961419.936    -3028583.828 7  -2302016.70649  23961422.3274
  27066763.897     1795871.841 5   1331778.78049  27066767.9294
  24027623.186    -3885546.722 7  -4645595.19349  24027625.9294
  25210961.015    -5324522.102 7  -4079655.02649  25210964.6014
  26506803.366    -4038588.832 6  -3086373.49449  26506808.0774
  25275755.710    -7545553.218 7  -5812926.81649  25275759.3434
  25871349.983    10373599.509 6   8153229.27249  25871353.6404
 95  2 19 20 46  0.0110000  0  8 18 16 28 19 31  2 27 29
  23976733.999    -2948108.774 7  -2239308.89249  23976736.3194
  27606861.124       -7666.520 3
  27082444.163     1878270.311 5   1395985.33149  27082448.7334
  24033199.319    -3856244.216 7  -4622762.07149  24033202.0034
  25214887.999    -5303886.428 7  -4063575.26949  25214891.4794
  26498855.975    -4080350.161 6  -3118914.72749  26498861.3194
  25270856.671    -7571297.079 7  -5832986.92749  25270860.2684
  25894436.280    10494922.487 6   8247766.59349  25894440.1364
 95  2 19 20 46 30.0110000  0  8 18 16 28 19 31  2 27 29
  23992141.163    -2867144.115 7  -2176219.56849  23992143.2144
  27605444.733      -15117.836 5     -4024.01259  27605450.7574
  27098216.874     1961156.118 5   1460571.64149  27098220.5774
  24038812.608    -3826745.273 7  -4599775.87949  24038815.1754
  25218929.999    -5282646.943 7  -4047025.01849  25218933.5384
  26490954.733    -4121870.250 6  -3151267.96549  26490960.2294
  25265967.069    -7596991.005 7  -5853008.12449  25265970.8314
  25917584.054    10616563.994 6   8342552.11749  25917587.5934
 95  2 19 20 47  0.0110000  0  8 18 16 28 19 31  2 27 29
  24007646.233    -2785664.720 7  -2112729.15249  24007648.2614
  27604121.499       -3880.94715
  27114087.233     2044554.245 5   1525557.14449  27114090.9834
  24044466.288    -3797036.041 7  -4576625.83349  24044468.5854
  25223085.976    -5260804.803 7  -4030005.17549  25223089.6674
  26483104.546    -4163124.646 6  -3183414.17149  26483109.7374
  25261095.124    -7622593.749 7  -5872958.27049  25261098.5344
  25940795.632    10738540.356 6   8437598.55749  25940800.0034
 95  2 19 20 47 30.0110000  0  8 18 16 28 19 31  2 27 29
  24023247.858    -2703675.797 7  -2048841.70049  24023250.1084
  27602887.460      -10362.038 5
  27130053.952     2128462.518 5   1590940.16549  27130058.4294
  24050158.780    -3767121.831 7  -4553316.05849  24050161.3354
  25227357.257    -5238358.510 7  -4012514.55649  25227361.1244
  26475304.515    -4204113.756 6  -3215353.66149  26475309.3544
  25256242.515    -7648094.814 7  -5892829.18649  25256246.2184
  25964068.608    10860840.285 6   8532897.13149  25964072.6864
 95  2 19 20 48  0.0110000  0  8 18 16 28 19 31  2 27 29
  24038941.475    -2621205.628 7  -1984579.25349  24038944.0074
  27601743.593      -16378.159 5     -2767.15859  27601749.7574
  27146113.593     2212857.219 5   1656702.23649  27146118.1404
  24055884.335    -3737034.501 7  -4529871.38749  24055886.6794
  25231741.944    -5215317.782 7  -3994560.74149  25231745.4724
  26467550.171    -4244864.097 6  -3247107.10649  26467554.4604
  25251406.100    -7673509.184 7  -5912632.55849  25251409.6044
  25987393.608    10983416.405 6   8628410.92349  25987397.9214
 95  2 19 20 48 30.0110000  0  8 18 16 28 19 31  2 27 29
  24054726.952    -2538252.459 7  -1919940.43549  24054729.2964
  27600691.108      -21902.585 5     -7071.89949  27600697.6474
  27162267.351     2297743.321 5   1722847.22949  27162271.2884
  24061646.866    -3706753.003 7  -4506275.41549  24061649.0114
  25236239.718    -5191680.784 7  -3976142.30749  25236243.2804
  26459839.366    -4285385.279 6  -3278681.96149  26459843.9014
  25246590.046    -7698818.382 7  -5932353.97449  25246593.2804
  26010769.561    11106257.578 6   8724131.24049  26010773.2764
 95  2 19 20 49  0.0110000  0  8 18 16 28 19 31  2 27 29
  24070606.952    -2454805.376 8  -1854916.75649  24070608.9794
  27599735.710      -26921.228 5    -10982.50049  27599741.5344
  27178513.960     2383119.639 5   1789374.19049  27178517.6984
  24067445.046    -3676283.027 7  -4482532.57449  24067447.2144
  25240851.640    -5167445.481 7  -3957257.65249  25240855.1434
  26452171.194    -4325677.393 6  -3310078.32349  26452175.9644
  25241796.358    -7724009.890 7  -5951983.68849  25241799.3354
  26034194.905    11229356.634 6   8820052.51249  26034199.0544
 95  2 19 20 49 30.0110000  0  8 18 16 28 19 31  2 27 29
  24086579.725    -2370866.532 7  -1789509.88949  24086581.7534
  27598881.507      -31411.826 5    -14481.64149  27598887.3314
  27194854.757     2468990.750 5   1856286.71149  27194858.5074
  24073281.788    -3645608.427 7  -4458630.28949  24073284.3084
  25245582.647    -5142582.862 7  -3937884.18249  25245586.1284
  26444549.007    -4365732.692 6  -3341290.14549  26444554.1864
  25237026.429    -7749075.711 7  -5971515.44949  25237029.6634
  26057671.780    11352727.294 6   8916185.41249  26057675.3784
 95  2 19 20 50  0.0110000  0  8 18 16 28 19 31  2 27 29
  24102648.530    -2286425.491 7  -1723711.69549  24102650.6864
  27598133.382      -35342.900 5    -17544.78849  27598139.0544
  27211293.093     2555374.363 5   1923598.59849  27211297.1364
  24079160.405    -3614718.517 7  -4434560.22549  24079162.7724
  25250434.733    -5117084.603 7  -3918015.40449  25250438.2844
  26436976.460    -4405530.164 6  -3372301.07049  26436981.3354
  25232286.132    -7773985.677 7  -5990925.76849  25232289.2964
  26081205.499    11476399.233 6   9012553.09049  26081209.6714
 95  2 19 20 50 30.0110000  0  8 18 16 28 19 31  2 27 29
  24118814.202    -2201472.838 7  -1657514.84849  24118816.5224
  27597490.327      -38726.196 5    -20181.06649  27597496.4914
  27227828.843     2642269.920 5   1991309.38449  27227832.8514
  24085080.874    -3583605.774 7  -4410316.52549  24085083.2294
  25255403.671    -5090974.763 7  -3897670.06749  25255406.7654
  26429454.022    -4445056.923 6  -3403101.05749  26429458.6864
  25227577.265    -7798730.849 7  -6010207.67149  25227580.3354
  26104800.616    11600392.070 6   9109170.81449  26104804.6364
 95  2 19 20 51  0.0110000  0  8 18 16 28 19 31  2 27 29
  24135072.101    -2116037.354 7  -1590941.76949  24135074.6434
  27596945.046      -41589.642 5    -22412.29649  27596951.1864
  27244458.530     2729661.049 5   2059406.34949  27244462.9134
  24091039.796    -3552289.901 7  -4385914.53949  24091042.2454
  25260485.632    -5064268.805 7  -3876860.21749  25260488.9254
  26421984.944    -4484306.426 6  -3433684.99649  26421990.2534
  25222897.601    -7823321.756 7  -6029369.37649  25222900.7884
  26128456.983    11724706.586 6   9206039.19449  26128460.9444
 95  2 19 20 51 30.0110000  0  8 18 16 28 19 31  2 27 29
  24151420.554    -2030124.293 7  -1523996.55149  24151423.1084
  27596498.819      -43935.693 5    -24240.35249  27596504.8664
  27261184.663     2817558.494 5   2127897.82349  27261189.0694
  24097039.780    -3520761.110 7  -4361346.64649  24097042.1124
  25265682.147    -5036961.574 7  -3855581.84849  25265685.3704
  26414570.413    -4523269.625 6  -3464045.83549  26414575.4764
  25218247.718    -7847758.686 7  -6048411.09249  25218250.6834
  26152178.827    11849364.396 6   9303175.06649  26152183.1514
 95  2 19 20 52  0.0110000  0  8 18 16 28 19 31  2 27 29
  24167863.975    -1943714.675 7  -1456664.40249  24167866.6124
  27596151.655      -45765.026 5    -25665.75949  27596157.5034
  27278007.718     2905960.562 5   2196782.53549  27278011.8434
  24103077.796    -3489031.458 7  -4336622.23549  24103079.9764
  25270992.304    -5009055.741 7  -3833837.02849  25270995.7844
  26407210.296    -4561946.637 6  -3494183.67849  26407215.5114
  25213625.671    -7872045.450 7  -6067335.79849  25213628.8824
  26175962.616    11974348.559 6   9400565.24749  26175966.8004
 95  2 19 20 52 30.0110000  0  8 18 16 28 19 31  2 27 29
  24184400.218    -1856816.744 7  -1388951.75149  24184402.7964
  27595899.343      -47083.230 5    -26692.92147  27595905.8474
  27294923.882     2994856.542 5   2266052.08349  27294928.1594
  24109153.561    -3457102.519 7  -4311742.53949  24109155.9054
  25276418.116    -4980543.531 7  -3811619.71149  25276421.4444
  26399903.515    -4600345.190 6  -3524104.54249  26399908.2494
  25209027.077    -7896212.196 7  -6086166.98149  25209030.4294
  26199805.515    12099643.982 6   9498197.97049  26199809.4874
 95  2 19 20 53  0.0110000  0  8 18 16 28 19 31  2 27 29
  24201028.327    -1769435.056 7  -1320862.14749  24201030.9524
  27595747.483      -47881.063 5    -27314.57649  27595754.0694
  27311933.757     3084244.601 5   2335705.06549  27311937.7534
  24115267.952    -3424970.211 7  -4286704.37049  24115270.4604
  25281963.304    -4951403.214 7  -3788912.96149  25281966.7024
  26392648.382    -4638470.183 6  -3553812.25749  26392652.9994
  25204448.460    -7920273.702 7  -6104916.16949  25204451.4834
  26223706.077    12225241.658 6   9596066.21149  26223710.6834
 95  2 19 20 53 30.0110000  0  7 18 28 19 31  2 27 29
  24217751.210    -1681554.824 7  -1252384.07049  24217753.9994
  27329036.632     3174121.732 5   2405739.16849  27329040.9914
  24121421.491    -3392634.024 7  -4261507.33749  24121424.2924
  25287629.241    -4921628.290 7  -3765711.70349  25287632.4754
  26385443.749    -4676329.918 6  -3583313.26349  26385448.6004
  25199887.991    -7944237.982 7  -6123589.58449  25199891.1434
  26247663.515    12351137.750 6   9694166.97549  26247667.8744
 95  2 19 20 54  0.0110000  0  8 18 16 28 19 31  2 27 29
  24234570.726    -1593167.117 7  -1183510.55449  24234573.3394
  27595749.186         278.050 5
  27346232.694     3264485.965 5   2476152.82449  27346236.5974
  24127617.358    -3360074.872 7  -4236136.56149  24127619.9364
  25293417.374    -4891211.535 7  -3742010.31249  25293420.6324
  26378292.475    -4713912.462 6  -3612598.29049  26378297.1984
  25195348.569    -7968094.562 7  -6142179.08049  25195351.3474
  26271679.718    12477344.554 6   9792509.86649  26271683.7844
 95  2 19 20 54 30.0110000  0  8 18 16 28 19 31  2 27 29
  24251482.882    -1504294.830 7  -1114259.44749  24251485.4834
  27595906.507        1104.390 5       435.84359  27595912.6944
  27363519.757     3355332.008 5   2546941.90949  27363523.8474
  24133858.304    -3327277.718 7  -4210580.33249  24133860.9054
  25299326.319    -4860160.023 7  -3717814.31049  25299329.5184
  26371192.140    -4751222.514 6  -3641670.98749  26371196.6404
  25190827.444    -7991853.856 7  -6160692.77949  25190830.0584
  26295757.061    12603871.227 6   9891102.00549  26295761.3974
 95  2 19 20 55  0.0110000  0  8 18 16 28 19 31  2 27 29
  24268484.858    -1414947.551 7  -1044638.21349  24268487.4954
  27596164.936        2458.827 5      1491.26449  27596169.7064
  27380895.265     3446640.500 5   2618091.35549  27380900.0584
  24140143.647    -3294249.278 7  -4184843.87449  24140146.1434
  25305353.241    -4828487.052 7  -3693134.05349  25305356.5814
  26364141.624    -4788274.397 6  -3670542.51149  26364146.5224
  25186322.804    -8015523.171 7  -6179136.35449  25186325.7454
  26319889.452    12730688.745 6   9989920.77849  26319894.0224
 95  2 19 20 55 30.0110000  0  8 18 16 28 19 31  2 27 29
  24285577.007    -1325128.700 7   -974649.52049  24285579.5034
  27596522.241        1485.14315
  27398358.960     3538410.143 5   2689600.14749  27398363.5184
  24146471.796    -3260993.839 7  -4158930.53549  24146474.1864
  25311497.569    -4796198.362 7  -3667974.01149  25311500.7804
  26357138.358    -4825073.012 6  -3699216.68749  26357143.8544
  25181838.304    -8039089.371 7  -6197499.57649  25181841.2684
  26344077.179    12857793.245 6  10088963.16249  26344081.0114
 95  2 19 20 56  0.0110000  0  8 18 16 28 19 31  2 27 29
  24302757.085    -1234845.901 7   -904299.30649  24302759.6044
  27596977.890        3878.814 5       665.36459  27596983.4214
  27415909.780     3630641.404 5   2761468.62749  27415913.4134
  24152843.311    -3227511.364 7  -4132840.28449  24152845.6674
  25317757.507    -4763302.859 7  -3642341.12749  25317760.7064
  26350183.710    -4861620.706 6  -3727695.33349  26350188.8544
  25177375.202    -8062542.754 7  -6215774.89549  25177378.2724
  26368314.765    12985162.827 6  10188212.10649  26368319.0304
 95  2 19 20 56 30.0110000  0  8 18 16 28 19 31  2 27 29
  24320028.233    -1144086.396 7   -833577.64249  24320030.7764
  27597532.475        6792.896 5      2936.13749  27597538.0304
  27433551.897     3723349.271 5   2833708.52249  27433555.5424
  24159259.304    -3193797.755 7  -4106569.93549  24159261.5304
  25324135.155    -4729786.281 7  -3616224.26349  25324138.7294
  26343278.929    -4897906.669 6  -3755970.05449  26343283.3824
  25172936.085    -8085869.518 7  -6233951.55649  25172939.0734
  26392599.522    13112780.272 6  10287654.19249  26392602.8274
 95  2 19 20 57  0.0110000  0  8 18 16 28 19 31  2 27 29
  24337384.905    -1052877.028 7   -762505.43649  24337387.5894
  27598178.632       10189.486 5      5582.85349  27598185.3934
  27451279.452     3816506.047 5   2906298.20349  27451283.1434
  24165711.116    -3159890.832 7  -4080148.95049  24165713.4254
  25330624.757    -4695686.346 7  -3589652.88449  25330628.1794
  26336419.640    -4933951.672 6  -3784057.00849  26336424.1164
  25168520.476    -8109074.191 7  -6252033.07749  25168523.7334
  26416925.241    13240611.633 6  10387262.96049  26416928.9444
 95  2 19 20 57 30.0110000  0  8 18 16 28 19 31  2 27 29
  24354825.561     -961225.067 7   -691088.34349  24354828.2804
  27598918.905       14077.509 5      8612.56549  27598925.8114
  27469092.132     3910118.245 5   2979242.74249  27469096.6904
  24172199.491    -3125793.766 7  -4053579.80249  24172201.8824
  25337221.272    -4661018.574 7  -3562639.00849  25337224.6364
  26329606.163    -4969756.526 6  -3811956.81949  26329611.3314
  25164132.093    -8132134.787 7  -6270002.32649  25164135.2924
  26441292.975    13368665.712 6  10487045.27849  26441296.8434
 95  2 19 20 58  0.0110000  0  8 18 16 28 19 31  2 27 29
  24372346.522     -869152.168 7   -619343.24749  24372349.4524
  27599747.702       18434.804 5     12007.88149  27599752.9174
  27486988.046     4004160.799 5   3052522.61949  27486991.8544
  24178720.726    -3091524.314 7  -4026876.32249  24178723.1984
  25343923.226    -4625800.958 7  -3535196.69149  25343926.7294
  26322835.530    -5005332.438 6  -3839678.23649  26322840.6284
  25159767.507    -8155070.978 7  -6287874.63349  25159770.4604
  26465698.913    13496921.741 6  10586984.95949  26465702.6044
 95  2 19 20 58 30.0120000  0  8 18 16 28 19 31  2 27 29
  24389950.379     -776643.770 7   -547258.80549  24389953.2034
  27600666.348       23262.164 5     15769.48949  27600672.0434
  27504966.293     4098635.690 5   3126139.37749  27504971.0864
  24185275.129    -3057079.331 7  -4000036.06549  24185277.8834
  25350732.152    -4590018.483 7  -3507314.22449  25350735.2694
  26316111.105    -5040672.259 6  -3867215.69249  26316116.0394
  25155425.254    -8177888.234 7  -6305654.28149  25155428.1954
  26490149.480    13625408.243 6  10687104.22249  26490153.6874
 95  2 19 20 59  0.0120000  0  8 18 16 28 19 31  2 27 29
  24407636.824     -683701.509 7   -474836.28449  24407639.6834
  27601674.207       28562.731 5     19899.87549  27601679.9964
  27523025.027     4193534.848 5   3200086.72449  27523029.7504
  24191862.246    -3022464.432 7  -3973063.40249  24191865.1054
  25357648.785    -4553671.850 7  -3478992.14949  25357652.0554
  26309430.918    -5075778.586 6  -3894571.21949  26309435.3014
  25151106.449    -8200583.791 7  -6323339.08249  25151109.4734
  26514643.980    13754127.336 6  10787404.74349  26514648.7154
 95  2 19 20 59 30.0120000  0  8 18 16 28 19 31  2 27 29
  24425414.230     -590280.457 7   -402040.68349  24425416.7624
  27602777.613       34368.855 5     24424.15149  27602784.1764
  27541170.363     4288891.180 5   3274390.31449  27541174.8634
  24198488.394    -2987646.133 7  -3945932.25249  24198490.9264
  25364681.957    -4516712.264 7  -3450192.45549  25364685.1564
  26302800.090    -5110622.083 6  -3921721.93049  26302804.9414
  25146811.480    -8223154.293 7  -6340926.44349  25146814.7384
  26539191.730    13883125.279 6  10887922.54949  26539195.7384
 95  2 19 21  0  0.0120000  0  8 18 16 28 19 31  2 27 29
  24443286.457     -496360.744 7   -328856.51749  24443289.1994
  27603981.629       40686.467 5     29347.04749  27603988.4374
  27559402.933     4384704.414 5   3349049.95449  27559407.3164
  24205152.957    -2952622.029 7  -3918640.73649  24205155.4534
  25371834.652    -4479124.658 7  -3420903.40349  25371837.7814
  26296221.629    -5145192.284 6  -3948659.69049  26296226.1644
  25142537.683    -8245612.542 7  -6358426.33149  25142540.6014
  26563794.004    14012412.546 6  10988665.78849  26563798.7734
 95  2 19 21  0 30.0120000  0  8 18 16 28 19 31  2 27 29
  24461252.894     -401947.094 7   -255287.46249  24461255.4964
  27605283.074        2568.26515
  27577722.973     4480973.807 5   3424065.00349  27577727.5904
  24211856.254    -2917395.745 7  -3891191.67949  24211858.8554
  25379104.879    -4440919.850 7  -3391133.41849  25379107.7384
  26289693.012    -5179502.149 6  -3975394.58449  26289697.4654
  25138282.933    -8267971.819 7  -6375849.10149  25138286.1214
  26588452.043    14141987.552 6  11089633.22949  26588456.8014
 95  2 19 21  1  0.0120000  0  8 18 16 28 19 31  2 27 29
  24479308.668     -307063.751 7   -181352.41549  24479311.1174
  27606685.965        9942.334 5        -0.75159  27606691.6374
  27596127.394     4577691.158 5   3499429.11149  27596131.4024
  24218598.668    -2881963.761 7  -3863582.33949  24218601.2814
  25386489.105    -4402114.677 7  -3360895.61249  25386492.2814
  26283213.160    -5213553.536 6  -4001928.07649  26283218.0824
  25134047.566    -8290229.204 7  -6393192.47849  25134050.3674
  26613160.941    14271836.736 6  11190814.33749  26613165.6644
 95  2 19 21  1 30.0120000  0  8 18 16 28 19 31  2 27 29
  24497456.738     -211694.464 7   -107038.71049  24497459.3164
  27608198.629       17886.698 5      6189.69949  27608204.8874
  27614622.074     4674878.958 5   3575159.84149  27614625.4844
  24225385.371    -2846300.574 7  -3835792.83149  24225387.9734
  25393992.269    -4362686.246 7  -3330172.14849  25393995.5044
  26276788.418    -5247312.401 6  -4028233.61949  26276793.4344
  25129835.793    -8312359.342 7  -6410436.70149  25129838.9224
  26637928.707    14401990.202 6  11292232.53349  26637933.4304
 95  2 19 21  2  0.0120000  0  8 18 16 28 19 31  2 27 29
  24515695.637     -115847.587 7    -32352.85349  24515698.4024
  27609822.707       26420.777 5     12839.66249  27609828.4964
  27633206.965     4772543.352 5   3651261.94749  27633210.3984
  24232217.566    -2810397.244 7  -3807816.20349  24232220.2264
  25401615.426    -4322625.717 7  -3298956.14849  25401618.4144
  26270420.316    -5280778.018 6  -4054310.66449  26270424.9804
  25125654.879    -8334332.093 7  -6427558.28649  25125658.0194
  26662752.027    14532438.762 6  11393880.67149  26662757.0664
 95  2 19 21  2 30.0120000  0  8 18 16 28 19 31  2 27 29
  24534021.855      -19543.206 7     42689.49749  24534024.6334
  27611559.269       35544.816 5     19949.34849  27611565.5984
  27651882.598     4870686.880 5   3727737.38049  27651887.4734
  24239096.183    -2774249.056 7  -3779648.77849  24239098.7154
  25409361.668    -4281919.161 7  -3267236.75549  25409364.6444
  26264108.816    -5313943.719 6  -4080154.01649  26264113.1764
  25121506.348    -8356133.554 7  -6444546.39649  25121509.3594
  26687629.215    14663169.143 6  11495748.42549  26687633.8674
 95  2 19 21  3  0.0120000  0  8 18 16 28 19 31  2 27 29
  24552436.465       77226.835 7    118094.69749  24552439.0314
  27613405.777       45247.439 5     27509.89249  27613412.2234
  27670649.801       16467.09015
  24246022.137    -2737854.027 7  -3751289.01149  24246024.5624
  25417233.691    -4240549.915 7  -3235000.97349  25417237.0784
  26257857.574    -5346795.373 6  -4105752.65249  26257861.8754
  25117392.449    -8377750.490 7  -6461390.72649  25117395.2624
  26712558.426    14794171.745 6  11597828.28949  26712563.5124
 95  2 19 21  3 30.0120000  0  8 18 16 28 19 31  2 27 29
  24570940.144      174463.136 7    193863.21949  24570942.6994
  27615356.816       55503.531 5     35501.70849  27615363.0744
  27689505.277      115552.068 5
  24252990.207    -2701235.272 7  -3722754.90949  24252992.6684
  25425231.855    -4198520.238 7  -3202250.56649  25425235.2074
  26251660.926    -5379358.931 6  -4131126.80149  26251665.0984
  25113311.785    -8399197.650 7  -6478102.76749  25113314.3514
  26737534.082    14925421.483 5  11700100.72649  26737539.6134
 95  2 19 21  4  0.0120000  0  8 18 16 28 19 31  2 27 29
  24589525.824      272132.223 7    269968.98349  24589528.4844
  27617403.801       66262.438 5     43885.29249  27617409.6604
  27708442.441      215069.660 5     56896.46559  27708446.8714
  24259997.793    -2664409.628 7  -3694059.59749  24260000.2544
  25433351.082    -4155853.307 7  -3169003.59349  25433354.3634
  26245512.832    -5411666.224 6  -4156301.25949  26245517.2154
  25109256.699    -8420504.960 7  -6494705.82949  25109259.6174
  26762549.184    15056872.033 6  11802529.65049  26762553.8014
 95  2 19 21  4 30.0120000  0  8 18 16 28 19 31  2 27 29
  24608198.113      370256.265 7    346429.25049  24608200.8914
  27619545.707       77520.086 5     52657.52449  27619552.0704
  27727463.824      315026.434 5    134784.84349  27727468.3714
  24267048.488    -2627356.870 7  -3665187.31249  24267051.1134
  25441591.254    -4112551.763 7  -3135262.12449  25441594.4304
  26239417.754    -5443696.293 6  -4181259.69949  26239422.1014
  25105228.277    -8441672.938 7  -6511200.32749  25105231.3944
  26787603.441    15188532.513 6  11905122.14549  26787608.6094
 95  2 19 21  5  0.0120000  0  8 18 16 28 19 31  2 27 29
  24626957.035      468832.225 7    423241.66149  24626959.6254
  27621780.019       89261.209 5     61806.48049  27621786.1724
  27746565.269      415404.450 5    213001.44249  27746569.7114
  24274140.254    -2590090.589 7  -3636148.64749  24274142.7734
  25449946.871    -4068643.136 7  -3101047.59749  25449950.0594
  26233369.855    -5475477.024 6  -4206023.85449  26233374.7194
  25101222.152    -8462727.679 7  -6527606.58949  25101225.0234
  26812696.457    15320397.772 5  12007874.20449  26812701.8014
 95  2 19 21  5 30.0120000  0  8 18 16 28 19 31  2 27 29
  24645805.707      567883.217 7    500424.23149  24645808.1334
  27624113.144      101518.497 5     71357.65449  27624118.6054
  27765752.082      516233.215 5    291569.28249  27765756.8984
  24281277.801    -2552583.403 7  -3606922.26649  24281280.0864
  25458422.449    -4024103.240 7  -3066341.16749  25458425.5554
  26227375.105    -5506980.351 6  -4230571.85149  26227379.5234
  25097241.590    -8483645.092 7  -6543905.84549  25097244.1914
  26837836.426    15452507.957 6  12110817.11449  26837841.5704
